Time,TemperatureF,DewpointF,PressureIn,WindDirection,WindDirectionDegrees,WindSpeedMPH,WindSpeedGustMPH,Humidity,HourlyPrecipIn,Conditions,Clouds,dailyrainin,SoftwareType,DateUTC
2013-05-19 00:00:00,64.2,57.6,29.74,NE,38,60.0,60.0,79,0.00,,---,0.84,VWS V14.01,2013-05-19 05:00:00,
2013-05-19 00:01:00,64.2,57.6,29.74,East,79,60.0,60.0,79,0.00,,---,0.00,VWS V14.01,2013-05-19 05:01:00,
2013-05-19 00:02:00,64.2,57.6,29.74,ENE,68,60.0,60.0,79,0.00,,---,0.00,VWS V14.01,2013-05-19 05:02:00,
2013-05-19 00:03:00,64.2,57.6,29.74,East,80,60.0,60.0,79,0.00,,---,0.00,VWS V14.01,2013-05-19 05:03:00,
2013-05-19 00:04:00,64.2,57.6,29.74,East,99,60.0,60.0,79,0.00,,---,0.00,VWS V14.01,2013-05-19 05:04:00,
2013-05-19 00:05:00,64.2,57.6,29.74,ENE,73,60.0,60.0,79,0.00,,---,0.00,VWS V14.01,2013-05-19 05:05:00,
2013-05-19 00:06:00,64.2,57.6,29.74,ENE,75,60.0,60.0,79,0.00,,---,0.00,VWS V14.01,2013-05-19 05:06:00,
2013-05-19 00:07:00,64.2,57.6,29.74,East,97,60.0,60.0,79,0.00,,---,0.00,VWS V14.01,2013-05-19 05:07:00,
2013-05-19 00:08:00,64.0,57.4,29.74,East,99,60.0,60.0,79,0.00,,---,0.00,VWS V14.01,2013-05-19 05:08:00,
2013-05-19 00:09:00,64.0,57.7,29.74,East,93,60.0,60.0,80,0.00,,---,0.00,VWS V14.01,2013-05-19 05:09:00,
2013-05-19 00:10:00,64.0,57.7,29.74,East,85,60.0,60.0,80,0.00,,---,0.00,VWS V14.01,2013-05-19 05:10:00,
2013-05-19 00:11:00,64.0,57.7,29.74,ENE,59,60.0,60.0,80,0.00,,---,0.00,VWS V14.01,2013-05-19 05:11:00,
2013-05-19 00:12:00,64.0,57.7,29.74,ENE,64,60.0,60.0,80,0.00,,---,0.00,VWS V14.01,2013-05-19 05:12:00,
2013-05-19 00:13:00,64.0,57.7,29.74,ENE,66,60.0,60.0,80,0.00,,---,0.00,VWS V14.01,2013-05-19 05:13:00,
2013-05-19 00:14:00,64.0,57.7,29.74,ENE,73,60.0,60.0,80,0.00,,---,0.00,VWS V14.01,2013-05-19 05:14:00,
2013-05-19 00:15:00,64.0,57.7,29.73,East,99,60.0,60.0,80,0.00,,---,0.00,VWS V14.01,2013-05-19 05:15:00,
2013-05-19 00:16:00,64.0,57.7,29.73,ENE,65,60.0,60.0,80,0.00,,---,0.00,VWS V14.01,2013-05-19 05:16:00,
2013-05-19 00:17:00,64.0,57.7,29.73,East,90,60.0,60.0,80,0.00,,---,0.00,VWS V14.01,2013-05-19 05:17:00,
2013-05-19 00:18:00,63.9,57.6,29.73,ENE,75,60.0,60.0,80,0.00,,---,0.00,VWS V14.01,2013-05-19 05:18:00,
2013-05-19 00:19:00,63.9,57.6,29.73,East,82,60.0,60.0,80,0.00,,---,0.00,VWS V14.01,2013-05-19 05:19:00,
2013-05-19 00:20:00,63.9,57.6,29.73,ENE,75,60.0,60.0,80,0.00,,---,0.00,VWS V14.01,2013-05-19 05:20:00,
2013-05-19 00:21:00,63.9,57.6,29.73,ENE,75,60.0,60.0,80,0.00,,---,0.00,VWS V14.01,2013-05-19 05:21:00,
2013-05-19 00:22:00,63.9,57.6,29.73,ENE,76,60.0,60.0,80,0.00,,---,0.00,VWS V14.01,2013-05-19 05:22:00,
2013-05-19 00:23:00,63.9,57.6,29.73,East,88,60.0,60.0,80,0.00,,---,0.00,VWS V14.01,2013-05-19 05:23:00,
2013-05-19 00:24:00,63.9,57.6,29.73,North,0,60.0,60.0,80,0.00,,---,0.00,VWS V14.01,2013-05-19 05:24:00,
2013-05-19 00:25:00,63.9,57.6,29.73,East,89,60.0,60.0,80,0.00,,---,0.00,VWS V14.01,2013-05-19 05:25:00,
2013-05-19 00:26:00,63.9,58.0,29.73,ENE,76,60.0,60.0,81,0.00,,---,0.00,VWS V14.01,2013-05-19 05:26:00,
2013-05-19 00:27:00,63.9,58.0,29.73,NE,56,60.0,60.0,81,0.00,,---,0.00,VWS V14.01,2013-05-19 05:27:00,
2013-05-19 00:28:00,63.7,57.8,29.73,ENE,59,60.0,60.0,81,0.00,,---,0.00,VWS V14.01,2013-05-19 05:28:00,
2013-05-19 00:29:00,63.7,57.8,29.73,ENE,66,60.0,60.0,81,0.00,,---,0.00,VWS V14.01,2013-05-19 05:29:00,
2013-05-19 00:30:00,63.7,57.8,29.73,NNE,30,60.0,60.0,81,0.00,,---,0.00,VWS V14.01,2013-05-19 05:30:00,
2013-05-19 00:31:00,63.7,57.8,29.73,NE,51,60.0,60.0,81,0.00,,---,0.00,VWS V14.01,2013-05-19 05:31:00,
2013-05-19 00:32:00,63.7,57.8,29.73,NE,48,60.0,60.0,81,0.00,,---,0.00,VWS V14.01,2013-05-19 05:32:00,
2013-05-19 00:33:00,63.7,57.8,29.73,ENE,58,60.0,60.0,81,0.00,,---,0.00,VWS V14.01,2013-05-19 05:33:00,
2013-05-19 00:34:00,63.7,57.1,29.73,ENE,72,60.0,60.0,79,0.00,,---,0.00,VWS V14.01,2013-05-19 05:34:00,
2013-05-19 00:35:00,63.7,57.8,29.73,East,80,60.0,60.0,81,0.00,,---,0.00,VWS V14.01,2013-05-19 05:35:00,
2013-05-19 00:36:00,63.7,57.8,29.73,East,85,60.0,60.0,81,0.00,,---,0.00,VWS V14.01,2013-05-19 05:36:00,
2013-05-19 00:37:00,63.7,57.8,29.73,NE,37,60.0,60.0,81,0.00,,---,0.00,VWS V14.01,2013-05-19 05:37:00,
2013-05-19 00:38:00,63.5,57.6,29.73,ENE,72,60.0,60.0,81,0.00,,---,0.00,VWS V14.01,2013-05-19 05:38:00,
2013-05-19 00:39:00,63.5,57.6,29.73,NE,56,60.0,60.0,81,0.00,,---,0.00,VWS V14.01,2013-05-19 05:39:00,
2013-05-19 00:40:00,63.5,57.9,29.73,East,89,60.0,60.0,82,0.00,,---,0.00,VWS V14.01,2013-05-19 05:40:00,
2013-05-19 00:41:00,63.5,57.9,29.73,NNE,31,60.0,60.0,82,0.00,,---,0.00,VWS V14.01,2013-05-19 05:41:00,
2013-05-19 00:42:00,63.5,57.9,29.73,ENE,68,60.0,60.0,82,0.00,,---,0.00,VWS V14.01,2013-05-19 05:42:00,
2013-05-19 00:43:00,63.5,57.9,29.73,East,88,60.0,60.0,82,0.00,,---,0.00,VWS V14.01,2013-05-19 05:43:00,
2013-05-19 00:44:00,63.5,57.9,29.73,NE,38,60.0,60.0,82,0.00,,---,0.00,VWS V14.01,2013-05-19 05:44:00,
2013-05-19 00:45:00,63.5,57.9,29.73,NE,47,60.0,60.0,82,0.00,,---,0.00,VWS V14.01,2013-05-19 05:45:00,
2013-05-19 00:46:00,63.4,57.8,29.73,ENE,75,60.0,60.0,82,0.00,,---,0.00,VWS V14.01,2013-05-19 05:46:00,
2013-05-19 00:47:00,63.5,57.9,29.73,NE,38,60.0,60.0,82,0.00,,---,0.00,VWS V14.01,2013-05-19 05:47:00,
2013-05-19 00:48:00,63.5,57.9,29.73,North,4,60.0,60.0,82,0.00,,---,0.00,VWS V14.01,2013-05-19 05:48:00,
2013-05-19 00:49:00,63.4,57.8,29.73,NE,47,60.0,60.0,82,0.00,,---,0.00,VWS V14.01,2013-05-19 05:49:00,
2013-05-19 00:50:00,63.4,57.8,29.73,East,80,60.0,60.0,82,0.00,,---,0.00,VWS V14.01,2013-05-19 05:50:00,
2013-05-19 00:51:00,63.4,57.8,29.73,East,89,60.0,60.0,82,0.00,,---,0.00,VWS V14.01,2013-05-19 05:51:00,
2013-05-19 00:52:00,63.4,57.8,29.73,NE,41,60.0,60.0,82,0.00,,---,0.00,VWS V14.01,2013-05-19 05:52:00,
2013-05-19 00:53:00,63.4,57.8,29.73,East,90,60.0,60.0,82,0.00,,---,0.00,VWS V14.01,2013-05-19 05:53:00,
2013-05-19 00:54:00,63.4,57.8,29.73,East,100,60.0,60.0,82,0.00,,---,0.00,VWS V14.01,2013-05-19 05:54:00,
2013-05-19 00:55:00,63.4,57.8,29.73,North,11,60.0,60.0,82,0.00,,---,0.00,VWS V14.01,2013-05-19 05:55:00,
2013-05-19 00:56:00,63.4,58.2,29.73,East,83,60.0,60.0,83,0.00,,---,0.00,VWS V14.01,2013-05-19 05:56:00,
2013-05-19 00:57:00,63.4,58.2,29.73,ENE,65,60.0,60.0,83,0.00,,---,0.00,VWS V14.01,2013-05-19 05:57:00,
2013-05-19 00:58:00,63.4,58.2,29.73,East,88,60.0,60.0,83,0.00,,---,0.00,VWS V14.01,2013-05-19 05:58:00,
2013-05-19 00:59:00,63.4,57.8,29.73,ENE,64,60.0,60.0,82,0.00,,---,0.00,VWS V14.01,2013-05-19 05:59:00,
2013-05-19 01:00:00,63.4,57.8,29.73,NE,48,60.0,60.0,82,0.00,,---,0.00,VWS V14.01,2013-05-19 06:00:00,
2013-05-19 01:01:00,63.4,57.8,29.73,NE,48,60.0,60.0,82,0.00,,---,0.00,VWS V14.01,2013-05-19 06:01:00,
2013-05-19 01:02:00,63.4,57.8,29.73,NE,47,60.0,60.0,82,0.00,,---,0.00,VWS V14.01,2013-05-19 06:02:00,
2013-05-19 01:03:00,63.4,58.2,29.73,ENE,61,60.0,60.0,83,0.00,,---,0.00,VWS V14.01,2013-05-19 06:03:00,
2013-05-19 01:04:00,63.4,57.8,29.73,ENE,65,60.0,60.0,82,0.00,,---,0.00,VWS V14.01,2013-05-19 06:04:00,
2013-05-19 01:05:00,63.2,57.6,29.73,ENE,78,60.0,60.0,82,0.00,,---,0.00,VWS V14.01,2013-05-19 06:05:00,
2013-05-19 01:06:00,63.2,58.0,29.73,East,79,60.0,60.0,83,0.00,,---,0.00,VWS V14.01,2013-05-19 06:06:00,
2013-05-19 01:07:00,63.2,58.0,29.73,ENE,66,60.0,60.0,83,0.00,,---,0.00,VWS V14.01,2013-05-19 06:07:00,
2013-05-19 01:08:00,63.2,58.0,29.73,NE,45,60.0,60.0,83,0.00,,---,0.00,VWS V14.01,2013-05-19 06:08:00,
2013-05-19 01:09:00,63.2,58.0,29.73,ENE,64,60.0,60.0,83,0.00,,---,0.00,VWS V14.01,2013-05-19 06:09:00,
2013-05-19 01:10:00,63.2,58.0,29.73,ENE,59,60.0,60.0,83,0.00,,---,0.00,VWS V14.01,2013-05-19 06:10:00,
2013-05-19 01:11:00,63.2,58.0,29.73,East,79,60.0,60.0,83,0.00,,---,0.00,VWS V14.01,2013-05-19 06:11:00,
2013-05-19 01:12:00,63.1,57.5,29.73,NNE,28,60.0,60.0,82,0.00,,---,0.00,VWS V14.01,2013-05-19 06:12:00,
2013-05-19 01:13:00,63.1,57.9,29.73,ENE,69,60.0,60.0,83,0.00,,---,0.00,VWS V14.01,2013-05-19 06:13:00,
2013-05-19 01:14:00,63.1,57.9,29.73,NE,45,60.0,60.0,83,0.00,,---,0.00,VWS V14.01,2013-05-19 06:14:00,
2013-05-19 01:15:00,63.1,57.9,29.73,NNE,32,60.0,60.0,83,0.00,,---,0.00,VWS V14.01,2013-05-19 06:15:00,
2013-05-19 01:16:00,62.9,57.7,29.73,ENE,59,60.0,60.0,83,0.00,,---,0.00,VWS V14.01,2013-05-19 06:16:00,
2013-05-19 01:17:00,62.9,57.7,29.73,East,85,60.0,60.0,83,0.00,,---,0.00,VWS V14.01,2013-05-19 06:17:00,
2013-05-19 01:18:00,62.9,57.7,29.73,NNE,30,60.0,60.0,83,0.00,,---,0.00,VWS V14.01,2013-05-19 06:18:00,
2013-05-19 01:19:00,62.9,57.7,29.73,NE,49,60.0,60.0,83,0.00,,---,0.00,VWS V14.01,2013-05-19 06:19:00,
2013-05-19 01:20:00,62.9,57.7,29.73,ENE,72,60.0,60.0,83,0.00,,---,0.00,VWS V14.01,2013-05-19 06:20:00,
2013-05-19 01:21:00,62.7,57.5,29.73,ENE,58,60.0,60.0,83,0.00,,---,0.00,VWS V14.01,2013-05-19 06:21:00,
2013-05-19 01:22:00,62.7,57.5,29.73,ENE,58,60.0,60.0,83,0.00,,---,0.00,VWS V14.01,2013-05-19 06:22:00,
2013-05-19 01:23:00,62.7,57.5,29.73,ENE,59,60.0,60.0,83,0.00,,---,0.00,VWS V14.01,2013-05-19 06:23:00,
2013-05-19 01:24:00,62.7,57.5,29.73,NE,54,60.0,60.0,83,0.00,,---,0.00,VWS V14.01,2013-05-19 06:24:00,
2013-05-19 01:25:00,62.7,57.5,29.73,NE,55,60.0,60.0,83,0.00,,---,0.00,VWS V14.01,2013-05-19 06:25:00,
2013-05-19 01:26:00,62.7,57.5,29.73,East,82,60.0,60.0,83,0.00,,---,0.00,VWS V14.01,2013-05-19 06:26:00,
2013-05-19 01:27:00,62.7,57.5,29.73,ENE,76,60.0,60.0,83,0.00,,---,0.00,VWS V14.01,2013-05-19 06:27:00,
2013-05-19 01:28:00,62.6,57.4,29.73,NNE,23,60.0,60.0,83,0.00,,---,0.00,VWS V14.01,2013-05-19 06:28:00,
2013-05-19 01:29:00,62.6,57.4,29.73,ENE,68,60.0,60.0,83,0.00,,---,0.00,VWS V14.01,2013-05-19 06:29:00,
2013-05-19 01:30:00,62.6,57.4,29.73,ENE,59,60.0,60.0,83,0.00,,---,0.00,VWS V14.01,2013-05-19 06:30:00,
2013-05-19 01:31:00,62.4,57.2,29.73,East,82,60.0,60.0,83,0.00,,---,0.00,VWS V14.01,2013-05-19 06:31:00,
2013-05-19 01:32:00,62.4,57.2,29.73,NE,47,60.0,60.0,83,0.00,,---,0.00,VWS V14.01,2013-05-19 06:32:00,
2013-05-19 01:33:00,62.4,57.2,29.73,NE,49,60.0,60.0,83,0.00,,---,0.00,VWS V14.01,2013-05-19 06:33:00,
2013-05-19 01:34:00,62.4,57.2,29.73,ENE,61,60.0,60.0,83,0.00,,---,0.00,VWS V14.01,2013-05-19 06:34:00,
2013-05-19 01:35:00,62.4,57.2,29.73,ENE,78,60.0,60.0,83,0.00,,---,0.00,VWS V14.01,2013-05-19 06:35:00,
2013-05-19 01:36:00,62.4,57.2,29.73,NNE,28,60.0,60.0,83,0.00,,---,0.00,VWS V14.01,2013-05-19 06:36:00,
2013-05-19 01:37:00,62.3,57.1,29.73,East,93,60.0,60.0,83,0.00,,---,0.00,VWS V14.01,2013-05-19 06:37:00,
2013-05-19 01:38:00,62.4,57.2,29.73,NNE,20,60.0,60.0,83,0.00,,---,0.00,VWS V14.01,2013-05-19 06:38:00,
2013-05-19 01:39:00,62.4,57.2,29.73,NE,54,60.0,60.0,83,0.00,,---,0.00,VWS V14.01,2013-05-19 06:39:00,
2013-05-19 01:40:00,62.3,57.1,29.73,East,82,60.0,60.0,83,0.00,,---,0.00,VWS V14.01,2013-05-19 06:40:00,
2013-05-19 01:41:00,62.3,57.1,29.73,East,82,60.0,60.0,83,0.00,,---,0.00,VWS V14.01,2013-05-19 06:41:00,
2013-05-19 01:42:00,62.3,57.1,29.73,East,93,60.0,60.0,83,0.00,,---,0.00,VWS V14.01,2013-05-19 06:42:00,
2013-05-19 01:43:00,62.3,57.1,29.73,East,79,60.0,60.0,83,0.00,,---,0.00,VWS V14.01,2013-05-19 06:43:00,
2013-05-19 01:44:00,62.4,57.2,29.72,NE,55,60.0,60.0,83,0.00,,---,0.00,VWS V14.01,2013-05-19 06:44:00,
2013-05-19 01:45:00,62.3,57.1,29.72,ENE,69,60.0,60.0,83,0.00,,---,0.00,VWS V14.01,2013-05-19 06:45:00,
2013-05-19 01:46:00,62.3,57.1,29.72,ENE,65,60.0,60.0,83,0.00,,---,0.00,VWS V14.01,2013-05-19 06:46:00,
2013-05-19 01:47:00,62.3,57.1,29.72,East,93,60.0,60.0,83,0.00,,---,0.00,VWS V14.01,2013-05-19 06:47:00,
2013-05-19 01:48:00,62.3,57.4,29.72,NNE,31,60.0,60.0,84,0.00,,---,0.00,VWS V14.01,2013-05-19 06:48:00,
2013-05-19 01:49:00,62.3,57.4,29.72,ENE,66,60.0,60.0,84,0.00,,---,0.00,VWS V14.01,2013-05-19 06:49:00,
2013-05-19 01:50:00,62.3,57.4,29.72,ENE,71,60.0,60.0,84,0.00,,---,0.00,VWS V14.01,2013-05-19 06:50:00,
2013-05-19 01:51:00,62.3,57.4,29.72,ENE,61,60.0,60.0,84,0.00,,---,0.00,VWS V14.01,2013-05-19 06:51:00,
2013-05-19 01:52:00,62.3,57.4,29.72,NE,48,60.0,60.0,84,0.00,,---,0.00,VWS V14.01,2013-05-19 06:52:00,
2013-05-19 01:53:00,62.3,57.4,29.72,East,80,60.0,60.0,84,0.00,,---,0.00,VWS V14.01,2013-05-19 06:53:00,
2013-05-19 01:54:00,62.3,57.4,29.72,East,96,60.0,60.0,84,0.00,,---,0.00,VWS V14.01,2013-05-19 06:54:00,
2013-05-19 01:55:00,62.3,57.4,29.72,East,80,60.0,60.0,84,0.00,,---,0.00,VWS V14.01,2013-05-19 06:55:00,
2013-05-19 02:02:00,62.4,57.8,29.73,ENE,73,60.0,60.0,85,0.00,,---,0.00,VWS V14.01,2013-05-19 07:02:00,
2013-05-19 02:03:00,62.4,57.8,29.73,ENE,75,60.0,60.0,85,0.00,,---,0.00,VWS V14.01,2013-05-19 07:03:00,
2013-05-19 02:04:00,62.4,57.8,29.73,East,79,60.0,60.0,85,0.00,,---,0.00,VWS V14.01,2013-05-19 07:04:00,
2013-05-19 02:05:00,62.4,57.8,29.73,East,86,60.0,60.0,85,0.00,,---,0.00,VWS V14.01,2013-05-19 07:05:00,
2013-05-19 02:06:00,62.4,57.8,29.73,East,96,60.0,60.0,85,0.00,,---,0.00,VWS V14.01,2013-05-19 07:06:00,
2013-05-19 02:07:00,62.4,57.8,29.73,ENE,65,60.0,60.0,85,0.00,,---,0.00,VWS V14.01,2013-05-19 07:07:00,
2013-05-19 02:08:00,62.4,57.8,29.73,East,79,60.0,60.0,85,0.00,,---,0.00,VWS V14.01,2013-05-19 07:08:00,
2013-05-19 02:09:00,62.4,57.8,29.73,ENE,65,60.0,60.0,85,0.00,,---,0.00,VWS V14.01,2013-05-19 07:09:00,
2013-05-19 02:10:00,62.4,59.1,29.73,ENE,66,60.0,60.0,89,0.01,,---,0.01,VWS V14.01,2013-05-19 07:10:00,
2013-05-19 02:11:00,62.4,58.2,29.73,ENE,66,60.0,60.0,86,0.01,,---,0.01,VWS V14.01,2013-05-19 07:11:00,
2013-05-19 02:12:00,62.4,58.2,29.73,NE,51,60.0,60.0,86,0.01,,---,0.01,VWS V14.01,2013-05-19 07:12:00,
2013-05-19 02:13:00,62.4,58.2,29.73,NE,52,60.0,60.0,86,0.01,,---,0.01,VWS V14.01,2013-05-19 07:13:00,
2013-05-19 02:14:00,62.4,58.2,29.73,NNE,16,60.0,60.0,86,0.01,,---,0.01,VWS V14.01,2013-05-19 07:14:00,
2013-05-19 02:15:00,62.3,58.1,29.73,NE,42,60.0,60.0,86,0.01,,---,0.01,VWS V14.01,2013-05-19 07:15:00,
2013-05-19 02:16:00,62.3,58.1,29.73,NE,42,60.0,60.0,86,0.01,,---,0.01,VWS V14.01,2013-05-19 07:16:00,
2013-05-19 02:17:00,62.3,58.1,29.73,ENE,62,60.0,60.0,86,0.01,,---,0.01,VWS V14.01,2013-05-19 07:17:00,
2013-05-19 02:18:00,62.1,58.8,29.73,ENE,61,60.0,60.0,89,0.02,,---,0.02,VWS V14.01,2013-05-19 07:18:00,
2013-05-19 02:19:00,62.1,57.9,29.73,ENE,61,60.0,60.0,86,0.02,,---,0.02,VWS V14.01,2013-05-19 07:19:00,
2013-05-19 02:20:00,62.1,57.9,29.73,NE,48,60.0,60.0,86,0.03,,---,0.03,VWS V14.01,2013-05-19 07:20:00,
2013-05-19 02:21:00,62.1,57.9,29.73,NE,49,60.0,60.0,86,0.03,,---,0.03,VWS V14.01,2013-05-19 07:21:00,
2013-05-19 02:22:00,62.1,57.9,29.73,NNE,21,60.0,60.0,86,0.03,,---,0.03,VWS V14.01,2013-05-19 07:22:00,
2013-05-19 02:23:00,62.1,57.9,29.73,East,89,60.0,60.0,86,0.03,,---,0.03,VWS V14.01,2013-05-19 07:23:00,
2013-05-19 02:24:00,62.1,57.9,29.73,East,92,60.0,60.0,86,0.03,,---,0.03,VWS V14.01,2013-05-19 07:24:00,
2013-05-19 02:25:00,62.1,57.9,29.73,ENE,59,60.0,60.0,86,0.03,,---,0.03,VWS V14.01,2013-05-19 07:25:00,
2013-05-19 02:26:00,62.1,58.2,29.73,NE,54,60.0,60.0,87,0.03,,---,0.03,VWS V14.01,2013-05-19 07:26:00,
2013-05-19 02:27:00,62.1,58.2,29.73,ENE,61,60.0,60.0,87,0.03,,---,0.03,VWS V14.01,2013-05-19 07:27:00,
2013-05-19 02:28:00,62.1,58.2,29.73,ENE,62,60.0,60.0,87,0.03,,---,0.03,VWS V14.01,2013-05-19 07:28:00,
2013-05-19 02:29:00,62.0,58.1,29.73,ENE,58,60.0,60.0,87,0.03,,---,0.03,VWS V14.01,2013-05-19 07:29:00,
2013-05-19 02:30:00,62.0,58.1,29.72,ENE,58,60.0,60.0,87,0.03,,---,0.03,VWS V14.01,2013-05-19 07:30:00,
2013-05-19 02:31:00,62.0,58.1,29.72,ENE,73,60.0,60.0,87,0.03,,---,0.03,VWS V14.01,2013-05-19 07:31:00,
2013-05-19 02:32:00,62.0,58.1,29.72,NE,47,60.0,60.0,87,0.03,,---,0.03,VWS V14.01,2013-05-19 07:32:00,
2013-05-19 02:33:00,62.0,58.7,29.72,NE,38,60.0,60.0,89,0.03,,---,0.03,VWS V14.01,2013-05-19 07:33:00,
2013-05-19 02:34:00,62.0,58.1,29.72,NNE,18,60.0,60.0,87,0.03,,---,0.03,VWS V14.01,2013-05-19 07:34:00,
2013-05-19 02:35:00,62.0,58.1,29.72,NE,40,60.0,60.0,87,0.03,,---,0.03,VWS V14.01,2013-05-19 07:35:00,
2013-05-19 02:43:00,62.0,58.4,29.72,ENE,69,60.0,60.0,88,0.03,,---,0.03,VWS V14.01,2013-05-19 07:43:00,
2013-05-19 02:44:00,62.0,58.4,29.72,ENE,61,60.0,60.0,88,0.03,,---,0.03,VWS V14.01,2013-05-19 07:44:00,
2013-05-19 02:45:00,62.1,58.5,29.72,NE,48,60.0,60.0,88,0.03,,---,0.03,VWS V14.01,2013-05-19 07:45:00,
2013-05-19 02:46:00,62.1,58.5,29.72,NE,44,60.0,60.0,88,0.03,,---,0.03,VWS V14.01,2013-05-19 07:46:00,
2013-05-19 02:47:00,62.1,58.5,29.72,NE,49,60.0,60.0,88,0.03,,---,0.03,VWS V14.01,2013-05-19 07:47:00,
2013-05-19 02:48:00,62.1,58.5,29.72,NE,49,60.0,60.0,88,0.03,,---,0.03,VWS V14.01,2013-05-19 07:48:00,
2013-05-19 02:49:00,62.1,58.5,29.72,NE,48,60.0,60.0,88,0.03,,---,0.03,VWS V14.01,2013-05-19 07:49:00,
2013-05-19 02:50:00,62.1,59.8,29.72,NE,49,60.0,60.0,92,0.03,,---,0.03,VWS V14.01,2013-05-19 07:50:00,
2013-05-19 02:51:00,62.1,58.5,29.72,North,0,60.0,60.0,88,0.03,,---,0.03,VWS V14.01,2013-05-19 07:51:00,
2013-05-19 02:52:00,62.1,58.5,29.72,North,1,60.0,60.0,88,0.03,,---,0.03,VWS V14.01,2013-05-19 07:52:00,
2013-05-19 02:53:00,62.1,58.5,29.72,North,7,60.0,60.0,88,0.03,,---,0.03,VWS V14.01,2013-05-19 07:53:00,
2013-05-19 02:54:00,62.3,57.4,29.72,NNE,14,60.0,60.0,84,0.03,,---,0.03,VWS V14.01,2013-05-19 07:54:00,
2013-05-19 02:55:00,62.1,59.5,29.72,NE,35,60.0,60.0,91,0.04,,---,0.04,VWS V14.01,2013-05-19 07:55:00,
2013-05-19 02:56:00,62.3,58.7,29.72,NE,35,60.0,60.0,88,0.04,,---,0.04,VWS V14.01,2013-05-19 07:56:00,
2013-05-19 02:57:00,62.3,58.7,29.72,NE,35,60.0,60.0,88,0.04,,---,0.04,VWS V14.01,2013-05-19 07:57:00,
2013-05-19 02:58:00,62.1,58.5,29.72,NE,35,60.0,60.0,88,0.04,,---,0.04,VWS V14.01,2013-05-19 07:58:00,
2013-05-19 02:59:00,62.3,58.1,29.72,NNE,32,60.0,60.0,86,0.04,,---,0.04,VWS V14.01,2013-05-19 07:59:00,
2013-05-19 03:00:00,62.1,58.5,29.72,NNE,23,60.0,60.0,88,0.04,,---,0.04,VWS V14.01,2013-05-19 08:00:00,
2013-05-19 03:01:00,62.1,58.5,29.72,North,3,60.0,60.0,88,0.04,,---,0.04,VWS V14.01,2013-05-19 08:01:00,
2013-05-19 03:02:00,62.0,58.4,29.72,North,8,60.0,60.0,88,0.04,,---,0.04,VWS V14.01,2013-05-19 08:02:00,
2013-05-19 03:03:00,62.0,58.4,29.72,North,10,60.0,60.0,88,0.04,,---,0.04,VWS V14.01,2013-05-19 08:03:00,
2013-05-19 03:04:00,61.8,57.2,29.72,NE,34,60.0,60.0,85,0.04,,---,0.04,VWS V14.01,2013-05-19 08:04:00,
2013-05-19 03:05:00,61.8,58.2,29.72,NE,34,60.0,60.0,88,0.05,,---,0.05,VWS V14.01,2013-05-19 08:05:00,
2013-05-19 03:06:00,61.8,58.2,29.72,North,1,60.0,60.0,88,0.05,,---,0.05,VWS V14.01,2013-05-19 08:06:00,
2013-05-19 03:07:00,61.8,58.2,29.72,North,0,60.0,60.0,88,0.05,,---,0.05,VWS V14.01,2013-05-19 08:07:00,
2013-05-19 03:08:00,61.6,58.0,29.72,North,0,60.0,60.0,88,0.05,,---,0.05,VWS V14.01,2013-05-19 08:08:00,
2013-05-19 03:09:00,61.6,58.0,29.72,North,0,60.0,60.0,88,0.05,,---,0.05,VWS V14.01,2013-05-19 08:09:00,
2013-05-19 03:10:00,61.6,58.0,29.72,NNE,21,60.0,60.0,88,0.05,,---,0.05,VWS V14.01,2013-05-19 08:10:00,
2013-05-19 03:11:00,61.5,57.9,29.72,NE,40,60.0,60.0,88,0.05,,---,0.05,VWS V14.01,2013-05-19 08:11:00,
2013-05-19 03:12:00,61.5,58.8,29.72,NE,52,60.0,60.0,91,0.05,,---,0.05,VWS V14.01,2013-05-19 08:12:00,
2013-05-19 03:13:00,61.6,59.0,29.72,NE,47,60.0,60.0,91,0.05,,---,0.05,VWS V14.01,2013-05-19 08:13:00,
2013-05-19 03:14:00,61.6,58.3,29.69,ENE,62,60.0,60.0,89,0.05,,---,0.05,VWS V14.01,2013-05-19 08:14:00,
2013-05-19 03:15:00,61.6,58.3,29.69,ENE,58,60.0,60.0,89,0.05,,---,0.05,VWS V14.01,2013-05-19 08:15:00,
2013-05-19 03:16:00,61.6,57.4,29.69,NE,54,60.0,60.0,86,0.05,,---,0.05,VWS V14.01,2013-05-19 08:16:00,
2013-05-19 03:17:00,61.6,56.7,29.69,NE,52,60.0,60.0,84,0.05,,---,0.05,VWS V14.01,2013-05-19 08:17:00,
2013-05-19 03:18:00,61.6,56.7,29.69,NNE,32,60.0,60.0,84,0.05,,---,0.05,VWS V14.01,2013-05-19 08:18:00,
2013-05-19 03:19:00,61.6,58.3,29.69,NNE,32,60.0,60.0,89,0.05,,---,0.05,VWS V14.01,2013-05-19 08:19:00,
2013-05-19 03:20:00,61.8,58.5,29.69,NE,37,60.0,60.0,89,0.05,,---,0.05,VWS V14.01,2013-05-19 08:20:00,
2013-05-19 03:21:00,61.6,58.3,29.69,NE,52,60.0,60.0,89,0.05,,---,0.05,VWS V14.01,2013-05-19 08:21:00,
2013-05-19 03:22:00,61.6,58.3,29.69,NE,54,60.0,60.0,89,0.05,,---,0.05,VWS V14.01,2013-05-19 08:22:00,
2013-05-19 03:23:00,61.6,58.3,29.69,ENE,59,60.0,60.0,89,0.05,,---,0.05,VWS V14.01,2013-05-19 08:23:00,
2013-05-19 03:24:00,61.6,58.3,29.69,NE,49,60.0,60.0,89,0.05,,---,0.05,VWS V14.01,2013-05-19 08:24:00,
2013-05-19 03:25:00,61.8,58.5,29.69,NNE,14,60.0,60.0,89,0.05,,---,0.05,VWS V14.01,2013-05-19 08:25:00,
2013-05-19 03:26:00,61.8,58.5,29.69,North,0,60.0,60.0,89,0.05,,---,0.05,VWS V14.01,2013-05-19 08:26:00,
2013-05-19 03:27:00,61.6,58.3,29.69,North,0,60.0,60.0,89,0.05,,---,0.05,VWS V14.01,2013-05-19 08:27:00,
2013-05-19 03:28:00,61.6,57.7,29.69,North,4,60.0,60.0,87,0.05,,---,0.05,VWS V14.01,2013-05-19 08:28:00,
2013-05-19 03:29:00,61.6,58.3,29.69,NNE,13,60.0,60.0,89,0.05,,---,0.05,VWS V14.01,2013-05-19 08:29:00,
2013-05-19 03:30:00,61.6,58.3,29.69,North,8,60.0,60.0,89,0.05,,---,0.05,VWS V14.01,2013-05-19 08:30:00,
2013-05-19 03:31:00,61.5,58.2,29.69,North,8,60.0,60.0,89,0.02,,---,0.05,VWS V14.01,2013-05-19 08:31:00,
2013-05-19 03:32:00,61.5,58.2,29.69,North,8,60.0,60.0,89,0.02,,---,0.05,VWS V14.01,2013-05-19 08:32:00,
2013-05-19 03:33:00,61.3,58.3,29.69,North,7,60.0,60.0,90,0.02,,---,0.05,VWS V14.01,2013-05-19 08:33:00,
2013-05-19 03:34:00,61.3,58.0,29.69,North,8,60.0,60.0,89,0.02,,---,0.05,VWS V14.01,2013-05-19 08:34:00,
2013-05-19 03:35:00,61.3,58.0,29.69,North,11,60.0,60.0,89,0.02,,---,0.05,VWS V14.01,2013-05-19 08:35:00,
2013-05-19 03:36:00,61.3,58.3,29.69,North,11,60.0,60.0,90,0.02,,---,0.05,VWS V14.01,2013-05-19 08:36:00,
2013-05-19 03:37:00,61.3,58.0,29.69,NNE,13,60.0,60.0,89,0.02,,---,0.05,VWS V14.01,2013-05-19 08:37:00,
2013-05-19 03:38:00,61.2,57.9,29.69,North,11,60.0,60.0,89,0.02,,---,0.05,VWS V14.01,2013-05-19 08:38:00,
2013-05-19 03:39:00,61.2,57.9,29.69,North,11,60.0,60.0,89,0.02,,---,0.05,VWS V14.01,2013-05-19 08:39:00,
2013-05-19 03:40:00,61.2,57.9,29.69,North,11,60.0,60.0,89,0.02,,---,0.05,VWS V14.01,2013-05-19 08:40:00,
2013-05-19 03:41:00,61.0,57.7,29.69,North,359,60.0,60.0,89,0.02,,---,0.05,VWS V14.01,2013-05-19 08:41:00,
2013-05-19 03:42:00,61.0,57.7,29.69,NNE,27,60.0,60.0,89,0.02,,---,0.05,VWS V14.01,2013-05-19 08:42:00,
2013-05-19 03:43:00,60.9,57.6,29.69,NNE,24,60.0,60.0,89,0.02,,---,0.05,VWS V14.01,2013-05-19 08:43:00,
2013-05-19 03:44:00,60.7,56.2,29.69,North,352,60.0,60.0,85,0.02,,---,0.05,VWS V14.01,2013-05-19 08:44:00,
2013-05-19 03:45:00,60.5,57.2,29.70,NNW,342,60.0,60.0,89,0.02,,---,0.05,VWS V14.01,2013-05-19 08:45:00,
2013-05-19 03:46:00,60.5,57.6,29.70,North,352,60.0,60.0,90,0.02,,---,0.05,VWS V14.01,2013-05-19 08:46:00,
2013-05-19 03:47:00,60.9,57.6,29.70,North,6,60.0,60.0,89,0.02,,---,0.05,VWS V14.01,2013-05-19 08:47:00,
2013-05-19 03:48:00,60.9,57.6,29.70,NNE,23,60.0,60.0,89,0.02,,---,0.05,VWS V14.01,2013-05-19 08:48:00,
2013-05-19 03:49:00,60.7,57.4,29.70,North,0,60.0,60.0,89,0.02,,---,0.05,VWS V14.01,2013-05-19 08:49:00,
2013-05-19 03:50:00,60.9,57.6,29.70,NNE,18,60.0,60.0,89,0.02,,---,0.05,VWS V14.01,2013-05-19 08:50:00,
2013-05-19 03:51:00,60.9,57.6,29.70,NNE,14,60.0,60.0,89,0.02,,---,0.05,VWS V14.01,2013-05-19 08:51:00,
2013-05-19 03:52:00,60.9,57.6,29.70,North,8,60.0,60.0,89,0.02,,---,0.05,VWS V14.01,2013-05-19 08:52:00,
2013-05-19 03:53:00,60.9,57.6,29.70,SSE,165,60.0,60.0,89,0.02,,---,0.05,VWS V14.01,2013-05-19 08:53:00,
2013-05-19 03:54:00,60.7,57.4,29.70,North,0,60.0,60.0,89,0.02,,---,0.05,VWS V14.01,2013-05-19 08:54:00,
2013-05-19 03:55:00,61.0,57.7,29.70,North,8,60.0,60.0,89,0.02,,---,0.05,VWS V14.01,2013-05-19 08:55:00,
2013-05-19 03:56:00,60.7,57.4,29.70,NNW,342,60.0,60.0,89,0.02,,---,0.05,VWS V14.01,2013-05-19 08:56:00,
2013-05-19 03:57:00,60.7,57.4,29.70,NNE,30,60.0,60.0,89,0.02,,---,0.05,VWS V14.01,2013-05-19 08:57:00,
2013-05-19 03:58:00,60.9,57.6,29.70,North,0,60.0,60.0,89,0.02,,---,0.05,VWS V14.01,2013-05-19 08:58:00,
2013-05-19 03:59:00,60.9,57.6,29.70,North,0,60.0,60.0,89,0.02,,---,0.05,VWS V14.01,2013-05-19 08:59:00,
2013-05-19 04:00:00,60.5,56.9,29.70,NW,319,60.0,60.0,88,0.02,,---,0.05,VWS V14.01,2013-05-19 09:00:00,
2013-05-19 04:01:00,60.4,57.2,29.70,NW,320,60.0,60.0,89,0.01,,---,0.05,VWS V14.01,2013-05-19 09:01:00,
2013-05-19 04:02:00,60.2,57.0,29.70,NW,322,60.0,60.0,89,0.01,,---,0.05,VWS V14.01,2013-05-19 09:02:00,
2013-05-19 04:03:00,59.9,56.7,29.70,NNW,328,60.0,60.0,89,0.01,,---,0.05,VWS V14.01,2013-05-19 09:03:00,
2013-05-19 04:04:00,59.8,56.6,29.70,North,349,60.0,60.0,89,0.01,,---,0.05,VWS V14.01,2013-05-19 09:04:00,
2013-05-19 04:05:00,59.5,56.0,29.70,NNW,346,60.0,60.0,88,0.01,,---,0.05,VWS V14.01,2013-05-19 09:05:00,
2013-05-19 04:06:00,59.6,56.0,29.70,NNE,13,60.0,60.0,88,0.01,,---,0.05,VWS V14.01,2013-05-19 09:06:00,
2013-05-19 04:07:00,59.2,56.0,29.70,North,353,60.0,60.0,89,0.01,,---,0.05,VWS V14.01,2013-05-19 09:07:00,
2013-05-19 04:08:00,59.2,56.0,29.70,North,353,60.0,60.0,89,0.01,,---,0.05,VWS V14.01,2013-05-19 09:08:00,
2013-05-19 04:09:00,59.3,56.1,29.70,North,3,60.0,60.0,89,0.01,,---,0.05,VWS V14.01,2013-05-19 09:09:00,
2013-05-19 04:10:00,59.3,56.1,29.70,North,0,60.0,60.0,89,0.01,,---,0.05,VWS V14.01,2013-05-19 09:10:00,
2013-05-19 04:11:00,59.2,56.0,29.70,NNW,337,60.0,60.0,89,0.01,,---,0.05,VWS V14.01,2013-05-19 09:11:00,
2013-05-19 04:12:00,59.2,56.0,29.70,NW,322,60.0,60.0,89,0.01,,---,0.05,VWS V14.01,2013-05-19 09:12:00,
2013-05-19 04:13:00,59.2,56.0,29.70,NNE,31,60.0,60.0,89,0.01,,---,0.05,VWS V14.01,2013-05-19 09:13:00,
2013-05-19 04:14:00,59.2,56.0,29.71,NNE,30,60.0,60.0,89,0.01,,---,0.05,VWS V14.01,2013-05-19 09:14:00,
2013-05-19 04:15:00,59.2,56.0,29.71,NNE,31,60.0,60.0,89,0.01,,---,0.05,VWS V14.01,2013-05-19 09:15:00,
2013-05-19 04:16:00,59.2,56.0,29.71,NNE,30,60.0,60.0,89,0.01,,---,0.05,VWS V14.01,2013-05-19 09:16:00,
2013-05-19 04:17:00,59.2,55.0,29.71,NNE,30,60.0,60.0,86,0.01,,---,0.05,VWS V14.01,2013-05-19 09:17:00,
2013-05-19 04:18:00,59.2,56.0,29.71,NNE,30,60.0,60.0,89,0.01,,---,0.05,VWS V14.01,2013-05-19 09:18:00,
2013-05-19 04:19:00,59.2,56.0,29.71,NNE,31,60.0,60.0,89,0.01,,---,0.05,VWS V14.01,2013-05-19 09:19:00,
2013-05-19 04:20:00,59.2,56.0,29.71,NNE,28,60.0,60.0,89,0.01,,---,0.05,VWS V14.01,2013-05-19 09:20:00,
2013-05-19 04:21:00,59.2,55.7,29.71,NE,44,60.0,60.0,88,0.01,,---,0.05,VWS V14.01,2013-05-19 09:21:00,
2013-05-19 04:22:00,59.0,55.8,29.71,North,10,60.0,60.0,89,0.01,,---,0.05,VWS V14.01,2013-05-19 09:22:00,
2013-05-19 04:23:00,59.0,55.8,29.71,NNE,13,60.0,60.0,89,0.01,,---,0.05,VWS V14.01,2013-05-19 09:23:00,
2013-05-19 04:24:00,58.9,55.7,29.71,NE,45,60.0,60.0,89,0.01,,---,0.05,VWS V14.01,2013-05-19 09:24:00,
2013-05-19 04:25:00,58.9,55.7,29.71,North,0,60.0,60.0,89,0.01,,---,0.05,VWS V14.01,2013-05-19 09:25:00,
2013-05-19 04:26:00,58.9,56.0,29.71,NNE,17,60.0,60.0,90,0.01,,---,0.05,VWS V14.01,2013-05-19 09:26:00,
2013-05-19 04:27:00,58.7,56.1,29.71,East,85,60.0,60.0,91,0.01,,---,0.05,VWS V14.01,2013-05-19 09:27:00,
2013-05-19 04:28:00,58.7,55.5,29.71,North,1,60.0,60.0,89,0.01,,---,0.05,VWS V14.01,2013-05-19 09:28:00,
2013-05-19 04:29:00,58.6,55.4,29.71,SSE,155,60.0,60.0,89,0.01,,---,0.05,VWS V14.01,2013-05-19 09:29:00,
2013-05-19 04:30:00,58.7,55.5,29.71,NNE,27,60.0,60.0,89,0.01,,---,0.05,VWS V14.01,2013-05-19 09:30:00,
2013-05-19 04:31:00,58.7,55.5,29.71,NNE,21,60.0,60.0,89,0.00,,---,0.05,VWS V14.01,2013-05-19 09:31:00,
2013-05-19 04:32:00,58.6,55.4,29.71,North,350,60.0,60.0,89,0.00,,---,0.05,VWS V14.01,2013-05-19 09:32:00,
2013-05-19 04:33:00,58.7,55.5,29.71,NNE,13,60.0,60.0,89,0.01,,---,0.06,VWS V14.01,2013-05-19 09:33:00,
2013-05-19 04:34:00,58.7,55.5,29.71,NNE,27,60.0,60.0,89,0.01,,---,0.06,VWS V14.01,2013-05-19 09:34:00,
2013-05-19 04:35:00,58.7,55.5,29.71,NNE,27,60.0,60.0,89,0.01,,---,0.06,VWS V14.01,2013-05-19 09:35:00,
2013-05-19 04:36:00,58.7,55.5,29.71,NNE,27,60.0,60.0,89,0.01,,---,0.06,VWS V14.01,2013-05-19 09:36:00,
2013-05-19 04:37:00,58.6,55.4,29.71,SE,134,60.0,60.0,89,0.03,,---,0.08,VWS V14.01,2013-05-19 09:37:00,
2013-05-19 04:38:00,58.9,55.7,29.71,North,0,60.0,60.0,89,0.05,,---,0.10,VWS V14.01,2013-05-19 09:38:00,
2013-05-19 04:39:00,58.6,55.4,29.71,ESE,103,60.0,60.0,89,0.09,,---,0.14,VWS V14.01,2013-05-19 09:39:00,
2013-05-19 04:40:00,58.9,55.7,29.71,NNW,344,60.0,60.0,89,0.14,,---,0.19,VWS V14.01,2013-05-19 09:40:00,
2013-05-19 04:41:00,58.9,55.4,29.71,North,352,60.0,60.0,88,0.18,,---,0.23,VWS V14.01,2013-05-19 09:41:00,
2013-05-19 04:42:00,58.7,55.5,29.71,West,268,60.0,60.0,89,0.20,,---,0.25,VWS V14.01,2013-05-19 09:42:00,
2013-05-19 04:43:00,58.7,55.5,29.71,ENE,58,60.0,60.0,89,0.23,,---,0.28,VWS V14.01,2013-05-19 09:43:00,
2013-05-19 04:44:00,59.0,55.8,29.71,North,8,60.0,60.0,89,0.24,,---,0.29,VWS V14.01,2013-05-19 09:44:00,
2013-05-19 04:45:00,58.9,55.7,29.73,North,0,60.0,60.0,89,0.26,,---,0.31,VWS V14.01,2013-05-19 09:45:00,
2013-05-19 04:46:00,58.9,55.7,29.73,North,10,60.0,60.0,89,0.27,,---,0.32,VWS V14.01,2013-05-19 09:46:00,
2013-05-19 04:47:00,58.9,56.6,29.73,North,6,60.0,60.0,92,0.28,,---,0.33,VWS V14.01,2013-05-19 09:47:00,
2013-05-19 04:48:00,58.9,55.7,29.73,North,0,60.0,60.0,89,0.30,,---,0.35,VWS V14.01,2013-05-19 09:48:00,
2013-05-19 04:49:00,58.9,55.7,29.73,North,7,60.0,60.0,89,0.31,,---,0.36,VWS V14.01,2013-05-19 09:49:00,
2013-05-19 04:50:00,58.9,55.7,29.73,North,359,60.0,60.0,89,0.32,,---,0.37,VWS V14.01,2013-05-19 09:50:00,
2013-05-19 04:51:00,58.6,55.4,29.73,North,357,60.0,60.0,89,0.32,,---,0.37,VWS V14.01,2013-05-19 09:51:00,
2013-05-19 04:52:00,58.7,55.5,29.73,NNE,16,60.0,60.0,89,0.32,,---,0.37,VWS V14.01,2013-05-19 09:52:00,
2013-05-19 04:53:00,58.4,55.2,29.73,North,359,60.0,60.0,89,0.32,,---,0.37,VWS V14.01,2013-05-19 09:53:00,
2013-05-19 04:54:00,58.4,55.2,29.73,North,359,60.0,60.0,89,0.32,,---,0.37,VWS V14.01,2013-05-19 09:54:00,
2013-05-19 04:55:00,58.4,55.2,29.73,North,359,60.0,60.0,89,0.32,,---,0.37,VWS V14.01,2013-05-19 09:55:00,
2013-05-19 04:56:00,58.4,55.5,29.73,North,359,60.0,60.0,90,0.33,,---,0.38,VWS V14.01,2013-05-19 09:56:00,
2013-05-19 04:57:00,58.7,55.8,29.73,NE,40,60.0,60.0,90,0.33,,---,0.38,VWS V14.01,2013-05-19 09:57:00,
2013-05-19 04:58:00,58.7,55.8,29.73,NE,40,60.0,60.0,90,0.33,,---,0.38,VWS V14.01,2013-05-19 09:58:00,
2013-05-19 04:59:00,58.7,55.8,29.73,NE,35,60.0,60.0,90,0.33,,---,0.38,VWS V14.01,2013-05-19 09:59:00,
2013-05-19 05:00:00,58.6,55.7,29.73,NE,35,60.0,60.0,90,0.34,,---,0.39,VWS V14.01,2013-05-19 10:00:00,
2013-05-19 05:01:00,58.7,55.8,29.73,East,90,60.0,60.0,90,0.34,,---,0.39,VWS V14.01,2013-05-19 10:01:00,
2013-05-19 05:02:00,58.7,55.8,29.73,NNW,333,60.0,60.0,90,0.35,,---,0.40,VWS V14.01,2013-05-19 10:02:00,
2013-05-19 05:03:00,58.7,55.8,29.73,ENE,72,60.0,60.0,90,0.35,,---,0.40,VWS V14.01,2013-05-19 10:03:00,
2013-05-19 05:04:00,58.9,56.9,29.73,North,10,60.0,60.0,93,0.35,,---,0.40,VWS V14.01,2013-05-19 10:04:00,
2013-05-19 05:05:00,58.9,56.0,29.73,ENE,61,60.0,60.0,90,0.36,,---,0.41,VWS V14.01,2013-05-19 10:05:00,
2013-05-19 05:06:00,58.7,55.8,29.73,ENE,76,60.0,60.0,90,0.36,,---,0.41,VWS V14.01,2013-05-19 10:06:00,
2013-05-19 05:07:00,58.7,55.8,29.73,NE,35,60.0,60.0,90,0.36,,---,0.41,VWS V14.01,2013-05-19 10:07:00,
2013-05-19 05:08:00,58.7,55.8,29.73,North,4,60.0,60.0,90,0.36,,---,0.41,VWS V14.01,2013-05-19 10:08:00,
2013-05-19 05:09:00,58.7,55.8,29.73,North,0,60.0,60.0,90,0.37,,---,0.42,VWS V14.01,2013-05-19 10:09:00,
2013-05-19 05:10:00,58.7,55.8,29.73,NNE,27,60.0,60.0,90,0.37,,---,0.42,VWS V14.01,2013-05-19 10:10:00,
2013-05-19 05:11:00,58.6,55.7,29.73,SW,219,60.0,60.0,90,0.37,,---,0.42,VWS V14.01,2013-05-19 10:11:00,
2013-05-19 05:12:00,58.6,55.7,29.73,WSW,248,60.0,60.0,90,0.37,,---,0.42,VWS V14.01,2013-05-19 10:12:00,
2013-05-19 05:13:00,58.7,55.8,29.73,North,0,60.0,60.0,90,0.37,,---,0.42,VWS V14.01,2013-05-19 10:13:00,
2013-05-19 05:14:00,58.7,55.8,29.71,North,1,60.0,60.0,90,0.38,,---,0.43,VWS V14.01,2013-05-19 10:14:00,
2013-05-19 05:15:00,58.7,55.8,29.71,North,0,60.0,60.0,90,0.38,,---,0.43,VWS V14.01,2013-05-19 10:15:00,
2013-05-19 05:16:00,58.7,55.8,29.71,NNE,14,60.0,60.0,90,0.38,,---,0.43,VWS V14.01,2013-05-19 10:16:00,
2013-05-19 05:17:00,58.7,55.8,29.71,North,7,60.0,60.0,90,0.38,,---,0.43,VWS V14.01,2013-05-19 10:17:00,
2013-05-19 05:18:00,58.7,55.5,29.71,North,0,60.0,60.0,89,0.39,,---,0.44,VWS V14.01,2013-05-19 10:18:00,
2013-05-19 05:19:00,58.7,55.8,29.71,NNE,18,60.0,60.0,90,0.39,,---,0.44,VWS V14.01,2013-05-19 10:19:00,
2013-05-19 05:20:00,58.3,55.4,29.71,North,359,60.0,60.0,90,0.40,,---,0.45,VWS V14.01,2013-05-19 10:20:00,
2013-05-19 05:21:00,58.6,55.7,29.71,NNE,13,60.0,60.0,90,0.40,,---,0.45,VWS V14.01,2013-05-19 10:21:00,
2013-05-19 05:22:00,58.6,55.7,29.71,North,0,60.0,60.0,90,0.40,,---,0.45,VWS V14.01,2013-05-19 10:22:00,
2013-05-19 05:23:00,58.4,55.5,29.71,NNE,20,60.0,60.0,90,0.41,,---,0.46,VWS V14.01,2013-05-19 10:23:00,
2013-05-19 05:24:00,58.4,55.5,29.71,North,10,60.0,60.0,90,0.41,,---,0.46,VWS V14.01,2013-05-19 10:24:00,
2013-05-19 05:25:00,58.4,56.1,29.71,North,1,60.0,60.0,92,0.42,,---,0.47,VWS V14.01,2013-05-19 10:25:00,
2013-05-19 05:26:00,58.4,56.1,29.71,NNE,25,60.0,60.0,92,0.42,,---,0.47,VWS V14.01,2013-05-19 10:26:00,
2013-05-19 05:27:00,58.4,55.5,29.71,NE,45,60.0,60.0,90,0.42,,---,0.47,VWS V14.01,2013-05-19 10:27:00,
2013-05-19 05:28:00,58.4,55.5,29.71,NE,37,60.0,60.0,90,0.43,,---,0.48,VWS V14.01,2013-05-19 10:28:00,
2013-05-19 05:29:00,58.4,55.5,29.71,NE,41,60.0,60.0,90,0.43,,---,0.48,VWS V14.01,2013-05-19 10:29:00,
2013-05-19 05:30:00,58.4,55.5,29.69,NNE,20,60.0,60.0,90,0.43,,---,0.48,VWS V14.01,2013-05-19 10:30:00,
2013-05-19 05:31:00,58.4,55.5,29.69,NE,34,60.0,60.0,90,0.44,,---,0.49,VWS V14.01,2013-05-19 10:31:00,
2013-05-19 05:32:00,58.3,54.8,29.69,ENE,62,60.0,60.0,88,0.44,,---,0.49,VWS V14.01,2013-05-19 10:32:00,
2013-05-19 05:33:00,58.4,55.5,29.69,North,1,60.0,60.0,90,0.44,,---,0.49,VWS V14.01,2013-05-19 10:33:00,
2013-05-19 05:34:00,58.4,55.5,29.69,NE,55,60.0,60.0,90,0.44,,---,0.49,VWS V14.01,2013-05-19 10:34:00,
2013-05-19 05:35:00,58.4,55.5,29.69,ENE,73,60.0,60.0,90,0.45,,---,0.50,VWS V14.01,2013-05-19 10:35:00,
2013-05-19 05:36:00,58.4,55.5,29.69,East,90,60.0,60.0,90,0.45,,---,0.50,VWS V14.01,2013-05-19 10:36:00,
2013-05-19 05:37:00,58.4,55.5,29.69,ENE,69,60.0,60.0,90,0.46,,---,0.51,VWS V14.01,2013-05-19 10:37:00,
2013-05-19 05:38:00,58.4,56.7,29.69,NNE,23,60.0,60.0,94,0.46,,---,0.51,VWS V14.01,2013-05-19 10:38:00,
2013-05-19 05:39:00,58.6,55.7,29.69,North,11,60.0,60.0,90,0.46,,---,0.51,VWS V14.01,2013-05-19 10:39:00,
2013-05-19 05:40:00,58.6,56.0,29.69,ENE,59,60.0,60.0,91,0.46,,---,0.51,VWS V14.01,2013-05-19 10:40:00,
2013-05-19 05:41:00,58.6,56.0,29.69,NNE,31,60.0,60.0,91,0.47,,---,0.52,VWS V14.01,2013-05-19 10:41:00,
2013-05-19 05:42:00,58.6,56.0,29.69,East,86,60.0,60.0,91,0.47,,---,0.52,VWS V14.01,2013-05-19 10:42:00,
2013-05-19 05:43:00,58.6,56.0,29.69,NE,35,60.0,60.0,91,0.47,,---,0.52,VWS V14.01,2013-05-19 10:43:00,
2013-05-19 05:44:00,58.6,56.0,29.69,NNE,31,60.0,60.0,91,0.47,,---,0.52,VWS V14.01,2013-05-19 10:44:00,
2013-05-19 05:45:00,58.6,56.0,29.68,NNE,31,60.0,60.0,91,0.48,,---,0.53,VWS V14.01,2013-05-19 10:45:00,
2013-05-19 05:46:00,58.6,56.9,29.68,NE,48,60.0,60.0,94,0.48,,---,0.53,VWS V14.01,2013-05-19 10:46:00,
2013-05-19 05:47:00,58.6,56.0,29.68,NE,56,60.0,60.0,91,0.48,,---,0.53,VWS V14.01,2013-05-19 10:47:00,
2013-05-19 05:48:00,58.7,56.1,29.68,NE,47,60.0,60.0,91,0.48,,---,0.53,VWS V14.01,2013-05-19 10:48:00,
2013-05-19 05:49:00,58.7,56.1,29.68,NNE,32,60.0,60.0,91,0.48,,---,0.53,VWS V14.01,2013-05-19 10:49:00,
2013-05-19 05:50:00,58.7,55.5,29.68,NNE,16,60.0,60.0,89,0.48,,---,0.53,VWS V14.01,2013-05-19 10:50:00,
2013-05-19 05:51:00,58.7,56.1,29.68,NNE,21,60.0,60.0,91,0.48,,---,0.53,VWS V14.01,2013-05-19 10:51:00,
2013-05-19 05:52:00,58.7,56.1,29.68,NE,42,60.0,60.0,91,0.49,,---,0.54,VWS V14.01,2013-05-19 10:52:00,
2013-05-19 05:53:00,58.7,56.1,29.68,ENE,76,60.0,60.0,91,0.49,,---,0.54,VWS V14.01,2013-05-19 10:53:00,
2013-05-19 05:54:00,58.7,56.1,29.68,NE,48,60.0,60.0,91,0.49,,---,0.54,VWS V14.01,2013-05-19 10:54:00,
2013-05-19 05:55:00,58.7,56.1,29.68,ENE,62,60.0,60.0,91,0.49,,---,0.54,VWS V14.01,2013-05-19 10:55:00,
2013-05-19 05:56:00,58.7,56.1,29.68,NNE,27,60.0,60.0,91,0.49,,---,0.54,VWS V14.01,2013-05-19 10:56:00,
2013-05-19 05:57:00,58.6,55.1,29.68,NW,323,60.0,60.0,88,0.49,,---,0.54,VWS V14.01,2013-05-19 10:57:00,
2013-05-19 05:58:00,58.9,56.3,29.68,NNE,25,60.0,60.0,91,0.49,,---,0.54,VWS V14.01,2013-05-19 10:58:00,
2013-05-19 05:59:00,58.7,56.1,29.68,NE,38,60.0,60.0,91,0.49,,---,0.54,VWS V14.01,2013-05-19 10:59:00,
2013-05-19 06:00:00,58.7,56.1,29.67,NE,40,60.0,60.0,91,0.49,,---,0.54,VWS V14.01,2013-05-19 11:00:00,
2013-05-19 06:01:00,58.9,56.3,29.67,ENE,78,60.0,60.0,91,0.15,,---,0.54,VWS V14.01,2013-05-19 11:01:00,
2013-05-19 06:02:00,58.9,56.3,29.67,NNE,17,60.0,60.0,91,0.15,,---,0.54,VWS V14.01,2013-05-19 11:02:00,
2013-05-19 06:03:00,58.9,56.3,29.67,NNE,18,60.0,60.0,91,0.15,,---,0.54,VWS V14.01,2013-05-19 11:03:00,
2013-05-19 06:04:00,58.9,56.3,29.67,ENE,66,60.0,60.0,91,0.15,,---,0.54,VWS V14.01,2013-05-19 11:04:00,
2013-05-19 06:05:00,58.9,56.3,29.67,NE,51,60.0,60.0,91,0.16,,---,0.55,VWS V14.01,2013-05-19 11:05:00,
2013-05-19 06:06:00,58.9,56.0,29.67,ENE,69,60.0,60.0,90,0.16,,---,0.55,VWS V14.01,2013-05-19 11:06:00,
2013-05-19 06:07:00,58.9,56.3,29.67,NE,42,60.0,60.0,91,0.16,,---,0.55,VWS V14.01,2013-05-19 11:07:00,
2013-05-19 06:08:00,58.9,56.3,29.67,ENE,68,60.0,60.0,91,0.16,,---,0.55,VWS V14.01,2013-05-19 11:08:00,
2013-05-19 06:09:00,58.9,56.3,29.67,NE,44,60.0,60.0,91,0.16,,---,0.55,VWS V14.01,2013-05-19 11:09:00,
2013-05-19 06:10:00,59.0,56.4,29.67,NE,34,60.0,60.0,91,0.16,,---,0.55,VWS V14.01,2013-05-19 11:10:00,
2013-05-19 06:11:00,59.0,56.4,29.67,NE,47,60.0,60.0,91,0.16,,---,0.55,VWS V14.01,2013-05-19 11:11:00,
2013-05-19 06:12:00,59.0,56.4,29.67,NE,38,60.0,60.0,91,0.16,,---,0.55,VWS V14.01,2013-05-19 11:12:00,
2013-05-19 06:13:00,59.0,56.4,29.67,NE,51,60.0,60.0,91,0.16,,---,0.55,VWS V14.01,2013-05-19 11:13:00,
2013-05-19 06:14:00,59.0,56.4,29.67,NE,41,60.0,60.0,91,0.16,,---,0.55,VWS V14.01,2013-05-19 11:14:00,
2013-05-19 06:15:00,59.0,56.4,29.66,ENE,59,60.0,60.0,91,0.16,,---,0.55,VWS V14.01,2013-05-19 11:15:00,
2013-05-19 06:16:00,59.0,56.4,29.66,NE,54,60.0,60.0,91,0.16,,---,0.55,VWS V14.01,2013-05-19 11:16:00,
2013-05-19 06:17:00,59.0,55.5,29.66,NE,48,60.0,60.0,88,0.16,,---,0.55,VWS V14.01,2013-05-19 11:17:00,
2013-05-19 06:18:00,59.2,56.6,29.66,NNE,23,60.0,60.0,91,0.17,,---,0.56,VWS V14.01,2013-05-19 11:18:00,
2013-05-19 06:20:00,59.3,56.7,29.66,NE,55,60.0,60.0,91,0.17,,---,0.56,VWS V14.01,2013-05-19 11:20:00,
2013-05-19 06:21:00,59.3,56.7,29.66,East,80,60.0,60.0,91,0.17,,---,0.56,VWS V14.01,2013-05-19 11:21:00,
2013-05-19 06:22:00,59.3,56.7,29.66,ENE,73,60.0,60.0,91,0.17,,---,0.56,VWS V14.01,2013-05-19 11:22:00,
2013-05-19 06:23:00,59.3,56.7,29.66,ENE,72,60.0,60.0,91,0.17,,---,0.56,VWS V14.01,2013-05-19 11:23:00,
2013-05-19 06:24:00,59.5,56.9,29.66,ENE,73,60.0,60.0,91,0.17,,---,0.56,VWS V14.01,2013-05-19 11:24:00,
2013-05-19 06:25:00,59.5,56.9,29.66,East,85,60.0,60.0,91,0.17,,---,0.56,VWS V14.01,2013-05-19 11:25:00,
2013-05-19 06:26:00,59.5,56.9,29.66,East,92,60.0,60.0,91,0.17,,---,0.56,VWS V14.01,2013-05-19 11:26:00,
2013-05-19 06:27:00,59.6,57.0,29.66,East,88,60.0,60.0,91,0.17,,---,0.56,VWS V14.01,2013-05-19 11:27:00,
2013-05-19 06:28:00,59.8,57.2,29.66,ENE,66,60.0,60.0,91,0.17,,---,0.56,VWS V14.01,2013-05-19 11:28:00,
2013-05-19 06:29:00,59.8,57.2,29.67,East,82,60.0,60.0,91,0.17,,---,0.56,VWS V14.01,2013-05-19 11:29:00,
2013-05-19 06:30:00,59.9,57.3,29.67,East,86,60.0,60.0,91,0.17,,---,0.56,VWS V14.01,2013-05-19 11:30:00,
2013-05-19 06:31:00,59.9,57.3,29.67,East,82,60.0,60.0,91,0.08,,---,0.56,VWS V14.01,2013-05-19 11:31:00,
2013-05-19 06:32:00,59.9,57.3,29.67,ENE,76,60.0,60.0,91,0.08,,---,0.56,VWS V14.01,2013-05-19 11:32:00,
2013-05-19 06:33:00,59.9,57.3,29.67,East,83,60.0,60.0,91,0.08,,---,0.56,VWS V14.01,2013-05-19 11:33:00,
2013-05-19 06:34:00,60.1,57.5,29.67,East,79,60.0,60.0,91,0.08,,---,0.56,VWS V14.01,2013-05-19 11:34:00,
2013-05-19 06:35:00,59.9,57.3,29.67,East,92,60.0,60.0,91,0.08,,---,0.56,VWS V14.01,2013-05-19 11:35:00,
2013-05-19 06:36:00,59.9,57.3,29.67,East,85,60.0,60.0,91,0.08,,---,0.56,VWS V14.01,2013-05-19 11:36:00,
2013-05-19 06:37:00,60.1,57.5,29.67,East,88,60.0,60.0,91,0.08,,---,0.56,VWS V14.01,2013-05-19 11:37:00,
2013-05-19 06:38:00,60.1,57.5,29.67,East,83,60.0,60.0,91,0.08,,---,0.56,VWS V14.01,2013-05-19 11:38:00,
2013-05-19 06:39:00,60.1,57.5,29.67,East,92,60.0,60.0,91,0.08,,---,0.56,VWS V14.01,2013-05-19 11:39:00,
2013-05-19 06:40:00,60.1,57.5,29.67,East,90,60.0,60.0,91,0.08,,---,0.56,VWS V14.01,2013-05-19 11:40:00,
2013-05-19 06:41:00,60.1,57.5,29.67,ENE,72,60.0,60.0,91,0.08,,---,0.56,VWS V14.01,2013-05-19 11:41:00,
2013-05-19 06:42:00,60.1,57.5,29.67,ENE,78,60.0,60.0,91,0.08,,---,0.56,VWS V14.01,2013-05-19 11:42:00,
2013-05-19 06:43:00,60.2,57.6,29.67,ENE,75,60.0,60.0,91,0.09,,---,0.57,VWS V14.01,2013-05-19 11:43:00,
2013-05-19 06:44:00,60.2,57.6,29.67,ESE,110,60.0,60.0,91,0.09,,---,0.57,VWS V14.01,2013-05-19 11:44:00,
2013-05-19 06:45:00,60.2,57.6,29.65,ESE,106,60.0,60.0,91,0.09,,---,0.57,VWS V14.01,2013-05-19 11:45:00,
2013-05-19 06:46:00,60.4,57.8,29.65,ENE,76,60.0,60.0,91,0.09,,---,0.57,VWS V14.01,2013-05-19 11:46:00,
2013-05-19 06:47:00,60.4,59.0,29.65,East,80,60.0,60.0,95,0.09,,---,0.57,VWS V14.01,2013-05-19 11:47:00,
2013-05-19 06:48:00,60.5,58.2,29.65,East,96,60.0,60.0,92,0.09,,---,0.57,VWS V14.01,2013-05-19 11:48:00,
2013-05-19 06:49:00,60.5,57.9,29.65,East,82,60.0,60.0,91,0.09,,---,0.57,VWS V14.01,2013-05-19 11:49:00,
2013-05-19 06:50:00,60.5,57.9,29.65,East,99,60.0,60.0,91,0.09,,---,0.57,VWS V14.01,2013-05-19 11:50:00,
2013-05-19 06:51:00,60.5,57.9,29.65,ENE,69,60.0,60.0,91,0.09,,---,0.57,VWS V14.01,2013-05-19 11:51:00,
2013-05-19 06:52:00,60.5,58.2,29.65,East,89,60.0,60.0,92,0.09,,---,0.57,VWS V14.01,2013-05-19 11:52:00,
2013-05-19 06:53:00,60.7,57.8,29.65,ENE,64,60.0,60.0,90,0.09,,---,0.57,VWS V14.01,2013-05-19 11:53:00,
2013-05-19 06:54:00,60.7,58.1,29.65,East,83,60.0,60.0,91,0.11,,---,0.59,VWS V14.01,2013-05-19 11:54:00,
2013-05-19 06:55:00,60.9,58.6,29.65,ESE,102,60.0,60.0,92,0.11,,---,0.59,VWS V14.01,2013-05-19 11:55:00,
2013-05-19 06:56:00,60.9,59.2,29.65,East,80,60.0,60.0,94,0.11,,---,0.59,VWS V14.01,2013-05-19 11:56:00,
2013-05-19 06:57:00,61.0,58.7,29.65,ENE,73,60.0,60.0,92,0.13,,---,0.61,VWS V14.01,2013-05-19 11:57:00,
2013-05-19 06:58:00,61.2,59.2,29.65,ENE,75,60.0,60.0,93,0.15,,---,0.63,VWS V14.01,2013-05-19 11:58:00,
2013-05-19 06:59:00,61.2,58.9,29.65,ENE,68,60.0,60.0,92,0.17,,---,0.65,VWS V14.01,2013-05-19 11:59:00,
2013-05-19 07:00:00,61.3,59.0,29.65,ENE,75,60.0,60.0,92,0.19,,---,0.67,VWS V14.01,2013-05-19 12:00:00,
2013-05-19 07:01:00,61.3,59.0,29.65,East,79,60.0,60.0,92,0.15,,---,0.69,VWS V14.01,2013-05-19 12:01:00,
2013-05-19 07:02:00,61.5,59.2,29.65,ENE,58,60.0,60.0,92,0.20,,---,0.74,VWS V14.01,2013-05-19 12:02:00,
2013-05-19 07:03:00,61.6,59.3,29.65,NE,44,60.0,60.0,92,0.22,,---,0.76,VWS V14.01,2013-05-19 12:03:00,
2013-05-19 07:04:00,61.6,59.3,29.65,ENE,76,60.0,60.0,92,0.24,,---,0.78,VWS V14.01,2013-05-19 12:04:00,
2013-05-19 07:05:00,61.6,59.0,29.65,East,79,60.0,60.0,91,0.26,,---,0.80,VWS V14.01,2013-05-19 12:05:00,
2013-05-19 07:06:00,61.8,59.2,29.65,East,86,60.0,60.0,91,0.28,,---,0.82,VWS V14.01,2013-05-19 12:06:00,
2013-05-19 07:07:00,62.0,60.0,29.65,East,85,60.0,60.0,93,0.30,,---,0.84,VWS V14.01,2013-05-19 12:07:00,
2013-05-19 07:08:00,62.0,59.0,29.65,ENE,75,60.0,60.0,90,0.34,,---,0.88,VWS V14.01,2013-05-19 12:08:00,
2013-05-19 07:09:00,62.1,60.4,29.65,ENE,73,60.0,60.0,94,0.36,,---,0.90,VWS V14.01,2013-05-19 12:09:00,
2013-05-19 07:10:00,62.1,59.8,29.65,East,80,60.0,60.0,92,0.38,,---,0.92,VWS V14.01,2013-05-19 12:10:00,
2013-05-19 07:11:00,62.1,59.8,29.65,East,96,60.0,60.0,92,0.40,,---,0.94,VWS V14.01,2013-05-19 12:11:00,
2013-05-19 07:12:00,62.3,60.0,29.65,East,92,60.0,60.0,92,0.44,,---,0.98,VWS V14.01,2013-05-19 12:12:00,
2013-05-19 07:13:00,62.3,60.0,29.65,ENE,65,60.0,60.0,92,0.46,,---,1.00,VWS V14.01,2013-05-19 12:13:00,
2013-05-19 07:14:00,62.3,60.0,29.64,East,82,60.0,60.0,92,0.48,,---,1.02,VWS V14.01,2013-05-19 12:14:00,
2013-05-19 07:15:00,62.3,60.0,29.64,East,82,60.0,60.0,92,0.48,,---,1.02,VWS V14.01,2013-05-19 12:15:00,
2013-05-19 07:16:00,62.4,60.0,29.64,ENE,78,60.0,60.0,92,0.54,,---,1.08,VWS V14.01,2013-05-19 12:16:00,
2013-05-19 07:17:00,62.4,60.0,29.64,East,90,60.0,60.0,92,0.56,,---,1.10,VWS V14.01,2013-05-19 12:17:00,
2013-05-19 07:18:00,62.4,60.0,29.64,ENE,76,60.0,60.0,92,0.56,,---,1.10,VWS V14.01,2013-05-19 12:18:00,
2013-05-19 07:19:00,62.4,60.0,29.64,East,79,60.0,60.0,92,0.56,,---,1.10,VWS V14.01,2013-05-19 12:19:00,
2013-05-19 07:20:00,62.4,60.0,29.64,East,79,60.0,60.0,92,0.56,,---,1.10,VWS V14.01,2013-05-19 12:20:00,
2013-05-19 07:21:00,62.4,60.0,29.64,ESE,106,60.0,60.0,92,0.56,,---,1.10,VWS V14.01,2013-05-19 12:21:00,
2013-05-19 07:22:00,62.4,60.0,29.64,ESE,106,60.0,60.0,92,0.56,,---,1.10,VWS V14.01,2013-05-19 12:22:00,
2013-05-19 07:23:00,62.6,60.2,29.64,ENE,59,60.0,60.0,92,0.68,,---,1.22,VWS V14.01,2013-05-19 12:23:00,
2013-05-19 07:24:00,62.4,60.0,29.64,North,3,60.0,60.0,92,0.71,,---,1.25,VWS V14.01,2013-05-19 12:24:00,
2013-05-19 07:25:00,62.6,60.2,29.64,ENE,73,60.0,60.0,92,0.72,,---,1.26,VWS V14.01,2013-05-19 12:25:00,
2013-05-19 07:26:00,62.7,60.0,29.64,East,83,60.0,60.0,91,0.73,,---,1.27,VWS V14.01,2013-05-19 12:26:00,
2013-05-19 07:27:00,62.6,59.9,29.64,East,83,60.0,60.0,91,0.75,,---,1.29,VWS V14.01,2013-05-19 12:27:00,
2013-05-19 07:28:00,62.6,59.6,29.64,East,92,60.0,60.0,90,0.75,,---,1.29,VWS V14.01,2013-05-19 12:28:00,
2013-05-19 07:29:00,62.7,61.2,29.63,East,83,60.0,60.0,95,0.75,,---,1.29,VWS V14.01,2013-05-19 12:29:00,
2013-05-19 07:30:00,62.6,60.5,29.63,ENE,68,60.0,60.0,93,0.75,,---,1.29,VWS V14.01,2013-05-19 12:30:00,
2013-05-19 07:31:00,62.7,60.0,29.63,NE,52,60.0,60.0,91,0.73,,---,1.29,VWS V14.01,2013-05-19 12:31:00,
2013-05-19 07:32:00,62.6,59.9,29.63,East,92,60.0,60.0,91,0.73,,---,1.29,VWS V14.01,2013-05-19 12:32:00,
2013-05-19 07:33:00,62.6,59.9,29.63,East,100,60.0,60.0,91,0.73,,---,1.29,VWS V14.01,2013-05-19 12:33:00,
2013-05-19 07:34:00,62.6,59.9,29.63,ESE,102,60.0,60.0,91,0.73,,---,1.29,VWS V14.01,2013-05-19 12:34:00,
2013-05-19 07:35:00,62.6,60.2,29.63,ENE,65,60.0,60.0,92,0.73,,---,1.29,VWS V14.01,2013-05-19 12:35:00,
2013-05-19 07:36:00,62.6,60.2,29.63,ENE,59,60.0,60.0,92,0.73,,---,1.29,VWS V14.01,2013-05-19 12:36:00,
2013-05-19 07:37:00,62.7,59.7,29.63,East,85,60.0,60.0,90,0.73,,---,1.29,VWS V14.01,2013-05-19 12:37:00,
2013-05-19 07:38:00,62.6,59.6,29.63,ENE,58,60.0,60.0,90,0.73,,---,1.29,VWS V14.01,2013-05-19 12:38:00,
2013-05-19 07:39:00,62.6,60.8,29.63,ENE,72,60.0,60.0,94,0.73,,---,1.29,VWS V14.01,2013-05-19 12:39:00,
2013-05-19 07:40:00,62.6,59.6,29.63,East,89,60.0,60.0,90,0.73,,---,1.29,VWS V14.01,2013-05-19 12:40:00,
2013-05-19 07:41:00,62.6,58.4,29.63,ENE,58,60.0,60.0,86,0.73,,---,1.29,VWS V14.01,2013-05-19 12:41:00,
2013-05-19 07:42:00,62.6,59.6,29.63,North,0,60.0,60.0,90,0.73,,---,1.29,VWS V14.01,2013-05-19 12:42:00,
2013-05-19 07:43:00,62.6,60.2,29.63,ENE,78,60.0,60.0,92,0.73,,---,1.29,VWS V14.01,2013-05-19 12:43:00,
2013-05-19 07:44:00,62.4,59.4,29.63,East,86,60.0,60.0,90,0.73,,---,1.29,VWS V14.01,2013-05-19 12:44:00,
2013-05-19 07:45:00,62.6,59.6,29.63,East,88,60.0,60.0,90,0.73,,---,1.29,VWS V14.01,2013-05-19 12:45:00,
2013-05-19 07:46:00,62.4,59.4,29.63,North,357,60.0,60.0,90,0.73,,---,1.29,VWS V14.01,2013-05-19 12:46:00,
2013-05-19 07:48:00,62.4,59.1,29.63,NE,56,60.0,60.0,89,0.73,,---,1.29,VWS V14.01,2013-05-19 12:48:00,
2013-05-19 07:49:00,62.4,59.1,29.63,East,86,60.0,60.0,89,0.73,,---,1.29,VWS V14.01,2013-05-19 12:49:00,
2013-05-19 07:50:00,62.6,59.3,29.63,ENE,62,60.0,60.0,89,0.73,,---,1.29,VWS V14.01,2013-05-19 12:50:00,
2013-05-19 07:51:00,62.6,59.3,29.63,ENE,69,60.0,60.0,89,0.73,,---,1.29,VWS V14.01,2013-05-19 12:51:00,
2013-05-19 07:52:00,62.4,59.1,29.63,East,80,60.0,60.0,89,0.73,,---,1.29,VWS V14.01,2013-05-19 12:52:00,
2013-05-19 07:53:00,62.4,58.5,29.63,North,11,60.0,60.0,87,0.73,,---,1.29,VWS V14.01,2013-05-19 12:53:00,
2013-05-19 07:54:00,62.4,59.1,29.63,East,83,60.0,60.0,89,0.73,,---,1.29,VWS V14.01,2013-05-19 12:54:00,
2013-05-19 07:55:00,62.4,59.1,29.63,East,79,60.0,60.0,89,0.73,,---,1.29,VWS V14.01,2013-05-19 12:55:00,
2013-05-19 07:56:00,62.4,59.1,29.63,East,80,60.0,60.0,89,0.73,,---,1.29,VWS V14.01,2013-05-19 12:56:00,
2013-05-19 07:57:00,62.4,59.1,29.63,ENE,76,60.0,60.0,89,0.73,,---,1.29,VWS V14.01,2013-05-19 12:57:00,
2013-05-19 07:58:00,62.4,59.1,29.63,ENE,72,60.0,60.0,89,0.73,,---,1.29,VWS V14.01,2013-05-19 12:58:00,
2013-05-19 07:59:00,62.4,59.1,29.64,ENE,58,60.0,60.0,89,0.73,,---,1.29,VWS V14.01,2013-05-19 12:59:00,
2013-05-19 08:00:00,62.4,59.1,29.64,ENE,71,60.0,60.0,89,0.73,,---,1.29,VWS V14.01,2013-05-19 13:00:00,
2013-05-19 08:01:00,62.4,59.1,29.64,East,80,60.0,60.0,89,0.62,,---,1.29,VWS V14.01,2013-05-19 13:01:00,
2013-05-19 08:02:00,62.4,59.1,29.64,East,80,60.0,60.0,89,0.62,,---,1.29,VWS V14.01,2013-05-19 13:02:00,
2013-05-19 08:03:00,62.4,59.1,29.64,East,82,60.0,60.0,89,0.62,,---,1.29,VWS V14.01,2013-05-19 13:03:00,
2013-05-19 08:04:00,62.4,59.1,29.64,ESE,102,60.0,60.0,89,0.62,,---,1.29,VWS V14.01,2013-05-19 13:04:00,
2013-05-19 08:05:00,62.4,59.1,29.64,East,89,60.0,60.0,89,0.62,,---,1.29,VWS V14.01,2013-05-19 13:05:00,
2013-05-19 08:06:00,62.4,59.1,29.64,East,89,60.0,60.0,89,0.62,,---,1.29,VWS V14.01,2013-05-19 13:06:00,
2013-05-19 08:07:00,62.4,59.1,29.64,East,88,60.0,60.0,89,0.62,,---,1.29,VWS V14.01,2013-05-19 13:07:00,
2013-05-19 08:08:00,62.4,59.1,29.64,ENE,78,60.0,60.0,89,0.62,,---,1.29,VWS V14.01,2013-05-19 13:08:00,
2013-05-19 08:09:00,62.4,59.1,29.64,East,90,60.0,60.0,89,0.62,,---,1.29,VWS V14.01,2013-05-19 13:09:00,
2013-05-19 08:10:00,62.4,60.3,29.64,ENE,69,60.0,60.0,93,0.62,,---,1.29,VWS V14.01,2013-05-19 13:10:00,
2013-05-19 08:11:00,62.3,59.0,29.64,ENE,68,60.0,60.0,89,0.62,,---,1.29,VWS V14.01,2013-05-19 13:11:00,
2013-05-19 08:12:00,62.3,58.1,29.64,ENE,59,60.0,60.0,86,0.62,,---,1.29,VWS V14.01,2013-05-19 13:12:00,
2013-05-19 08:13:00,62.3,59.0,29.64,East,88,60.0,60.0,89,0.62,,---,1.29,VWS V14.01,2013-05-19 13:13:00,
2013-05-19 08:14:00,62.3,59.3,29.64,NE,47,60.0,60.0,90,0.62,,---,1.29,VWS V14.01,2013-05-19 13:14:00,
2013-05-19 08:15:00,62.3,59.3,29.64,ENE,73,60.0,60.0,90,0.62,,---,1.29,VWS V14.01,2013-05-19 13:15:00,
2013-05-19 08:16:00,62.3,59.0,29.64,East,79,60.0,60.0,89,0.62,,---,1.29,VWS V14.01,2013-05-19 13:16:00,
2013-05-19 08:17:00,62.3,59.0,29.64,East,80,60.0,60.0,89,0.62,,---,1.29,VWS V14.01,2013-05-19 13:17:00,
2013-05-19 08:18:00,62.3,59.0,29.64,ENE,69,60.0,60.0,89,0.62,,---,1.29,VWS V14.01,2013-05-19 13:18:00,
2013-05-19 08:19:00,62.3,59.0,29.64,ENE,68,60.0,60.0,89,0.62,,---,1.29,VWS V14.01,2013-05-19 13:19:00,
2013-05-19 08:20:00,62.3,59.0,29.64,ENE,75,60.0,60.0,89,0.62,,---,1.29,VWS V14.01,2013-05-19 13:20:00,
2013-05-19 08:21:00,62.3,60.0,29.64,North,0,60.0,60.0,92,0.62,,---,1.29,VWS V14.01,2013-05-19 13:21:00,
2013-05-19 08:22:00,62.3,59.0,29.64,NE,56,60.0,60.0,89,0.62,,---,1.29,VWS V14.01,2013-05-19 13:22:00,
2013-05-19 08:23:00,62.3,59.0,29.64,ENE,73,60.0,60.0,89,0.62,,---,1.29,VWS V14.01,2013-05-19 13:23:00,
2013-05-19 08:24:00,62.3,60.0,29.64,East,79,60.0,60.0,92,0.62,,---,1.29,VWS V14.01,2013-05-19 13:24:00,
2013-05-19 08:25:00,62.3,59.0,29.64,East,89,60.0,60.0,89,0.62,,---,1.29,VWS V14.01,2013-05-19 13:25:00,
2013-05-19 08:26:00,62.3,59.0,29.64,East,92,60.0,60.0,89,0.62,,---,1.29,VWS V14.01,2013-05-19 13:26:00,
2013-05-19 08:27:00,62.3,59.0,29.64,East,93,60.0,60.0,89,0.62,,---,1.29,VWS V14.01,2013-05-19 13:27:00,
2013-05-19 08:28:00,62.3,59.0,29.64,East,89,60.0,60.0,89,0.62,,---,1.29,VWS V14.01,2013-05-19 13:28:00,
2013-05-19 08:29:00,62.3,59.0,29.64,East,82,60.0,60.0,89,0.62,,---,1.29,VWS V14.01,2013-05-19 13:29:00,
2013-05-19 08:30:00,62.3,59.0,29.64,East,82,60.0,60.0,89,0.62,,---,1.29,VWS V14.01,2013-05-19 13:30:00,
2013-05-19 08:31:00,62.3,58.7,29.64,ENE,71,60.0,60.0,88,0.00,,---,1.29,VWS V14.01,2013-05-19 13:31:00,
2013-05-19 08:32:00,62.3,58.1,29.64,East,82,60.0,60.0,86,0.00,,---,1.29,VWS V14.01,2013-05-19 13:32:00,
2013-05-19 08:33:00,62.3,59.0,29.64,East,88,60.0,60.0,89,0.00,,---,1.29,VWS V14.01,2013-05-19 13:33:00,
2013-05-19 08:34:00,62.3,59.0,29.64,East,92,60.0,60.0,89,0.00,,---,1.29,VWS V14.01,2013-05-19 13:34:00,
2013-05-19 08:35:00,62.3,58.1,29.64,East,85,60.0,60.0,86,0.00,,---,1.29,VWS V14.01,2013-05-19 13:35:00,
2013-05-19 08:36:00,62.3,59.0,29.64,East,92,60.0,60.0,89,0.00,,---,1.29,VWS V14.01,2013-05-19 13:36:00,
2013-05-19 08:37:00,62.3,59.0,29.64,ENE,66,60.0,60.0,89,0.00,,---,1.29,VWS V14.01,2013-05-19 13:37:00,
2013-05-19 08:38:00,62.3,59.0,29.64,ENE,75,60.0,60.0,89,0.00,,---,1.29,VWS V14.01,2013-05-19 13:38:00,
2013-05-19 08:39:00,62.3,59.0,29.64,East,89,60.0,60.0,89,0.00,,---,1.29,VWS V14.01,2013-05-19 13:39:00,
2013-05-19 08:40:00,62.3,59.0,29.64,ENE,73,60.0,60.0,89,0.00,,---,1.29,VWS V14.01,2013-05-19 13:40:00,
2013-05-19 08:41:00,62.3,59.0,29.64,East,92,60.0,60.0,89,0.00,,---,1.29,VWS V14.01,2013-05-19 13:41:00,
2013-05-19 08:42:00,62.3,59.0,29.64,ESE,106,60.0,60.0,89,0.00,,---,1.29,VWS V14.01,2013-05-19 13:42:00,
2013-05-19 08:43:00,62.3,59.0,29.64,East,92,60.0,60.0,89,0.00,,---,1.29,VWS V14.01,2013-05-19 13:43:00,
2013-05-19 08:44:00,62.3,59.0,29.64,East,90,60.0,60.0,89,0.00,,---,1.29,VWS V14.01,2013-05-19 13:44:00,
2013-05-19 08:45:00,62.3,59.0,29.64,ENE,71,60.0,60.0,89,0.00,,---,1.29,VWS V14.01,2013-05-19 13:45:00,
2013-05-19 08:46:00,62.3,59.0,29.64,East,90,60.0,60.0,89,0.00,,---,1.29,VWS V14.01,2013-05-19 13:46:00,
2013-05-19 08:47:00,62.3,59.0,29.64,East,86,60.0,60.0,89,0.00,,---,1.29,VWS V14.01,2013-05-19 13:47:00,
2013-05-19 08:48:00,62.4,59.1,29.64,ENE,71,60.0,60.0,89,0.00,,---,1.29,VWS V14.01,2013-05-19 13:48:00,
2013-05-19 08:49:00,62.4,59.1,29.64,East,86,60.0,60.0,89,0.00,,---,1.29,VWS V14.01,2013-05-19 13:49:00,
2013-05-19 08:50:00,62.4,59.1,29.64,ENE,78,60.0,60.0,89,0.00,,---,1.29,VWS V14.01,2013-05-19 13:50:00,
2013-05-19 08:51:00,62.4,59.1,29.64,ENE,69,60.0,60.0,89,0.00,,---,1.29,VWS V14.01,2013-05-19 13:51:00,
2013-05-19 08:52:00,62.4,59.1,29.64,East,85,60.0,60.0,89,0.00,,---,1.29,VWS V14.01,2013-05-19 13:52:00,
2013-05-19 08:53:00,62.4,59.1,29.64,ESE,113,60.0,60.0,89,0.00,,---,1.29,VWS V14.01,2013-05-19 13:53:00,
2013-05-19 08:54:00,62.4,59.1,29.64,East,82,60.0,60.0,89,0.00,,---,1.29,VWS V14.01,2013-05-19 13:54:00,
2013-05-19 08:55:00,62.4,59.1,29.64,ENE,64,60.0,60.0,89,0.00,,---,1.29,VWS V14.01,2013-05-19 13:55:00,
2013-05-19 08:56:00,62.4,59.1,29.64,East,79,60.0,60.0,89,0.00,,---,1.29,VWS V14.01,2013-05-19 13:56:00,
2013-05-19 08:57:00,62.4,59.1,29.64,East,86,60.0,60.0,89,0.00,,---,1.29,VWS V14.01,2013-05-19 13:57:00,
2013-05-19 08:58:00,62.6,59.3,29.64,East,85,60.0,60.0,89,0.00,,---,1.29,VWS V14.01,2013-05-19 13:58:00,
2013-05-19 08:59:00,62.6,59.3,29.64,East,80,60.0,60.0,89,0.00,,---,1.29,VWS V14.01,2013-05-19 13:59:00,
2013-05-19 09:00:00,62.6,59.3,29.66,East,85,60.0,60.0,89,0.00,,---,1.29,VWS V14.01,2013-05-19 14:00:00,
2013-05-19 09:01:00,62.6,59.3,29.66,ENE,75,60.0,60.0,89,0.00,,---,1.29,VWS V14.01,2013-05-19 14:01:00,
2013-05-19 09:02:00,62.6,59.3,29.66,East,92,60.0,60.0,89,0.00,,---,1.29,VWS V14.01,2013-05-19 14:02:00,
2013-05-19 09:03:00,62.6,59.3,29.66,ENE,69,60.0,60.0,89,0.00,,---,1.29,VWS V14.01,2013-05-19 14:03:00,
2013-05-19 09:04:00,62.6,58.4,29.66,ENE,69,60.0,60.0,86,0.00,,---,1.29,VWS V14.01,2013-05-19 14:04:00,
2013-05-19 09:05:00,62.6,58.4,29.66,ENE,62,60.0,60.0,86,0.00,,---,1.29,VWS V14.01,2013-05-19 14:05:00,
2013-05-19 09:06:00,62.6,59.3,29.66,East,82,60.0,60.0,89,0.00,,---,1.29,VWS V14.01,2013-05-19 14:06:00,
2013-05-19 09:07:00,62.6,59.3,29.66,East,88,60.0,60.0,89,0.00,,---,1.29,VWS V14.01,2013-05-19 14:07:00,
2013-05-19 09:08:00,62.6,58.7,29.66,East,92,60.0,60.0,87,0.00,,---,1.29,VWS V14.01,2013-05-19 14:08:00,
2013-05-19 09:09:00,62.6,59.3,29.66,East,82,60.0,60.0,89,0.00,,---,1.29,VWS V14.01,2013-05-19 14:09:00,
2013-05-19 09:10:00,62.6,59.3,29.66,East,88,60.0,60.0,89,0.00,,---,1.29,VWS V14.01,2013-05-19 14:10:00,
2013-05-19 09:11:00,62.6,59.3,29.66,East,92,60.0,60.0,89,0.00,,---,1.29,VWS V14.01,2013-05-19 14:11:00,
2013-05-19 09:12:00,62.6,59.3,29.66,East,92,60.0,60.0,89,0.00,,---,1.29,VWS V14.01,2013-05-19 14:12:00,
2013-05-19 09:13:00,62.6,60.2,29.66,East,93,60.0,60.0,92,0.00,,---,1.29,VWS V14.01,2013-05-19 14:13:00,
2013-05-19 09:14:00,62.7,59.4,29.66,East,89,60.0,60.0,89,0.00,,---,1.29,VWS V14.01,2013-05-19 14:14:00,
2013-05-19 09:15:00,62.7,60.0,29.66,ENE,64,60.0,60.0,91,0.00,,---,1.29,VWS V14.01,2013-05-19 14:15:00,
2013-05-19 09:16:00,62.7,59.4,29.66,ENE,73,60.0,60.0,89,0.00,,---,1.29,VWS V14.01,2013-05-19 14:16:00,
2013-05-19 09:17:00,62.7,59.4,29.66,ENE,76,60.0,60.0,89,0.00,,---,1.29,VWS V14.01,2013-05-19 14:17:00,
2013-05-19 09:18:00,62.7,60.3,29.66,ENE,75,60.0,60.0,92,0.00,,---,1.29,VWS V14.01,2013-05-19 14:18:00,
2013-05-19 09:19:00,62.7,59.4,29.66,ENE,75,60.0,60.0,89,0.00,,---,1.29,VWS V14.01,2013-05-19 14:19:00,
2013-05-19 09:20:00,62.9,59.0,29.66,East,90,60.0,60.0,87,0.00,,---,1.29,VWS V14.01,2013-05-19 14:20:00,
2013-05-19 09:21:00,62.9,59.6,29.66,East,80,60.0,60.0,89,0.00,,---,1.29,VWS V14.01,2013-05-19 14:21:00,
2013-05-19 09:22:00,62.9,59.6,29.66,East,89,60.0,60.0,89,0.00,,---,1.29,VWS V14.01,2013-05-19 14:22:00,
2013-05-19 09:23:00,62.9,59.6,29.66,East,80,60.0,60.0,89,0.00,,---,1.29,VWS V14.01,2013-05-19 14:23:00,
2013-05-19 09:24:00,62.9,59.6,29.66,East,88,60.0,60.0,89,0.00,,---,1.29,VWS V14.01,2013-05-19 14:24:00,
2013-05-19 09:25:00,62.9,59.6,29.66,East,89,60.0,60.0,89,0.00,,---,1.29,VWS V14.01,2013-05-19 14:25:00,
2013-05-19 09:26:00,62.9,59.6,29.66,East,90,60.0,60.0,89,0.00,,---,1.29,VWS V14.01,2013-05-19 14:26:00,
2013-05-19 09:27:00,62.9,59.6,29.66,East,92,60.0,60.0,89,0.00,,---,1.29,VWS V14.01,2013-05-19 14:27:00,
2013-05-19 09:28:00,63.1,59.8,29.66,East,95,60.0,60.0,89,0.00,,---,1.29,VWS V14.01,2013-05-19 14:28:00,
2013-05-19 09:29:00,63.1,60.4,29.66,East,82,60.0,60.0,91,0.00,,---,1.29,VWS V14.01,2013-05-19 14:29:00,
2013-05-19 09:30:00,63.1,59.8,29.66,ESE,103,60.0,60.0,89,0.00,,---,1.29,VWS V14.01,2013-05-19 14:30:00,
2013-05-19 09:31:00,63.1,59.5,29.66,East,95,60.0,60.0,88,0.00,,---,1.29,VWS V14.01,2013-05-19 14:31:00,
2013-05-19 09:32:00,63.1,59.5,29.66,East,95,60.0,60.0,88,0.00,,---,1.29,VWS V14.01,2013-05-19 14:32:00,
2013-05-19 09:33:00,63.1,59.5,29.66,East,93,60.0,60.0,88,0.00,,---,1.29,VWS V14.01,2013-05-19 14:33:00,
2013-05-19 09:34:00,63.1,58.8,29.66,East,100,60.0,60.0,86,0.00,,---,1.29,VWS V14.01,2013-05-19 14:34:00,
2013-05-19 09:35:00,63.1,59.5,29.66,ENE,78,60.0,60.0,88,0.01,,---,1.30,VWS V14.01,2013-05-19 14:35:00,
2013-05-19 09:36:00,63.2,59.6,29.66,East,89,60.0,60.0,88,0.01,,---,1.30,VWS V14.01,2013-05-19 14:36:00,
2013-05-19 09:37:00,63.2,59.6,29.66,East,93,60.0,60.0,88,0.01,,---,1.30,VWS V14.01,2013-05-19 14:37:00,
2013-05-19 09:38:00,63.2,59.6,29.66,ENE,71,60.0,60.0,88,0.01,,---,1.30,VWS V14.01,2013-05-19 14:38:00,
2013-05-19 09:39:00,63.2,59.6,29.66,East,88,60.0,60.0,88,0.01,,---,1.30,VWS V14.01,2013-05-19 14:39:00,
2013-05-19 09:40:00,63.2,59.6,29.66,East,88,60.0,60.0,88,0.01,,---,1.30,VWS V14.01,2013-05-19 14:40:00,
2013-05-19 09:41:00,63.2,59.6,29.66,East,82,60.0,60.0,88,0.01,,---,1.30,VWS V14.01,2013-05-19 14:41:00,
2013-05-19 09:42:00,63.2,59.6,29.66,East,88,60.0,60.0,88,0.01,,---,1.30,VWS V14.01,2013-05-19 14:42:00,
2013-05-19 09:43:00,63.2,59.6,29.66,ENE,78,60.0,60.0,88,0.02,,---,1.31,VWS V14.01,2013-05-19 14:43:00,
2013-05-19 09:44:00,63.2,59.6,29.66,East,79,60.0,60.0,88,0.03,,---,1.32,VWS V14.01,2013-05-19 14:44:00,
2013-05-19 09:45:00,63.2,59.6,29.66,East,85,60.0,60.0,88,0.04,,---,1.33,VWS V14.01,2013-05-19 14:45:00,
2013-05-19 09:46:00,63.2,59.6,29.66,East,85,60.0,60.0,88,0.05,,---,1.34,VWS V14.01,2013-05-19 14:46:00,
2013-05-19 09:47:00,63.2,59.6,29.66,East,85,60.0,60.0,88,0.06,,---,1.35,VWS V14.01,2013-05-19 14:47:00,
2013-05-19 09:48:00,63.2,59.6,29.66,ENE,73,60.0,60.0,88,0.06,,---,1.35,VWS V14.01,2013-05-19 14:48:00,
2013-05-19 09:49:00,63.1,59.5,29.66,ENE,78,60.0,60.0,88,0.06,,---,1.35,VWS V14.01,2013-05-19 14:49:00,
2013-05-19 09:50:00,63.1,59.5,29.66,ENE,71,60.0,60.0,88,0.06,,---,1.35,VWS V14.01,2013-05-19 14:50:00,
2013-05-19 09:51:00,63.1,59.5,29.66,ENE,78,60.0,60.0,88,0.06,,---,1.35,VWS V14.01,2013-05-19 14:51:00,
2013-05-19 09:52:00,63.1,59.5,29.66,ENE,73,60.0,60.0,88,0.06,,---,1.35,VWS V14.01,2013-05-19 14:52:00,
2013-05-19 09:53:00,63.1,59.5,29.66,ENE,68,60.0,60.0,88,0.06,,---,1.35,VWS V14.01,2013-05-19 14:53:00,
2013-05-19 09:54:00,63.1,59.5,29.66,ENE,71,60.0,60.0,88,0.06,,---,1.35,VWS V14.01,2013-05-19 14:54:00,
2013-05-19 09:55:00,63.1,59.5,29.66,ENE,78,60.0,60.0,88,0.07,,---,1.36,VWS V14.01,2013-05-19 14:55:00,
2013-05-19 09:56:00,63.1,59.5,29.66,ENE,75,60.0,60.0,88,0.07,,---,1.36,VWS V14.01,2013-05-19 14:56:00,
2013-05-19 09:57:00,63.1,59.2,29.66,ENE,72,60.0,60.0,87,0.07,,---,1.36,VWS V14.01,2013-05-19 14:57:00,
2013-05-19 09:58:00,63.1,59.5,29.66,ENE,68,60.0,60.0,88,0.07,,---,1.36,VWS V14.01,2013-05-19 14:58:00,
2013-05-19 09:59:00,63.1,59.5,29.66,ENE,69,60.0,60.0,88,0.07,,---,1.36,VWS V14.01,2013-05-19 14:59:00,
2013-05-19 10:00:00,63.1,59.8,29.66,East,85,60.0,60.0,89,0.07,,---,1.36,VWS V14.01,2013-05-19 15:00:00,
2013-05-19 10:01:00,63.1,59.8,29.66,East,79,60.0,60.0,89,0.07,,---,1.36,VWS V14.01,2013-05-19 15:01:00,
2013-05-19 10:02:00,63.1,59.5,29.66,East,88,60.0,60.0,88,0.07,,---,1.36,VWS V14.01,2013-05-19 15:02:00,
2013-05-19 10:03:00,63.1,59.8,29.66,East,89,60.0,60.0,89,0.08,,---,1.37,VWS V14.01,2013-05-19 15:03:00,
2013-05-19 10:04:00,63.1,59.8,29.66,East,85,60.0,60.0,89,0.08,,---,1.37,VWS V14.01,2013-05-19 15:04:00,
2013-05-19 10:05:00,63.1,59.8,29.66,East,86,60.0,60.0,89,0.08,,---,1.37,VWS V14.01,2013-05-19 15:05:00,
2013-05-19 10:06:00,63.1,59.8,29.66,ENE,76,60.0,60.0,89,0.09,,---,1.38,VWS V14.01,2013-05-19 15:06:00,
2013-05-19 10:07:00,63.1,59.8,29.66,East,88,60.0,60.0,89,0.09,,---,1.38,VWS V14.01,2013-05-19 15:07:00,
2013-05-19 10:08:00,63.1,60.7,29.66,East,86,60.0,60.0,92,0.09,,---,1.38,VWS V14.01,2013-05-19 15:08:00,
2013-05-19 10:09:00,63.1,60.7,29.66,ENE,76,60.0,60.0,92,0.09,,---,1.38,VWS V14.01,2013-05-19 15:09:00,
2013-05-19 10:10:00,63.1,60.4,29.66,East,83,60.0,60.0,91,0.09,,---,1.38,VWS V14.01,2013-05-19 15:10:00,
2013-05-19 10:11:00,63.1,59.8,29.66,East,85,60.0,60.0,89,0.09,,---,1.38,VWS V14.01,2013-05-19 15:11:00,
2013-05-19 10:12:00,63.1,59.8,29.66,East,82,60.0,60.0,89,0.09,,---,1.38,VWS V14.01,2013-05-19 15:12:00,
2013-05-19 10:13:00,63.1,59.8,29.66,East,80,60.0,60.0,89,0.09,,---,1.38,VWS V14.01,2013-05-19 15:13:00,
2013-05-19 10:14:00,63.1,59.8,29.66,East,79,60.0,60.0,89,0.09,,---,1.38,VWS V14.01,2013-05-19 15:14:00,
2013-05-19 10:15:00,63.1,59.5,29.66,East,85,60.0,60.0,88,0.09,,---,1.38,VWS V14.01,2013-05-19 15:15:00,
2013-05-19 10:16:00,63.1,59.5,29.66,East,86,60.0,60.0,88,0.09,,---,1.38,VWS V14.01,2013-05-19 15:16:00,
2013-05-19 10:17:00,63.1,59.5,29.66,ENE,76,60.0,60.0,88,0.09,,---,1.38,VWS V14.01,2013-05-19 15:17:00,
2013-05-19 10:18:00,63.1,59.5,29.66,ENE,69,60.0,60.0,88,0.09,,---,1.38,VWS V14.01,2013-05-19 15:18:00,
2013-05-19 10:19:00,63.1,60.4,29.66,East,82,60.0,60.0,91,0.09,,---,1.38,VWS V14.01,2013-05-19 15:19:00,
2013-05-19 10:20:00,63.2,59.6,29.66,East,79,60.0,60.0,88,0.09,,---,1.38,VWS V14.01,2013-05-19 15:20:00,
2013-05-19 10:21:00,63.2,59.6,29.66,ENE,75,60.0,60.0,88,0.09,,---,1.38,VWS V14.01,2013-05-19 15:21:00,
2013-05-19 10:22:00,63.2,59.0,29.66,ENE,75,60.0,60.0,86,0.09,,---,1.38,VWS V14.01,2013-05-19 15:22:00,
2013-05-19 10:23:00,63.2,59.6,29.66,ENE,75,60.0,60.0,88,0.09,,---,1.38,VWS V14.01,2013-05-19 15:23:00,
2013-05-19 10:24:00,63.2,59.6,29.66,ENE,75,60.0,60.0,88,0.09,,---,1.38,VWS V14.01,2013-05-19 15:24:00,
2013-05-19 10:25:00,63.2,59.6,29.66,ENE,73,60.0,60.0,88,0.09,,---,1.38,VWS V14.01,2013-05-19 15:25:00,
2013-05-19 10:26:00,63.2,59.9,29.66,ENE,78,60.0,60.0,89,0.09,,---,1.38,VWS V14.01,2013-05-19 15:26:00,
2013-05-19 10:27:00,63.2,59.6,29.66,East,82,60.0,60.0,88,0.09,,---,1.38,VWS V14.01,2013-05-19 15:27:00,
2013-05-19 10:28:00,63.2,59.6,29.66,ENE,73,60.0,60.0,88,0.09,,---,1.38,VWS V14.01,2013-05-19 15:28:00,
2013-05-19 10:29:00,63.4,60.1,29.66,East,80,60.0,60.0,89,0.09,,---,1.38,VWS V14.01,2013-05-19 15:29:00,
2013-05-19 10:30:00,63.2,59.9,29.66,ENE,75,60.0,60.0,89,0.09,,---,1.38,VWS V14.01,2013-05-19 15:30:00,
2013-05-19 10:31:00,63.4,60.1,29.66,ENE,78,60.0,60.0,89,0.09,,---,1.38,VWS V14.01,2013-05-19 15:31:00,
2013-05-19 10:32:00,63.4,58.5,29.66,East,79,60.0,60.0,84,0.09,,---,1.38,VWS V14.01,2013-05-19 15:32:00,
2013-05-19 10:33:00,63.4,58.5,29.66,East,80,60.0,60.0,84,0.09,,---,1.38,VWS V14.01,2013-05-19 15:33:00,
2013-05-19 10:34:00,63.4,60.1,29.66,East,79,60.0,60.0,89,0.09,,---,1.38,VWS V14.01,2013-05-19 15:34:00,
2013-05-19 10:35:00,63.4,59.8,29.66,ENE,76,60.0,60.0,88,0.09,,---,1.38,VWS V14.01,2013-05-19 15:35:00,
2013-05-19 10:36:00,63.4,59.8,29.66,East,80,60.0,60.0,88,0.09,,---,1.38,VWS V14.01,2013-05-19 15:36:00,
2013-05-19 10:37:00,63.5,60.2,29.66,East,82,60.0,60.0,89,0.09,,---,1.38,VWS V14.01,2013-05-19 15:37:00,
2013-05-19 10:38:00,63.5,60.2,29.66,East,79,60.0,60.0,89,0.09,,---,1.38,VWS V14.01,2013-05-19 15:38:00,
2013-05-19 10:39:00,63.5,60.2,29.66,ENE,75,60.0,60.0,89,0.09,,---,1.38,VWS V14.01,2013-05-19 15:39:00,
2013-05-19 10:40:00,63.5,60.2,29.66,ENE,73,60.0,60.0,89,0.09,,---,1.38,VWS V14.01,2013-05-19 15:40:00,
2013-05-19 10:41:00,63.5,59.2,29.66,ENE,73,60.0,60.0,86,0.09,,---,1.38,VWS V14.01,2013-05-19 15:41:00,
2013-05-19 10:42:00,63.5,60.2,29.66,ENE,78,60.0,60.0,89,0.09,,---,1.38,VWS V14.01,2013-05-19 15:42:00,
2013-05-19 10:43:00,63.5,60.2,29.66,ENE,73,60.0,60.0,89,0.09,,---,1.38,VWS V14.01,2013-05-19 15:43:00,
2013-05-19 10:44:00,63.5,60.5,29.66,ENE,66,60.0,60.0,90,0.09,,---,1.38,VWS V14.01,2013-05-19 15:44:00,
2013-05-19 10:45:00,63.7,60.7,29.66,ENE,71,60.0,60.0,90,0.09,,---,1.38,VWS V14.01,2013-05-19 15:45:00,
2013-05-19 10:46:00,63.7,60.7,29.66,ENE,73,60.0,60.0,90,0.09,,---,1.38,VWS V14.01,2013-05-19 15:46:00,
2013-05-19 10:47:00,63.7,60.1,29.66,East,85,60.0,60.0,88,0.09,,---,1.38,VWS V14.01,2013-05-19 15:47:00,
2013-05-19 10:48:00,63.7,60.4,29.66,East,86,60.0,60.0,89,0.09,,---,1.38,VWS V14.01,2013-05-19 15:48:00,
2013-05-19 10:49:00,63.7,60.1,29.66,East,90,60.0,60.0,88,0.09,,---,1.38,VWS V14.01,2013-05-19 15:49:00,
2013-05-19 10:50:00,63.9,60.3,29.66,East,90,60.0,60.0,88,0.09,,---,1.38,VWS V14.01,2013-05-19 15:50:00,
2013-05-19 10:51:00,63.9,60.3,29.66,ENE,73,60.0,60.0,88,0.09,,---,1.38,VWS V14.01,2013-05-19 15:51:00,
2013-05-19 10:52:00,63.9,60.3,29.66,East,79,60.0,60.0,88,0.09,,---,1.38,VWS V14.01,2013-05-19 15:52:00,
2013-05-19 10:53:00,63.9,59.3,29.66,East,85,60.0,60.0,85,0.09,,---,1.38,VWS V14.01,2013-05-19 15:53:00,
2013-05-19 10:54:00,63.9,60.3,29.66,East,88,60.0,60.0,88,0.09,,---,1.38,VWS V14.01,2013-05-19 15:54:00,
2013-05-19 10:55:00,63.9,60.3,29.66,East,83,60.0,60.0,88,0.09,,---,1.38,VWS V14.01,2013-05-19 15:55:00,
2013-05-19 10:56:00,64.0,60.4,29.66,East,80,60.0,60.0,88,0.09,,---,1.38,VWS V14.01,2013-05-19 15:56:00,
2013-05-19 10:57:00,64.0,60.4,29.66,East,80,60.0,60.0,88,0.09,,---,1.38,VWS V14.01,2013-05-19 15:57:00,
2013-05-19 10:58:00,64.0,61.3,29.66,East,83,60.0,60.0,91,0.09,,---,1.38,VWS V14.01,2013-05-19 15:58:00,
2013-05-19 10:59:00,64.0,60.4,29.66,East,93,60.0,60.0,88,0.09,,---,1.38,VWS V14.01,2013-05-19 15:59:00,
2013-05-19 11:00:00,64.0,60.4,29.66,East,83,60.0,60.0,88,0.09,,---,1.38,VWS V14.01,2013-05-19 16:00:00,
2013-05-19 11:01:00,64.0,60.4,29.66,ENE,78,60.0,60.0,88,0.02,,---,1.38,VWS V14.01,2013-05-19 16:01:00,
2013-05-19 11:02:00,64.0,60.4,29.66,East,83,60.0,60.0,88,0.02,,---,1.38,VWS V14.01,2013-05-19 16:02:00,
2013-05-19 11:03:00,64.0,60.4,29.66,East,80,60.0,60.0,88,0.02,,---,1.38,VWS V14.01,2013-05-19 16:03:00,
2013-05-19 11:04:00,64.0,60.1,29.66,East,79,60.0,60.0,87,0.02,,---,1.38,VWS V14.01,2013-05-19 16:04:00,
2013-05-19 11:05:00,64.0,60.1,29.66,East,85,60.0,60.0,87,0.02,,---,1.38,VWS V14.01,2013-05-19 16:05:00,
2013-05-19 11:06:00,64.0,60.1,29.66,East,83,60.0,60.0,87,0.02,,---,1.38,VWS V14.01,2013-05-19 16:06:00,
2013-05-19 11:07:00,64.0,60.1,29.66,East,86,60.0,60.0,87,0.02,,---,1.38,VWS V14.01,2013-05-19 16:07:00,
2013-05-19 11:08:00,64.0,60.1,29.66,East,83,60.0,60.0,87,0.02,,---,1.38,VWS V14.01,2013-05-19 16:08:00,
2013-05-19 11:09:00,64.0,60.1,29.66,East,88,60.0,60.0,87,0.02,,---,1.38,VWS V14.01,2013-05-19 16:09:00,
2013-05-19 11:10:00,64.2,61.2,29.66,East,85,60.0,60.0,90,0.02,,---,1.38,VWS V14.01,2013-05-19 16:10:00,
2013-05-19 11:11:00,64.2,60.3,29.66,East,90,60.0,60.0,87,0.02,,---,1.38,VWS V14.01,2013-05-19 16:11:00,
2013-05-19 11:12:00,64.2,59.6,29.66,East,93,60.0,60.0,85,0.02,,---,1.38,VWS V14.01,2013-05-19 16:12:00,
2013-05-19 11:13:00,64.2,60.3,29.66,East,90,60.0,60.0,87,0.02,,---,1.38,VWS V14.01,2013-05-19 16:13:00,
2013-05-19 11:14:00,64.2,60.3,29.66,East,85,60.0,60.0,87,0.02,,---,1.38,VWS V14.01,2013-05-19 16:14:00,
2013-05-19 11:15:00,64.3,61.3,29.66,East,85,60.0,60.0,90,0.02,,---,1.38,VWS V14.01,2013-05-19 16:15:00,
2013-05-19 11:16:00,64.3,60.3,29.66,East,89,60.0,60.0,87,0.02,,---,1.38,VWS V14.01,2013-05-19 16:16:00,
2013-05-19 11:17:00,64.3,60.3,29.66,ENE,76,60.0,60.0,87,0.02,,---,1.38,VWS V14.01,2013-05-19 16:17:00,
2013-05-19 11:18:00,64.3,60.3,29.66,ENE,76,60.0,60.0,87,0.02,,---,1.38,VWS V14.01,2013-05-19 16:18:00,
2013-05-19 11:19:00,64.5,60.5,29.66,ENE,73,60.0,60.0,87,0.02,,---,1.38,VWS V14.01,2013-05-19 16:19:00,
2013-05-19 11:20:00,64.5,60.5,29.66,East,90,60.0,60.0,87,0.02,,---,1.38,VWS V14.01,2013-05-19 16:20:00,
2013-05-19 11:21:00,64.5,60.2,29.66,East,79,60.0,60.0,86,0.02,,---,1.38,VWS V14.01,2013-05-19 16:21:00,
2013-05-19 11:22:00,64.5,60.2,29.66,East,88,60.0,60.0,86,0.02,,---,1.38,VWS V14.01,2013-05-19 16:22:00,
2013-05-19 11:23:00,64.5,60.2,29.66,ENE,76,60.0,60.0,86,0.02,,---,1.38,VWS V14.01,2013-05-19 16:23:00,
2013-05-19 11:24:00,64.7,60.4,29.66,East,83,60.0,60.0,86,0.02,,---,1.38,VWS V14.01,2013-05-19 16:24:00,
2013-05-19 11:25:00,64.7,59.4,29.66,ENE,72,60.0,60.0,83,0.02,,---,1.38,VWS V14.01,2013-05-19 16:25:00,
2013-05-19 11:26:00,64.8,59.9,29.66,ENE,72,60.0,60.0,84,0.02,,---,1.38,VWS V14.01,2013-05-19 16:26:00,
2013-05-19 11:27:00,64.8,60.5,29.66,ENE,72,60.0,60.0,86,0.02,,---,1.38,VWS V14.01,2013-05-19 16:27:00,
2013-05-19 11:28:00,64.8,60.5,29.66,ENE,66,60.0,60.0,86,0.02,,---,1.38,VWS V14.01,2013-05-19 16:28:00,
2013-05-19 11:29:00,64.8,60.5,29.66,ENE,69,60.0,60.0,86,0.02,,---,1.38,VWS V14.01,2013-05-19 16:29:00,
2013-05-19 11:30:00,64.8,60.5,29.66,ENE,65,60.0,60.0,86,0.02,,---,1.38,VWS V14.01,2013-05-19 16:30:00,
2013-05-19 11:31:00,64.8,60.5,29.66,East,89,60.0,60.0,86,0.00,,---,1.38,VWS V14.01,2013-05-19 16:31:00,
2013-05-19 11:32:00,64.8,60.5,29.66,East,88,60.0,60.0,86,0.00,,---,1.38,VWS V14.01,2013-05-19 16:32:00,
2013-05-19 11:33:00,65.0,60.7,29.66,East,92,60.0,60.0,86,0.00,,---,1.38,VWS V14.01,2013-05-19 16:33:00,
2013-05-19 11:34:00,65.0,60.7,29.66,East,79,60.0,60.0,86,0.00,,---,1.38,VWS V14.01,2013-05-19 16:34:00,
2013-05-19 11:35:00,65.0,61.4,29.66,East,82,60.0,60.0,88,0.00,,---,1.38,VWS V14.01,2013-05-19 16:35:00,
2013-05-19 11:36:00,65.0,60.7,29.66,ENE,76,60.0,60.0,86,0.00,,---,1.38,VWS V14.01,2013-05-19 16:36:00,
2013-05-19 11:37:00,65.0,60.7,29.66,ENE,62,60.0,60.0,86,0.00,,---,1.38,VWS V14.01,2013-05-19 16:37:00,
2013-05-19 11:38:00,65.2,60.9,29.66,ENE,64,60.0,60.0,86,0.00,,---,1.38,VWS V14.01,2013-05-19 16:38:00,
2013-05-19 11:39:00,65.2,60.9,29.66,ENE,73,60.0,60.0,86,0.00,,---,1.38,VWS V14.01,2013-05-19 16:39:00,
2013-05-19 11:40:00,65.2,60.9,29.66,East,88,60.0,60.0,86,0.00,,---,1.38,VWS V14.01,2013-05-19 16:40:00,
2013-05-19 11:41:00,65.0,60.7,29.66,East,80,60.0,60.0,86,0.00,,---,1.38,VWS V14.01,2013-05-19 16:41:00,
2013-05-19 11:42:00,65.2,60.2,29.66,East,92,60.0,60.0,84,0.00,,---,1.38,VWS V14.01,2013-05-19 16:42:00,
2013-05-19 11:43:00,65.2,60.9,29.66,East,86,60.0,60.0,86,0.00,,---,1.38,VWS V14.01,2013-05-19 16:43:00,
2013-05-19 11:44:00,65.3,61.0,29.64,East,92,60.0,60.0,86,0.00,,---,1.38,VWS V14.01,2013-05-19 16:44:00,
2013-05-19 11:45:00,65.3,61.0,29.64,East,93,60.0,60.0,86,0.00,,---,1.38,VWS V14.01,2013-05-19 16:45:00,
2013-05-19 11:46:00,65.3,61.0,29.64,East,80,60.0,60.0,86,0.00,,---,1.38,VWS V14.01,2013-05-19 16:46:00,
2013-05-19 11:47:00,65.3,61.0,29.64,ENE,76,60.0,60.0,86,0.00,,---,1.38,VWS V14.01,2013-05-19 16:47:00,
2013-05-19 11:48:00,65.3,61.0,29.64,East,82,60.0,60.0,86,0.00,,---,1.38,VWS V14.01,2013-05-19 16:48:00,
2013-05-19 11:49:00,65.3,62.0,29.64,East,79,60.0,60.0,89,0.00,,---,1.38,VWS V14.01,2013-05-19 16:49:00,
2013-05-19 11:50:00,65.5,61.2,29.64,East,83,60.0,60.0,86,0.00,,---,1.38,VWS V14.01,2013-05-19 16:50:00,
2013-05-19 11:51:00,65.5,61.2,29.64,ENE,78,60.0,60.0,86,0.00,,---,1.38,VWS V14.01,2013-05-19 16:51:00,
2013-05-19 11:52:00,65.5,61.2,29.64,ENE,72,60.0,60.0,86,0.00,,---,1.38,VWS V14.01,2013-05-19 16:52:00,
2013-05-19 11:53:00,65.5,61.2,29.64,East,80,60.0,60.0,86,0.00,,---,1.38,VWS V14.01,2013-05-19 16:53:00,
2013-05-19 11:54:00,65.6,61.3,29.64,East,89,60.0,60.0,86,0.00,,---,1.38,VWS V14.01,2013-05-19 16:54:00,
2013-05-19 11:55:00,65.8,61.5,29.64,ENE,65,60.0,60.0,86,0.00,,---,1.38,VWS V14.01,2013-05-19 16:55:00,
2013-05-19 11:56:00,66.0,61.7,29.64,ENE,59,60.0,60.0,86,0.00,,---,1.38,VWS V14.01,2013-05-19 16:56:00,
2013-05-19 11:57:00,66.0,62.0,29.64,ENE,62,60.0,60.0,87,0.00,,---,1.38,VWS V14.01,2013-05-19 16:57:00,
2013-05-19 11:58:00,66.1,61.8,29.64,ENE,73,60.0,60.0,86,0.00,,---,1.38,VWS V14.01,2013-05-19 16:58:00,
2013-05-19 11:59:00,66.3,61.7,29.64,ESE,103,60.0,60.0,85,0.00,,---,1.38,VWS V14.01,2013-05-19 16:59:00,
2013-05-19 12:00:00,66.4,61.8,29.63,East,89,60.0,60.0,85,0.00,,---,1.38,VWS V14.01,2013-05-19 17:00:00,
2013-05-19 12:01:00,66.4,61.8,29.63,NE,38,60.0,60.0,85,0.00,,---,1.38,VWS V14.01,2013-05-19 17:01:00,
2013-05-19 12:02:00,66.6,62.0,29.63,East,92,60.0,60.0,85,0.00,,---,1.38,VWS V14.01,2013-05-19 17:02:00,
2013-05-19 12:03:00,66.8,62.2,29.63,ENE,65,60.0,60.0,85,0.00,,---,1.38,VWS V14.01,2013-05-19 17:03:00,
2013-05-19 12:04:00,66.8,63.1,29.63,ENE,76,60.0,60.0,88,0.00,,---,1.38,VWS V14.01,2013-05-19 17:04:00,
2013-05-19 12:05:00,66.9,62.2,29.63,ENE,76,60.0,60.0,85,0.00,,---,1.38,VWS V14.01,2013-05-19 17:05:00,
2013-05-19 12:06:00,66.9,61.9,29.63,East,83,60.0,60.0,84,0.00,,---,1.38,VWS V14.01,2013-05-19 17:06:00,
2013-05-19 12:07:00,66.9,61.9,29.63,East,89,60.0,60.0,84,0.00,,---,1.38,VWS V14.01,2013-05-19 17:07:00,
2013-05-19 12:08:00,67.1,62.1,29.63,ENE,76,60.0,60.0,84,0.00,,---,1.38,VWS V14.01,2013-05-19 17:08:00,
2013-05-19 12:09:00,67.1,62.1,29.63,ENE,68,60.0,60.0,84,0.00,,---,1.38,VWS V14.01,2013-05-19 17:09:00,
2013-05-19 12:10:00,67.1,62.1,29.63,East,80,60.0,60.0,84,0.00,,---,1.38,VWS V14.01,2013-05-19 17:10:00,
2013-05-19 12:11:00,67.3,62.3,29.63,ENE,76,60.0,60.0,84,0.00,,---,1.38,VWS V14.01,2013-05-19 17:11:00,
2013-05-19 12:12:00,67.3,62.3,29.63,ENE,68,60.0,60.0,84,0.00,,---,1.38,VWS V14.01,2013-05-19 17:12:00,
2013-05-19 12:13:00,67.3,62.3,29.63,ENE,69,60.0,60.0,84,0.00,,---,1.38,VWS V14.01,2013-05-19 17:13:00,
2013-05-19 12:14:00,67.4,62.4,29.63,ENE,72,60.0,60.0,84,0.00,,---,1.38,VWS V14.01,2013-05-19 17:14:00,
2013-05-19 12:15:00,67.4,62.4,29.63,ENE,71,60.0,60.0,84,0.00,,---,1.38,VWS V14.01,2013-05-19 17:15:00,
2013-05-19 12:16:00,67.6,62.6,29.63,East,83,60.0,60.0,84,0.00,,---,1.38,VWS V14.01,2013-05-19 17:16:00,
2013-05-19 12:17:00,67.6,62.3,29.63,ENE,69,60.0,60.0,83,0.00,,---,1.38,VWS V14.01,2013-05-19 17:17:00,
2013-05-19 12:18:00,67.6,62.3,29.63,East,85,60.0,60.0,83,0.00,,---,1.38,VWS V14.01,2013-05-19 17:18:00,
2013-05-19 12:19:00,67.6,62.3,29.63,East,79,60.0,60.0,83,0.00,,---,1.38,VWS V14.01,2013-05-19 17:19:00,
2013-05-19 12:20:00,67.8,62.5,29.63,ESE,103,60.0,60.0,83,0.00,,---,1.38,VWS V14.01,2013-05-19 17:20:00,
2013-05-19 12:21:00,67.8,62.5,29.63,East,95,60.0,60.0,83,0.00,,---,1.38,VWS V14.01,2013-05-19 17:21:00,
2013-05-19 12:22:00,67.8,60.3,29.63,East,82,60.0,60.0,77,0.00,,---,1.38,VWS V14.01,2013-05-19 17:22:00,
2013-05-19 12:23:00,67.9,61.5,29.63,East,85,60.0,60.0,80,0.00,,---,1.38,VWS V14.01,2013-05-19 17:23:00,
2013-05-19 12:24:00,67.9,62.5,29.63,East,100,60.0,60.0,83,0.00,,---,1.38,VWS V14.01,2013-05-19 17:24:00,
2013-05-19 12:25:00,67.9,62.2,29.63,East,92,60.0,60.0,82,0.00,,---,1.38,VWS V14.01,2013-05-19 17:25:00,
2013-05-19 12:26:00,67.9,62.9,29.63,East,86,60.0,60.0,84,0.00,,---,1.38,VWS V14.01,2013-05-19 17:26:00,
2013-05-19 12:27:00,67.9,62.2,29.63,ENE,64,60.0,60.0,82,0.00,,---,1.38,VWS V14.01,2013-05-19 17:27:00,
2013-05-19 12:28:00,67.8,62.1,29.63,ESE,107,60.0,60.0,82,0.00,,---,1.38,VWS V14.01,2013-05-19 17:28:00,
2013-05-19 12:29:00,67.8,62.1,29.63,East,82,60.0,60.0,82,0.00,,---,1.38,VWS V14.01,2013-05-19 17:29:00,
2013-05-19 12:30:00,67.8,62.1,29.63,East,89,60.0,60.0,82,0.00,,---,1.38,VWS V14.01,2013-05-19 17:30:00,
2013-05-19 12:31:00,67.8,62.1,29.63,East,93,60.0,60.0,82,0.00,,---,1.38,VWS V14.01,2013-05-19 17:31:00,
2013-05-19 12:32:00,67.8,62.1,29.63,East,100,60.0,60.0,82,0.00,,---,1.38,VWS V14.01,2013-05-19 17:32:00,
2013-05-19 12:33:00,67.8,61.8,29.63,East,92,60.0,60.0,81,0.00,,---,1.38,VWS V14.01,2013-05-19 17:33:00,
2013-05-19 12:34:00,67.8,62.1,29.63,East,85,60.0,60.0,82,0.00,,---,1.38,VWS V14.01,2013-05-19 17:34:00,
2013-05-19 12:35:00,67.8,60.7,29.63,East,92,60.0,60.0,78,0.00,,---,1.38,VWS V14.01,2013-05-19 17:35:00,
2013-05-19 12:36:00,67.8,62.1,29.63,East,86,60.0,60.0,82,0.00,,---,1.38,VWS V14.01,2013-05-19 17:36:00,
2013-05-19 12:37:00,67.9,62.2,29.63,ENE,69,60.0,60.0,82,0.00,,---,1.38,VWS V14.01,2013-05-19 17:37:00,
2013-05-19 12:38:00,67.9,62.2,29.63,East,85,60.0,60.0,82,0.00,,---,1.38,VWS V14.01,2013-05-19 17:38:00,
2013-05-19 12:39:00,67.9,62.2,29.63,East,90,60.0,60.0,82,0.00,,---,1.38,VWS V14.01,2013-05-19 17:39:00,
2013-05-19 12:40:00,68.1,62.4,29.63,ENE,71,60.0,60.0,82,0.00,,---,1.38,VWS V14.01,2013-05-19 17:40:00,
2013-05-19 12:41:00,68.3,62.6,29.63,East,100,60.0,60.0,82,0.00,,---,1.38,VWS V14.01,2013-05-19 17:41:00,
2013-05-19 12:42:00,68.3,62.6,29.63,East,99,60.0,60.0,82,0.00,,---,1.38,VWS V14.01,2013-05-19 17:42:00,
2013-05-19 12:43:00,68.6,63.2,29.63,East,96,60.0,60.0,83,0.00,,---,1.38,VWS V14.01,2013-05-19 17:43:00,
2013-05-19 12:44:00,68.6,62.9,29.63,East,88,60.0,60.0,82,0.00,,---,1.38,VWS V14.01,2013-05-19 17:44:00,
2013-05-19 12:45:00,68.8,62.7,29.62,East,89,60.0,60.0,81,0.00,,---,1.38,VWS V14.01,2013-05-19 17:45:00,
2013-05-19 12:46:00,68.9,62.8,29.62,East,97,60.0,60.0,81,0.00,,---,1.38,VWS V14.01,2013-05-19 17:46:00,
2013-05-19 12:47:00,69.1,62.7,29.62,East,80,60.0,60.0,80,0.00,,---,1.38,VWS V14.01,2013-05-19 17:47:00,
2013-05-19 12:48:00,69.4,63.3,29.62,East,80,60.0,60.0,81,0.00,,---,1.38,VWS V14.01,2013-05-19 17:48:00,
2013-05-19 12:49:00,69.4,63.0,29.62,East,97,60.0,60.0,80,0.00,,---,1.38,VWS V14.01,2013-05-19 17:49:00,
2013-05-19 12:50:00,69.8,63.7,29.62,East,100,60.0,60.0,81,0.00,,---,1.38,VWS V14.01,2013-05-19 17:50:00,
2013-05-19 12:51:00,69.9,63.1,29.62,East,83,60.0,60.0,79,0.00,,---,1.38,VWS V14.01,2013-05-19 17:51:00,
2013-05-19 12:52:00,70.1,63.3,29.62,East,93,60.0,60.0,79,0.00,,---,1.38,VWS V14.01,2013-05-19 17:52:00,
2013-05-19 12:53:00,70.3,63.5,29.62,East,89,60.0,60.0,79,0.00,,---,1.38,VWS V14.01,2013-05-19 17:53:00,
2013-05-19 12:54:00,70.4,62.8,29.62,East,90,60.0,60.0,77,0.00,,---,1.38,VWS V14.01,2013-05-19 17:54:00,
2013-05-19 12:55:00,70.6,63.4,29.62,East,83,60.0,60.0,78,0.00,,---,1.38,VWS V14.01,2013-05-19 17:55:00,
2013-05-19 12:56:00,70.8,63.6,29.62,East,99,60.0,60.0,78,0.00,,---,1.38,VWS V14.01,2013-05-19 17:56:00,
2013-05-19 12:57:00,70.8,63.6,29.62,East,90,60.0,60.0,78,0.00,,---,1.38,VWS V14.01,2013-05-19 17:57:00,
2013-05-19 12:58:00,70.8,63.2,29.62,East,80,60.0,60.0,77,0.00,,---,1.38,VWS V14.01,2013-05-19 17:58:00,
2013-05-19 12:59:00,70.8,62.9,29.62,East,97,60.0,60.0,76,0.00,,---,1.38,VWS V14.01,2013-05-19 17:59:00,
2013-05-19 13:00:00,70.8,62.9,29.62,East,85,60.0,60.0,76,0.00,,---,1.38,VWS V14.01,2013-05-19 18:00:00,
2013-05-19 13:01:00,70.8,63.2,29.62,ESE,102,60.0,60.0,77,0.00,,---,1.38,VWS V14.01,2013-05-19 18:01:00,
2013-05-19 13:02:00,70.8,63.2,29.62,ENE,61,60.0,60.0,77,0.00,,---,1.38,VWS V14.01,2013-05-19 18:02:00,
2013-05-19 13:03:00,70.6,63.0,29.62,East,83,60.0,60.0,77,0.00,,---,1.38,VWS V14.01,2013-05-19 18:03:00,
2013-05-19 13:04:00,70.6,63.0,29.62,East,92,60.0,60.0,77,0.00,,---,1.38,VWS V14.01,2013-05-19 18:04:00,
2013-05-19 13:05:00,70.6,63.0,29.62,East,89,60.0,60.0,77,0.00,,---,1.38,VWS V14.01,2013-05-19 18:05:00,
2013-05-19 13:06:00,70.6,63.0,29.62,East,92,60.0,60.0,77,0.00,,---,1.38,VWS V14.01,2013-05-19 18:06:00,
2013-05-19 13:07:00,70.6,63.0,29.62,East,95,60.0,60.0,77,0.00,,---,1.38,VWS V14.01,2013-05-19 18:07:00,
2013-05-19 13:08:00,70.8,63.2,29.62,East,88,60.0,60.0,77,0.00,,---,1.38,VWS V14.01,2013-05-19 18:08:00,
2013-05-19 13:09:00,70.8,63.2,29.62,East,92,60.0,60.0,77,0.00,,---,1.38,VWS V14.01,2013-05-19 18:09:00,
2013-05-19 13:10:00,70.8,63.2,29.62,East,92,60.0,60.0,77,0.00,,---,1.38,VWS V14.01,2013-05-19 18:10:00,
2013-05-19 13:11:00,70.8,63.2,29.62,East,95,60.0,60.0,77,0.00,,---,1.38,VWS V14.01,2013-05-19 18:11:00,
2013-05-19 13:12:00,70.8,63.2,29.62,East,97,60.0,60.0,77,0.00,,---,1.38,VWS V14.01,2013-05-19 18:12:00,
2013-05-19 13:13:00,70.8,63.2,29.62,East,80,60.0,60.0,77,0.00,,---,1.38,VWS V14.01,2013-05-19 18:13:00,
2013-05-19 13:14:00,70.8,63.2,29.62,East,85,60.0,60.0,77,0.00,,---,1.38,VWS V14.01,2013-05-19 18:14:00,
2013-05-19 13:15:00,70.8,63.2,29.62,East,89,60.0,60.0,77,0.00,,---,1.38,VWS V14.01,2013-05-19 18:15:00,
2013-05-19 13:16:00,70.8,63.2,29.62,East,90,60.0,60.0,77,0.00,,---,1.38,VWS V14.01,2013-05-19 18:16:00,
2013-05-19 13:17:00,70.8,63.2,29.62,East,90,60.0,60.0,77,0.00,,---,1.38,VWS V14.01,2013-05-19 18:17:00,
2013-05-19 13:18:00,70.8,63.2,29.62,East,92,60.0,60.0,77,0.00,,---,1.38,VWS V14.01,2013-05-19 18:18:00,
2013-05-19 13:19:00,70.8,63.2,29.62,South,184,60.0,60.0,77,0.00,,---,1.38,VWS V14.01,2013-05-19 18:19:00,
2013-05-19 13:20:00,70.9,63.3,29.62,SE,134,60.0,60.0,77,0.00,,---,1.38,VWS V14.01,2013-05-19 18:20:00,
2013-05-19 13:21:00,70.9,63.0,29.62,East,93,60.0,60.0,76,0.00,,---,1.38,VWS V14.01,2013-05-19 18:21:00,
2013-05-19 13:22:00,71.3,62.6,29.62,East,90,60.0,60.0,74,0.00,,---,1.38,VWS V14.01,2013-05-19 18:22:00,
2013-05-19 13:23:00,71.5,62.8,29.62,SSE,151,60.0,60.0,74,0.00,,---,1.38,VWS V14.01,2013-05-19 18:23:00,
2013-05-19 13:24:00,71.6,62.5,29.62,SSE,148,60.0,60.0,73,0.00,,---,1.38,VWS V14.01,2013-05-19 18:24:00,
2013-05-19 13:25:00,71.8,62.3,29.62,SE,124,60.0,60.0,72,0.00,,---,1.38,VWS V14.01,2013-05-19 18:25:00,
2013-05-19 13:26:00,71.8,62.3,29.62,SE,124,60.0,60.0,72,0.00,,---,1.38,VWS V14.01,2013-05-19 18:26:00,
2013-05-19 13:27:00,72.0,62.5,29.62,ENE,72,60.0,60.0,72,0.00,,---,1.38,VWS V14.01,2013-05-19 18:27:00,
2013-05-19 13:28:00,72.1,62.2,29.62,East,90,60.0,60.0,71,0.00,,---,1.38,VWS V14.01,2013-05-19 18:28:00,
2013-05-19 13:29:00,72.1,61.8,29.62,ESE,106,60.0,60.0,70,0.00,,---,1.38,VWS V14.01,2013-05-19 18:29:00,
2013-05-19 13:30:00,72.3,62.0,29.61,ESE,104,60.0,60.0,70,0.00,,---,1.38,VWS V14.01,2013-05-19 18:30:00,
2013-05-19 13:31:00,72.3,62.0,29.61,East,89,60.0,60.0,70,0.00,,---,1.38,VWS V14.01,2013-05-19 18:31:00,
2013-05-19 13:32:00,72.1,62.2,29.61,East,90,60.0,60.0,71,0.00,,---,1.38,VWS V14.01,2013-05-19 18:32:00,
2013-05-19 13:33:00,72.1,62.2,29.61,East,86,60.0,60.0,71,0.00,,---,1.38,VWS V14.01,2013-05-19 18:33:00,
2013-05-19 13:34:00,72.1,62.2,29.61,East,83,60.0,60.0,71,0.00,,---,1.38,VWS V14.01,2013-05-19 18:34:00,
2013-05-19 13:35:00,72.0,62.1,29.61,East,92,60.0,60.0,71,0.00,,---,1.38,VWS V14.01,2013-05-19 18:35:00,
2013-05-19 13:36:00,72.0,62.1,29.61,East,92,60.0,60.0,71,0.00,,---,1.38,VWS V14.01,2013-05-19 18:36:00,
2013-05-19 13:37:00,71.8,61.9,29.61,East,92,60.0,60.0,71,0.00,,---,1.38,VWS V14.01,2013-05-19 18:37:00,
2013-05-19 13:38:00,71.8,62.3,29.61,East,92,60.0,60.0,72,0.00,,---,1.38,VWS V14.01,2013-05-19 18:38:00,
2013-05-19 13:39:00,71.6,62.1,29.61,East,92,60.0,60.0,72,0.00,,---,1.38,VWS V14.01,2013-05-19 18:39:00,
2013-05-19 13:40:00,71.6,62.1,29.61,SSE,160,60.0,60.0,72,0.00,,---,1.38,VWS V14.01,2013-05-19 18:40:00,
2013-05-19 13:41:00,71.6,62.5,29.61,SSE,165,60.0,60.0,73,0.00,,---,1.38,VWS V14.01,2013-05-19 18:41:00,
2013-05-19 13:42:00,71.5,62.4,29.61,SSE,165,60.0,60.0,73,0.00,,---,1.38,VWS V14.01,2013-05-19 18:42:00,
2013-05-19 13:43:00,71.5,62.8,29.61,SSW,206,60.0,60.0,74,0.00,,---,1.38,VWS V14.01,2013-05-19 18:43:00,
2013-05-19 13:44:00,71.3,62.2,29.61,SSE,157,60.0,60.0,73,0.01,,---,1.39,VWS V14.01,2013-05-19 18:44:00,
2013-05-19 13:45:00,71.3,62.6,29.61,ESE,109,60.0,60.0,74,0.01,,---,1.39,VWS V14.01,2013-05-19 18:45:00,
2013-05-19 13:46:00,71.1,62.4,29.61,ESE,110,60.0,60.0,74,0.01,,---,1.39,VWS V14.01,2013-05-19 18:46:00,
2013-05-19 13:47:00,71.1,62.8,29.61,ESE,121,60.0,60.0,75,0.01,,---,1.39,VWS V14.01,2013-05-19 18:47:00,
2013-05-19 13:48:00,71.1,63.2,29.61,ESE,102,60.0,60.0,76,0.01,,---,1.39,VWS V14.01,2013-05-19 18:48:00,
2013-05-19 13:49:00,70.9,63.0,29.61,ESE,106,60.0,60.0,76,0.01,,---,1.39,VWS V14.01,2013-05-19 18:49:00,
2013-05-19 13:50:00,70.9,63.7,29.61,ESE,104,60.0,60.0,78,0.01,,---,1.39,VWS V14.01,2013-05-19 18:50:00,
2013-05-19 13:51:00,71.1,63.9,29.61,ESE,104,60.0,60.0,78,0.01,,---,1.39,VWS V14.01,2013-05-19 18:51:00,
2013-05-19 13:52:00,71.1,63.9,29.61,ESE,104,60.0,60.0,78,0.01,,---,1.39,VWS V14.01,2013-05-19 18:52:00,
2013-05-19 13:53:00,71.1,63.9,29.61,ESE,107,60.0,60.0,78,0.01,,---,1.39,VWS V14.01,2013-05-19 18:53:00,
2013-05-19 13:54:00,71.1,63.5,29.61,East,93,60.0,60.0,77,0.01,,---,1.39,VWS V14.01,2013-05-19 18:54:00,
2013-05-19 13:55:00,71.3,63.7,29.61,East,96,60.0,60.0,77,0.01,,---,1.39,VWS V14.01,2013-05-19 18:55:00,
2013-05-19 13:56:00,71.5,63.9,29.61,East,92,60.0,60.0,77,0.01,,---,1.39,VWS V14.01,2013-05-19 18:56:00,
2013-05-19 13:57:00,71.6,64.4,29.61,East,89,60.0,60.0,78,0.01,,---,1.39,VWS V14.01,2013-05-19 18:57:00,
2013-05-19 13:58:00,71.8,64.2,29.61,East,96,60.0,60.0,77,0.01,,---,1.39,VWS V14.01,2013-05-19 18:58:00,
2013-05-19 13:59:00,72.0,64.4,29.61,East,97,60.0,60.0,77,0.01,,---,1.39,VWS V14.01,2013-05-19 18:59:00,
2013-05-19 14:00:00,72.3,64.7,29.61,East,97,60.0,60.0,77,0.01,,---,1.39,VWS V14.01,2013-05-19 19:00:00,
2013-05-19 14:01:00,72.7,65.4,29.61,SE,126,60.0,60.0,78,0.01,,---,1.39,VWS V14.01,2013-05-19 19:01:00,
2013-05-19 14:02:00,73.0,65.4,29.61,ESE,113,60.0,60.0,77,0.01,,---,1.39,VWS V14.01,2013-05-19 19:02:00,
2013-05-19 14:03:00,73.0,65.0,29.61,South,178,60.0,60.0,76,0.01,,---,1.39,VWS V14.01,2013-05-19 19:03:00,
2013-05-19 14:04:00,73.2,64.4,29.61,SSE,155,60.0,60.0,74,0.01,,---,1.39,VWS V14.01,2013-05-19 19:04:00,
2013-05-19 14:05:00,73.3,64.9,29.61,ESE,103,60.0,60.0,75,0.01,,---,1.39,VWS V14.01,2013-05-19 19:05:00,
2013-05-19 14:06:00,73.7,65.3,29.61,ESE,112,60.0,60.0,75,0.01,,---,1.39,VWS V14.01,2013-05-19 19:06:00,
2013-05-19 14:07:00,73.9,65.5,29.61,SSE,147,60.0,60.0,75,0.01,,---,1.39,VWS V14.01,2013-05-19 19:07:00,
2013-05-19 14:08:00,74.0,64.4,29.61,SSE,168,60.0,60.0,72,0.01,,---,1.39,VWS V14.01,2013-05-19 19:08:00,
2013-05-19 14:09:00,74.0,63.6,29.61,SE,145,60.0,60.0,70,0.01,,---,1.39,VWS V14.01,2013-05-19 19:09:00,
2013-05-19 14:10:00,74.2,62.1,29.61,South,189,60.0,60.0,66,0.01,,---,1.39,VWS V14.01,2013-05-19 19:10:00,
2013-05-19 14:11:00,74.6,62.9,29.61,SSE,157,60.0,60.0,67,0.01,,---,1.39,VWS V14.01,2013-05-19 19:11:00,
2013-05-19 14:12:00,74.7,62.6,29.61,SSE,168,60.0,60.0,66,0.01,,---,1.39,VWS V14.01,2013-05-19 19:12:00,
2013-05-19 14:13:00,74.9,62.3,29.61,SSE,157,60.0,60.0,65,0.01,,---,1.39,VWS V14.01,2013-05-19 19:13:00,
2013-05-19 14:14:00,75.1,62.5,29.61,South,189,60.0,60.0,65,0.01,,---,1.39,VWS V14.01,2013-05-19 19:14:00,
2013-05-19 14:15:00,75.3,63.6,29.61,SSE,168,60.0,60.0,67,0.01,,---,1.39,VWS V14.01,2013-05-19 19:15:00,
2013-05-19 14:16:00,75.4,63.7,29.61,SW,232,60.0,60.0,67,0.01,,---,1.39,VWS V14.01,2013-05-19 19:16:00,
2013-05-19 14:17:00,75.6,63.9,29.61,SSW,199,60.0,60.0,67,0.01,,---,1.39,VWS V14.01,2013-05-19 19:17:00,
2013-05-19 14:18:00,75.6,61.7,29.61,SSE,158,60.0,60.0,62,0.01,,---,1.39,VWS V14.01,2013-05-19 19:18:00,
2013-05-19 14:19:00,75.6,61.2,29.61,SSE,151,60.0,60.0,61,0.01,,---,1.39,VWS V14.01,2013-05-19 19:19:00,
2013-05-19 14:20:00,75.6,61.2,29.61,SSE,160,60.0,60.0,61,0.01,,---,1.39,VWS V14.01,2013-05-19 19:20:00,
2013-05-19 14:21:00,75.8,61.9,29.61,South,179,60.0,60.0,62,0.01,,---,1.39,VWS V14.01,2013-05-19 19:21:00,
2013-05-19 14:22:00,76.0,62.5,29.61,SE,137,60.0,60.0,63,0.01,,---,1.39,VWS V14.01,2013-05-19 19:22:00,
2013-05-19 14:23:00,76.1,62.2,29.61,SSE,147,60.0,60.0,62,0.01,,---,1.39,VWS V14.01,2013-05-19 19:23:00,
2013-05-19 14:24:00,76.3,62.3,29.61,South,191,60.0,60.0,62,0.01,,---,1.39,VWS V14.01,2013-05-19 19:24:00,
2013-05-19 14:25:00,76.5,62.5,29.61,SSE,161,60.0,60.0,62,0.01,,---,1.39,VWS V14.01,2013-05-19 19:25:00,
2013-05-19 14:26:00,76.5,62.1,29.61,South,181,60.0,60.0,61,0.01,,---,1.39,VWS V14.01,2013-05-19 19:26:00,
2013-05-19 14:27:00,76.5,62.1,29.61,SSE,165,60.0,60.0,61,0.01,,---,1.39,VWS V14.01,2013-05-19 19:27:00,
2013-05-19 14:28:00,76.5,62.1,29.61,South,176,60.0,60.0,61,0.01,,---,1.39,VWS V14.01,2013-05-19 19:28:00,
2013-05-19 14:29:00,76.5,62.1,29.61,South,169,60.0,60.0,61,0.01,,---,1.39,VWS V14.01,2013-05-19 19:29:00,
2013-05-19 14:30:00,76.7,63.2,29.61,SSE,160,60.0,60.0,63,0.01,,---,1.39,VWS V14.01,2013-05-19 19:30:00,
2013-05-19 14:31:00,76.8,63.3,29.61,SSW,203,60.0,60.0,63,0.01,,---,1.39,VWS V14.01,2013-05-19 19:31:00,
2013-05-19 14:32:00,76.8,61.4,29.61,South,174,60.0,60.0,59,0.01,,---,1.39,VWS V14.01,2013-05-19 19:32:00,
2013-05-19 14:33:00,76.8,61.4,29.61,South,169,60.0,60.0,59,0.01,,---,1.39,VWS V14.01,2013-05-19 19:33:00,
2013-05-19 14:34:00,76.8,60.9,29.61,South,184,60.0,60.0,58,0.01,,---,1.39,VWS V14.01,2013-05-19 19:34:00,
2013-05-19 14:35:00,76.7,59.8,29.61,South,184,60.0,60.0,56,0.01,,---,1.39,VWS V14.01,2013-05-19 19:35:00,
2013-05-19 14:36:00,76.7,60.3,29.61,South,169,60.0,60.0,57,0.01,,---,1.39,VWS V14.01,2013-05-19 19:36:00,
2013-05-19 14:37:00,76.7,60.8,29.61,SSW,212,60.0,60.0,58,0.01,,---,1.39,VWS V14.01,2013-05-19 19:37:00,
2013-05-19 14:38:00,76.7,61.3,29.61,South,174,60.0,60.0,59,0.01,,---,1.39,VWS V14.01,2013-05-19 19:38:00,
2013-05-19 14:39:00,76.8,60.9,29.61,SSW,202,60.0,60.0,58,0.01,,---,1.39,VWS V14.01,2013-05-19 19:39:00,
2013-05-19 14:40:00,76.7,60.3,29.61,SSE,152,60.0,60.0,57,0.01,,---,1.39,VWS V14.01,2013-05-19 19:40:00,
2013-05-19 14:41:00,76.8,60.4,29.61,SSW,200,60.0,60.0,57,0.01,,---,1.39,VWS V14.01,2013-05-19 19:41:00,
2013-05-19 14:42:00,76.7,59.8,29.61,SSW,212,60.0,60.0,56,0.01,,---,1.39,VWS V14.01,2013-05-19 19:42:00,
2013-05-19 14:43:00,76.7,59.8,29.61,South,171,60.0,60.0,56,0.01,,---,1.39,VWS V14.01,2013-05-19 19:43:00,
2013-05-19 14:44:00,76.7,59.8,29.61,South,178,60.0,60.0,56,0.01,,---,1.39,VWS V14.01,2013-05-19 19:44:00,
2013-05-19 14:45:00,76.7,60.3,29.61,SSE,160,60.0,60.0,57,0.01,,---,1.39,VWS V14.01,2013-05-19 19:45:00,
2013-05-19 14:46:00,76.7,59.8,29.61,SSW,203,60.0,60.0,56,0.01,,---,1.39,VWS V14.01,2013-05-19 19:46:00,
2013-05-19 14:47:00,76.7,59.8,29.61,South,169,60.0,60.0,56,0.01,,---,1.39,VWS V14.01,2013-05-19 19:47:00,
2013-05-19 14:48:00,76.7,59.8,29.61,South,169,60.0,60.0,56,0.01,,---,1.39,VWS V14.01,2013-05-19 19:48:00,
2013-05-19 14:49:00,76.8,59.9,29.61,SSE,168,60.0,60.0,56,0.01,,---,1.39,VWS V14.01,2013-05-19 19:49:00,
2013-05-19 14:50:00,76.8,59.9,29.61,SSE,152,60.0,60.0,56,0.01,,---,1.39,VWS V14.01,2013-05-19 19:50:00,
2013-05-19 14:51:00,76.8,59.9,29.61,SSW,193,60.0,60.0,56,0.01,,---,1.39,VWS V14.01,2013-05-19 19:51:00,
2013-05-19 14:52:00,76.8,59.4,29.61,SSW,200,60.0,60.0,55,0.01,,---,1.39,VWS V14.01,2013-05-19 19:52:00,
2013-05-19 14:53:00,77.0,60.1,29.61,South,175,60.0,60.0,56,0.01,,---,1.39,VWS V14.01,2013-05-19 19:53:00,
2013-05-19 14:54:00,77.0,59.1,29.61,SSW,195,60.0,60.0,54,0.01,,---,1.39,VWS V14.01,2013-05-19 19:54:00,
2013-05-19 14:55:00,77.0,60.1,29.61,South,174,60.0,60.0,56,0.01,,---,1.39,VWS V14.01,2013-05-19 19:55:00,
2013-05-19 14:56:00,77.0,59.6,29.61,SSE,152,60.0,60.0,55,0.01,,---,1.39,VWS V14.01,2013-05-19 19:56:00,
2013-05-19 14:57:00,77.0,60.1,29.61,South,171,60.0,60.0,56,0.01,,---,1.39,VWS V14.01,2013-05-19 19:57:00,
2013-05-19 14:58:00,77.0,59.6,29.61,SW,223,60.0,60.0,55,0.01,,---,1.39,VWS V14.01,2013-05-19 19:58:00,
2013-05-19 14:59:00,76.8,59.4,29.61,South,186,60.0,60.0,55,0.01,,---,1.39,VWS V14.01,2013-05-19 19:59:00,
2013-05-19 15:00:00,76.8,58.9,29.61,South,172,60.0,60.0,54,0.01,,---,1.39,VWS V14.01,2013-05-19 20:00:00,
2013-05-19 15:01:00,77.0,59.6,29.61,South,171,60.0,60.0,55,0.00,,---,1.39,VWS V14.01,2013-05-19 20:01:00,
2013-05-19 15:02:00,77.0,60.1,29.61,SSE,155,60.0,60.0,56,0.00,,---,1.39,VWS V14.01,2013-05-19 20:02:00,
2013-05-19 15:03:00,77.0,59.6,29.61,SW,217,60.0,60.0,55,0.00,,---,1.39,VWS V14.01,2013-05-19 20:03:00,
2013-05-19 15:04:00,77.0,59.6,29.61,SW,236,60.0,60.0,55,0.00,,---,1.39,VWS V14.01,2013-05-19 20:04:00,
2013-05-19 15:05:00,77.2,59.8,29.61,South,176,60.0,60.0,55,0.00,,---,1.39,VWS V14.01,2013-05-19 20:05:00,
2013-05-19 15:06:00,77.0,59.6,29.61,SE,145,60.0,60.0,55,0.00,,---,1.39,VWS V14.01,2013-05-19 20:06:00,
2013-05-19 15:07:00,77.0,60.1,29.61,South,176,60.0,60.0,56,0.00,,---,1.39,VWS V14.01,2013-05-19 20:07:00,
2013-05-19 15:08:00,77.0,60.6,29.61,South,191,60.0,60.0,57,0.00,,---,1.39,VWS V14.01,2013-05-19 20:08:00,
2013-05-19 15:10:00,77.0,62.5,29.61,SW,215,60.0,60.0,61,0.00,,---,1.39,VWS V14.01,2013-05-19 20:10:00,
2013-05-19 15:11:00,76.8,59.9,29.61,SSW,200,60.0,60.0,56,0.00,,---,1.39,VWS V14.01,2013-05-19 20:11:00,
2013-05-19 15:12:00,76.8,59.9,29.61,South,175,60.0,60.0,56,0.00,,---,1.39,VWS V14.01,2013-05-19 20:12:00,
2013-05-19 15:13:00,76.8,60.4,29.61,South,191,60.0,60.0,57,0.00,,---,1.39,VWS V14.01,2013-05-19 20:13:00,
2013-05-19 15:14:00,76.8,60.4,29.61,SSE,158,60.0,60.0,57,0.00,,---,1.39,VWS V14.01,2013-05-19 20:14:00,
2013-05-19 15:15:00,76.8,60.4,29.61,South,178,60.0,60.0,57,0.00,,---,1.39,VWS V14.01,2013-05-19 20:15:00,
2013-05-19 15:16:00,76.8,59.9,29.61,SSE,148,60.0,60.0,56,0.00,,---,1.39,VWS V14.01,2013-05-19 20:16:00,
2013-05-19 15:17:00,76.8,60.4,29.61,South,186,60.0,60.0,57,0.00,,---,1.39,VWS V14.01,2013-05-19 20:17:00,
2013-05-19 15:18:00,77.0,60.6,29.61,SSE,155,60.0,60.0,57,0.00,,---,1.39,VWS V14.01,2013-05-19 20:18:00,
2013-05-19 15:19:00,77.0,61.1,29.61,SSE,164,60.0,60.0,58,0.00,,---,1.39,VWS V14.01,2013-05-19 20:19:00,
2013-05-19 15:20:00,77.0,60.1,29.61,SSE,158,60.0,60.0,56,0.00,,---,1.39,VWS V14.01,2013-05-19 20:20:00,
2013-05-19 15:21:00,76.8,59.4,29.61,South,182,60.0,60.0,55,0.00,,---,1.39,VWS V14.01,2013-05-19 20:21:00,
2013-05-19 15:22:00,76.7,59.8,29.61,South,172,60.0,60.0,56,0.00,,---,1.39,VWS V14.01,2013-05-19 20:22:00,
2013-05-19 15:24:00,76.8,59.9,29.61,SSE,168,60.0,60.0,56,0.00,,---,1.39,VWS V14.01,2013-05-19 20:24:00,
2013-05-19 15:25:00,76.8,59.4,29.61,South,189,60.0,60.0,55,0.00,,---,1.39,VWS V14.01,2013-05-19 20:25:00,
2013-05-19 15:26:00,76.8,59.4,29.61,South,189,60.0,60.0,55,0.00,,---,1.39,VWS V14.01,2013-05-19 20:26:00,
2013-05-19 15:27:00,76.8,58.9,29.61,SSW,199,60.0,60.0,54,0.00,,---,1.39,VWS V14.01,2013-05-19 20:27:00,
2013-05-19 15:28:00,76.8,59.4,29.61,South,171,60.0,60.0,55,0.00,,---,1.39,VWS V14.01,2013-05-19 20:28:00,
2013-05-19 15:29:00,76.8,59.4,29.61,SSE,155,60.0,60.0,55,0.00,,---,1.39,VWS V14.01,2013-05-19 20:29:00,
2013-05-19 15:30:00,76.8,59.4,29.62,South,174,60.0,60.0,55,0.00,,---,1.39,VWS V14.01,2013-05-19 20:30:00,
2013-05-19 15:31:00,77.0,60.6,29.62,SSE,154,60.0,60.0,57,0.00,,---,1.39,VWS V14.01,2013-05-19 20:31:00,
2013-05-19 15:32:00,77.0,60.1,29.62,SSE,155,60.0,60.0,56,0.00,,---,1.39,VWS V14.01,2013-05-19 20:32:00,
2013-05-19 15:33:00,77.0,60.1,29.62,South,169,60.0,60.0,56,0.00,,---,1.39,VWS V14.01,2013-05-19 20:33:00,
2013-05-19 15:34:00,77.0,60.1,29.62,South,179,60.0,60.0,56,0.00,,---,1.39,VWS V14.01,2013-05-19 20:34:00,
2013-05-19 15:35:00,76.8,59.9,29.62,South,182,60.0,60.0,56,0.00,,---,1.39,VWS V14.01,2013-05-19 20:35:00,
2013-05-19 15:36:00,76.8,59.9,29.62,SW,215,60.0,60.0,56,0.00,,---,1.39,VWS V14.01,2013-05-19 20:36:00,
2013-05-19 15:37:00,76.8,60.4,29.62,SSE,167,60.0,60.0,57,0.00,,---,1.39,VWS V14.01,2013-05-19 20:37:00,
2013-05-19 15:38:00,76.8,60.4,29.62,SSW,209,60.0,60.0,57,0.00,,---,1.39,VWS V14.01,2013-05-19 20:38:00,
2013-05-19 15:39:00,77.0,61.6,29.62,South,179,60.0,60.0,59,0.00,,---,1.39,VWS V14.01,2013-05-19 20:39:00,
2013-05-19 15:40:00,77.0,60.6,29.62,SSW,196,60.0,60.0,57,0.00,,---,1.39,VWS V14.01,2013-05-19 20:40:00,
2013-05-19 15:41:00,77.0,60.1,29.62,South,169,60.0,60.0,56,0.00,,---,1.39,VWS V14.01,2013-05-19 20:41:00,
2013-05-19 15:42:00,77.0,60.1,29.62,South,169,60.0,60.0,56,0.00,,---,1.39,VWS V14.01,2013-05-19 20:42:00,
2013-05-19 15:43:00,77.0,60.6,29.62,SSE,164,60.0,60.0,57,0.00,,---,1.39,VWS V14.01,2013-05-19 20:43:00,
2013-05-19 15:44:00,77.0,61.1,29.62,South,186,60.0,60.0,58,0.00,,---,1.39,VWS V14.01,2013-05-19 20:44:00,
2013-05-19 15:45:00,77.2,60.3,29.62,South,188,60.0,60.0,56,0.00,,---,1.39,VWS V14.01,2013-05-19 20:45:00,
2013-05-19 15:46:00,77.2,60.8,29.62,South,189,60.0,60.0,57,0.00,,---,1.39,VWS V14.01,2013-05-19 20:46:00,
2013-05-19 15:47:00,77.2,60.3,29.62,South,174,60.0,60.0,56,0.00,,---,1.39,VWS V14.01,2013-05-19 20:47:00,
2013-05-19 15:48:00,77.2,60.3,29.62,SW,217,60.0,60.0,56,0.00,,---,1.39,VWS V14.01,2013-05-19 20:48:00,
2013-05-19 15:49:00,77.2,59.8,29.62,South,188,60.0,60.0,55,0.00,,---,1.39,VWS V14.01,2013-05-19 20:49:00,
2013-05-19 15:50:00,77.0,59.6,29.62,South,169,60.0,60.0,55,0.00,,---,1.39,VWS V14.01,2013-05-19 20:50:00,
2013-05-19 15:51:00,76.8,60.4,29.62,SSW,193,60.0,60.0,57,0.00,,---,1.39,VWS V14.01,2013-05-19 20:51:00,
2013-05-19 15:52:00,76.7,59.8,29.62,SSE,158,60.0,60.0,56,0.00,,---,1.39,VWS V14.01,2013-05-19 20:52:00,
2013-05-19 15:53:00,76.5,60.2,29.62,SSE,155,60.0,60.0,57,0.00,,---,1.39,VWS V14.01,2013-05-19 20:53:00,
2013-05-19 15:54:00,76.3,60.0,29.62,SSE,165,60.0,60.0,57,0.00,,---,1.39,VWS V14.01,2013-05-19 20:54:00,
2013-05-19 15:55:00,76.1,59.3,29.62,SSW,192,60.0,60.0,56,0.00,,---,1.39,VWS V14.01,2013-05-19 20:55:00,
2013-05-19 15:56:00,76.1,59.3,29.62,South,188,60.0,60.0,56,0.00,,---,1.39,VWS V14.01,2013-05-19 20:56:00,
2013-05-19 15:57:00,76.0,59.2,29.62,SSE,158,60.0,60.0,56,0.00,,---,1.39,VWS V14.01,2013-05-19 20:57:00,
2013-05-19 15:58:00,76.0,59.2,29.62,South,178,60.0,60.0,56,0.00,,---,1.39,VWS V14.01,2013-05-19 20:58:00,
2013-05-19 15:59:00,75.8,59.5,29.62,South,174,60.0,60.0,57,0.00,,---,1.39,VWS V14.01,2013-05-19 20:59:00,
2013-05-19 16:00:00,75.8,59.5,29.62,SSE,165,60.0,60.0,57,0.00,,---,1.39,VWS V14.01,2013-05-19 21:00:00,
2013-05-19 16:01:00,75.8,59.5,29.62,South,184,60.0,60.0,57,0.00,,---,1.39,VWS V14.01,2013-05-19 21:01:00,
2013-05-19 16:02:00,75.8,59.5,29.62,South,184,60.0,60.0,57,0.00,,---,1.39,VWS V14.01,2013-05-19 21:02:00,
2013-05-19 16:03:00,75.8,60.0,29.62,South,169,60.0,60.0,58,0.00,,---,1.39,VWS V14.01,2013-05-19 21:03:00,
2013-05-19 16:04:00,76.0,60.2,29.62,SSE,168,60.0,60.0,58,0.00,,---,1.39,VWS V14.01,2013-05-19 21:04:00,
2013-05-19 16:05:00,76.1,59.8,29.62,South,191,60.0,60.0,57,0.00,,---,1.39,VWS V14.01,2013-05-19 21:05:00,
2013-05-19 16:06:00,76.1,59.8,29.62,South,172,60.0,60.0,57,0.00,,---,1.39,VWS V14.01,2013-05-19 21:06:00,
2013-05-19 16:07:00,76.3,60.0,29.62,SSE,161,60.0,60.0,57,0.00,,---,1.39,VWS V14.01,2013-05-19 21:07:00,
2013-05-19 16:08:00,76.3,60.0,29.62,SSW,212,60.0,60.0,57,0.00,,---,1.39,VWS V14.01,2013-05-19 21:08:00,
2013-05-19 16:09:00,76.3,60.0,29.62,South,186,60.0,60.0,57,0.00,,---,1.39,VWS V14.01,2013-05-19 21:09:00,
2013-05-19 16:10:00,76.3,60.0,29.62,SW,222,60.0,60.0,57,0.00,,---,1.39,VWS V14.01,2013-05-19 21:10:00,
2013-05-19 16:11:00,76.1,60.3,29.62,SW,217,60.0,60.0,58,0.00,,---,1.39,VWS V14.01,2013-05-19 21:11:00,
2013-05-19 16:12:00,76.1,60.3,29.62,SSE,158,60.0,60.0,58,0.00,,---,1.39,VWS V14.01,2013-05-19 21:12:00,
2013-05-19 16:13:00,76.1,59.3,29.62,South,176,60.0,60.0,56,0.00,,---,1.39,VWS V14.01,2013-05-19 21:13:00,
2013-05-19 16:14:00,76.0,59.7,29.62,SW,215,60.0,60.0,57,0.00,,---,1.39,VWS V14.01,2013-05-19 21:14:00,
2013-05-19 16:15:00,75.8,59.5,29.63,South,171,60.0,60.0,57,0.00,,---,1.39,VWS V14.01,2013-05-19 21:15:00,
2013-05-19 16:16:00,75.8,60.5,29.63,SSW,210,60.0,60.0,59,0.00,,---,1.39,VWS V14.01,2013-05-19 21:16:00,
2013-05-19 16:17:00,75.6,59.8,29.63,SW,215,60.0,60.0,58,0.00,,---,1.39,VWS V14.01,2013-05-19 21:17:00,
2013-05-19 16:18:00,75.6,59.8,29.63,SW,217,60.0,60.0,58,0.00,,---,1.39,VWS V14.01,2013-05-19 21:18:00,
2013-05-19 16:19:00,75.6,60.3,29.63,SW,222,60.0,60.0,59,0.00,,---,1.39,VWS V14.01,2013-05-19 21:19:00,
2013-05-19 16:20:00,75.4,60.1,29.63,SSW,192,60.0,60.0,59,0.00,,---,1.39,VWS V14.01,2013-05-19 21:20:00,
2013-05-19 16:21:00,75.4,60.1,29.63,SSW,193,60.0,60.0,59,0.00,,---,1.39,VWS V14.01,2013-05-19 21:21:00,
2013-05-19 16:22:00,75.3,60.0,29.63,SSE,152,60.0,60.0,59,0.00,,---,1.39,VWS V14.01,2013-05-19 21:22:00,
2013-05-19 16:23:00,75.3,60.0,29.63,SW,224,60.0,60.0,59,0.00,,---,1.39,VWS V14.01,2013-05-19 21:23:00,
2013-05-19 16:24:00,75.3,60.0,29.63,SW,226,60.0,60.0,59,0.00,,---,1.39,VWS V14.01,2013-05-19 21:24:00,
2013-05-19 16:25:00,75.3,60.0,29.63,SSW,192,60.0,60.0,59,0.00,,---,1.39,VWS V14.01,2013-05-19 21:25:00,
2013-05-19 16:26:00,75.4,60.6,29.63,SW,227,60.0,60.0,60,0.00,,---,1.39,VWS V14.01,2013-05-19 21:26:00,
2013-05-19 16:27:00,75.4,60.1,29.63,SSW,192,60.0,60.0,59,0.00,,---,1.39,VWS V14.01,2013-05-19 21:27:00,
2013-05-19 16:28:00,75.3,60.0,29.63,SW,220,60.0,60.0,59,0.00,,---,1.39,VWS V14.01,2013-05-19 21:28:00,
2013-05-19 16:29:00,75.4,60.1,29.62,SW,217,60.0,60.0,59,0.00,,---,1.39,VWS V14.01,2013-05-19 21:29:00,
2013-05-19 16:30:00,75.4,60.6,29.62,SW,216,60.0,60.0,60,0.00,,---,1.39,VWS V14.01,2013-05-19 21:30:00,
2013-05-19 16:31:00,75.4,59.6,29.62,SW,222,60.0,60.0,58,0.00,,---,1.39,VWS V14.01,2013-05-19 21:31:00,
2013-05-19 16:32:00,75.4,59.6,29.62,SSW,206,60.0,60.0,58,0.00,,---,1.39,VWS V14.01,2013-05-19 21:32:00,
2013-05-19 16:33:00,75.4,60.1,29.62,SSW,205,60.0,60.0,59,0.00,,---,1.39,VWS V14.01,2013-05-19 21:33:00,
2013-05-19 16:34:00,75.4,60.1,29.62,SW,217,60.0,60.0,59,0.00,,---,1.39,VWS V14.01,2013-05-19 21:34:00,
2013-05-19 16:35:00,75.3,59.5,29.62,SW,232,60.0,60.0,58,0.00,,---,1.39,VWS V14.01,2013-05-19 21:35:00,
2013-05-19 16:36:00,75.3,60.0,29.62,SW,219,60.0,60.0,59,0.00,,---,1.39,VWS V14.01,2013-05-19 21:36:00,
2013-05-19 16:37:00,75.3,60.0,29.62,SSW,202,60.0,60.0,59,0.00,,---,1.39,VWS V14.01,2013-05-19 21:37:00,
2013-05-19 16:38:00,75.3,60.0,29.62,South,191,60.0,60.0,59,0.00,,---,1.39,VWS V14.01,2013-05-19 21:38:00,
2013-05-19 16:39:00,75.3,60.0,29.62,SSW,206,60.0,60.0,59,0.00,,---,1.39,VWS V14.01,2013-05-19 21:39:00,
2013-05-19 16:40:00,75.3,59.5,29.62,SSW,198,60.0,60.0,58,0.00,,---,1.39,VWS V14.01,2013-05-19 21:40:00,
2013-05-19 16:41:00,75.3,59.5,29.62,SSW,195,60.0,60.0,58,0.00,,---,1.39,VWS V14.01,2013-05-19 21:41:00,
2013-05-19 16:42:00,75.1,59.3,29.62,SSW,200,60.0,60.0,58,0.00,,---,1.39,VWS V14.01,2013-05-19 21:42:00,
2013-05-19 16:43:00,75.1,59.3,29.62,SSW,205,60.0,60.0,58,0.00,,---,1.39,VWS V14.01,2013-05-19 21:43:00,
2013-05-19 16:44:00,75.1,59.3,29.62,South,176,60.0,60.0,58,0.00,,---,1.39,VWS V14.01,2013-05-19 21:44:00,
2013-05-19 16:45:00,75.1,59.3,29.62,South,186,60.0,60.0,58,0.00,,---,1.39,VWS V14.01,2013-05-19 21:45:00,
2013-05-19 16:47:00,75.1,59.3,29.62,SSW,196,60.0,60.0,58,0.00,,---,1.39,VWS V14.01,2013-05-19 21:47:00,
2013-05-19 16:48:00,75.3,59.5,29.62,SSE,164,60.0,60.0,58,0.00,,---,1.39,VWS V14.01,2013-05-19 21:48:00,
2013-05-19 16:49:00,75.3,59.5,29.62,SSW,209,60.0,60.0,58,0.00,,---,1.39,VWS V14.01,2013-05-19 21:49:00,
2013-05-19 16:50:00,75.4,59.6,29.62,SSE,155,60.0,60.0,58,0.00,,---,1.39,VWS V14.01,2013-05-19 21:50:00,
2013-05-19 16:51:00,75.4,59.1,29.62,SSW,193,60.0,60.0,57,0.00,,---,1.39,VWS V14.01,2013-05-19 21:51:00,
2013-05-19 16:52:00,75.4,59.1,29.62,SSE,152,60.0,60.0,57,0.00,,---,1.39,VWS V14.01,2013-05-19 21:52:00,
2013-05-19 16:53:00,75.4,58.6,29.62,South,191,60.0,60.0,56,0.00,,---,1.39,VWS V14.01,2013-05-19 21:53:00,
2013-05-19 16:54:00,75.3,59.0,29.62,SW,217,60.0,60.0,57,0.00,,---,1.39,VWS V14.01,2013-05-19 21:54:00,
2013-05-19 16:55:00,75.4,59.6,29.62,SW,217,60.0,60.0,58,0.00,,---,1.39,VWS V14.01,2013-05-19 21:55:00,
2013-05-19 16:56:00,75.4,58.6,29.62,SW,220,60.0,60.0,56,0.00,,---,1.39,VWS V14.01,2013-05-19 21:56:00,
2013-05-19 16:57:00,75.4,59.6,29.62,SSW,196,60.0,60.0,58,0.00,,---,1.39,VWS V14.01,2013-05-19 21:57:00,
2013-05-19 16:58:00,75.3,58.5,29.62,SSW,203,60.0,60.0,56,0.00,,---,1.39,VWS V14.01,2013-05-19 21:58:00,
2013-05-19 16:59:00,75.3,58.5,29.62,South,191,60.0,60.0,56,0.00,,---,1.39,VWS V14.01,2013-05-19 21:59:00,
2013-05-19 17:00:00,75.3,58.5,29.62,South,186,60.0,60.0,56,0.00,,---,1.39,VWS V14.01,2013-05-19 22:00:00,
2013-05-19 17:01:00,75.3,58.5,29.62,South,181,60.0,60.0,56,0.00,,---,1.39,VWS V14.01,2013-05-19 22:01:00,
2013-05-19 17:02:00,75.1,58.8,29.62,SSE,167,60.0,60.0,57,0.00,,---,1.39,VWS V14.01,2013-05-19 22:02:00,
2013-05-19 17:03:00,75.1,58.8,29.62,SSW,212,60.0,60.0,57,0.00,,---,1.39,VWS V14.01,2013-05-19 22:03:00,
2013-05-19 17:04:00,75.1,58.8,29.62,SSW,200,60.0,60.0,57,0.00,,---,1.39,VWS V14.01,2013-05-19 22:04:00,
2013-05-19 17:05:00,75.1,58.3,29.62,SSW,192,60.0,60.0,56,0.00,,---,1.39,VWS V14.01,2013-05-19 22:05:00,
2013-05-19 17:06:00,75.1,57.8,29.62,South,185,60.0,60.0,55,0.00,,---,1.39,VWS V14.01,2013-05-19 22:06:00,
2013-05-19 17:07:00,75.1,58.3,29.62,South,181,60.0,60.0,56,0.00,,---,1.39,VWS V14.01,2013-05-19 22:07:00,
2013-05-19 17:08:00,75.1,58.3,29.62,SSW,202,60.0,60.0,56,0.00,,---,1.39,VWS V14.01,2013-05-19 22:08:00,
2013-05-19 17:09:00,75.1,58.3,29.62,SSE,158,60.0,60.0,56,0.00,,---,1.39,VWS V14.01,2013-05-19 22:09:00,
2013-05-19 17:10:00,75.1,57.8,29.62,South,185,60.0,60.0,55,0.00,,---,1.39,VWS V14.01,2013-05-19 22:10:00,
2013-05-19 17:11:00,75.1,57.8,29.62,SSE,158,60.0,60.0,55,0.00,,---,1.39,VWS V14.01,2013-05-19 22:11:00,
2013-05-19 17:12:00,75.1,57.8,29.62,South,186,60.0,60.0,55,0.00,,---,1.39,VWS V14.01,2013-05-19 22:12:00,
2013-05-19 17:13:00,75.1,57.8,29.62,SSW,198,60.0,60.0,55,0.00,,---,1.39,VWS V14.01,2013-05-19 22:13:00,
2013-05-19 17:14:00,75.1,56.8,29.61,South,188,60.0,60.0,53,0.00,,---,1.39,VWS V14.01,2013-05-19 22:14:00,
2013-05-19 17:15:00,75.1,58.3,29.61,South,188,60.0,60.0,56,0.00,,---,1.39,VWS V14.01,2013-05-19 22:15:00,
2013-05-19 17:16:00,75.3,58.0,29.61,South,188,60.0,60.0,55,0.00,,---,1.39,VWS V14.01,2013-05-19 22:16:00,
2013-05-19 17:17:00,75.3,58.5,29.61,SSE,168,60.0,60.0,56,0.00,,---,1.39,VWS V14.01,2013-05-19 22:17:00,
2013-05-19 17:18:00,75.3,58.5,29.61,South,181,60.0,60.0,56,0.00,,---,1.39,VWS V14.01,2013-05-19 22:18:00,
2013-05-19 17:19:00,75.3,57.0,29.61,SSW,199,60.0,60.0,53,0.00,,---,1.39,VWS V14.01,2013-05-19 22:19:00,
2013-05-19 17:20:00,75.1,56.8,29.61,South,169,60.0,60.0,53,0.00,,---,1.39,VWS V14.01,2013-05-19 22:20:00,
2013-05-19 17:21:00,75.1,57.3,29.61,South,182,60.0,60.0,54,0.00,,---,1.39,VWS V14.01,2013-05-19 22:21:00,
2013-05-19 17:22:00,75.3,58.0,29.61,South,176,60.0,60.0,55,0.00,,---,1.39,VWS V14.01,2013-05-19 22:22:00,
2013-05-19 17:23:00,75.3,58.0,29.61,South,174,60.0,60.0,55,0.00,,---,1.39,VWS V14.01,2013-05-19 22:23:00,
2013-05-19 17:24:00,75.3,57.5,29.61,SSE,155,60.0,60.0,54,0.00,,---,1.39,VWS V14.01,2013-05-19 22:24:00,
2013-05-19 17:25:00,75.3,57.0,29.61,SSE,157,60.0,60.0,53,0.00,,---,1.39,VWS V14.01,2013-05-19 22:25:00,
2013-05-19 17:26:00,75.3,56.5,29.61,South,189,60.0,60.0,52,0.00,,---,1.39,VWS V14.01,2013-05-19 22:26:00,
2013-05-19 17:27:00,75.1,56.3,29.61,SSE,160,60.0,60.0,52,0.00,,---,1.39,VWS V14.01,2013-05-19 22:27:00,
2013-05-19 17:28:00,75.1,56.8,29.61,South,185,60.0,60.0,53,0.00,,---,1.39,VWS V14.01,2013-05-19 22:28:00,
2013-05-19 17:29:00,75.1,56.3,29.62,SSW,199,60.0,60.0,52,0.00,,---,1.39,VWS V14.01,2013-05-19 22:29:00,
2013-05-19 17:30:00,75.1,56.8,29.62,SSW,202,60.0,60.0,53,0.00,,---,1.39,VWS V14.01,2013-05-19 22:30:00,
2013-05-19 17:31:00,75.1,56.3,29.62,SSW,213,60.0,60.0,52,0.00,,---,1.39,VWS V14.01,2013-05-19 22:31:00,
2013-05-19 17:32:00,75.1,56.3,29.62,SSE,162,60.0,60.0,52,0.00,,---,1.39,VWS V14.01,2013-05-19 22:32:00,
2013-05-19 17:33:00,75.1,56.3,29.62,South,172,60.0,60.0,52,0.00,,---,1.39,VWS V14.01,2013-05-19 22:33:00,
2013-05-19 17:34:00,75.1,56.8,29.62,SSE,168,60.0,60.0,53,0.00,,---,1.39,VWS V14.01,2013-05-19 22:34:00,
2013-05-19 17:35:00,75.1,56.8,29.62,South,171,60.0,60.0,53,0.00,,---,1.39,VWS V14.01,2013-05-19 22:35:00,
2013-05-19 17:36:00,75.1,56.8,29.62,SSE,162,60.0,60.0,53,0.00,,---,1.39,VWS V14.01,2013-05-19 22:36:00,
2013-05-19 17:37:00,74.9,56.6,29.62,South,176,60.0,60.0,53,0.00,,---,1.39,VWS V14.01,2013-05-19 22:37:00,
2013-05-19 17:38:00,74.9,56.6,29.62,SSE,161,60.0,60.0,53,0.00,,---,1.39,VWS V14.01,2013-05-19 22:38:00,
2013-05-19 17:39:00,74.9,56.6,29.62,SSE,164,60.0,60.0,53,0.00,,---,1.39,VWS V14.01,2013-05-19 22:39:00,
2013-05-19 17:40:00,74.9,57.2,29.62,SSE,167,60.0,60.0,54,0.00,,---,1.39,VWS V14.01,2013-05-19 22:40:00,
2013-05-19 17:41:00,74.9,57.2,29.62,South,189,60.0,60.0,54,0.00,,---,1.39,VWS V14.01,2013-05-19 22:41:00,
2013-05-19 17:42:00,74.9,56.6,29.62,South,182,60.0,60.0,53,0.00,,---,1.39,VWS V14.01,2013-05-19 22:42:00,
2013-05-19 17:43:00,74.7,57.0,29.62,SSE,167,60.0,60.0,54,0.00,,---,1.39,VWS V14.01,2013-05-19 22:43:00,
2013-05-19 17:44:00,74.7,56.5,29.61,South,185,60.0,60.0,53,0.00,,---,1.39,VWS V14.01,2013-05-19 22:44:00,
2013-05-19 17:45:00,74.7,57.0,29.61,South,181,60.0,60.0,54,0.00,,---,1.39,VWS V14.01,2013-05-19 22:45:00,
2013-05-19 17:46:00,74.6,56.9,29.61,SSE,162,60.0,60.0,54,0.00,,---,1.39,VWS V14.01,2013-05-19 22:46:00,
2013-05-19 17:47:00,74.6,56.9,29.61,SSE,165,60.0,60.0,54,0.00,,---,1.39,VWS V14.01,2013-05-19 22:47:00,
2013-05-19 17:48:00,74.6,56.9,29.61,South,181,60.0,60.0,54,0.00,,---,1.39,VWS V14.01,2013-05-19 22:48:00,
2013-05-19 17:49:00,74.6,57.4,29.61,SSW,198,60.0,60.0,55,0.00,,---,1.39,VWS V14.01,2013-05-19 22:49:00,
2013-05-19 17:50:00,74.4,56.7,29.61,South,172,60.0,60.0,54,0.00,,---,1.39,VWS V14.01,2013-05-19 22:50:00,
2013-05-19 17:51:00,74.4,56.7,29.61,South,172,60.0,60.0,54,0.00,,---,1.39,VWS V14.01,2013-05-19 22:51:00,
2013-05-19 17:52:00,74.4,57.2,29.61,South,172,60.0,60.0,55,0.00,,---,1.39,VWS V14.01,2013-05-19 22:52:00,
2013-05-19 17:53:00,74.4,57.2,29.61,South,182,60.0,60.0,55,0.00,,---,1.39,VWS V14.01,2013-05-19 22:53:00,
2013-05-19 17:54:00,74.4,57.7,29.61,South,182,60.0,60.0,56,0.00,,---,1.39,VWS V14.01,2013-05-19 22:54:00,
2013-05-19 17:55:00,74.4,57.7,29.61,SSE,155,60.0,60.0,56,0.00,,---,1.39,VWS V14.01,2013-05-19 22:55:00,
2013-05-19 17:56:00,74.4,56.7,29.61,SSE,162,60.0,60.0,54,0.00,,---,1.39,VWS V14.01,2013-05-19 22:56:00,
2013-05-19 17:57:00,74.4,57.2,29.61,South,171,60.0,60.0,55,0.00,,---,1.39,VWS V14.01,2013-05-19 22:57:00,
2013-05-19 17:58:00,74.4,57.2,29.61,South,182,60.0,60.0,55,0.00,,---,1.39,VWS V14.01,2013-05-19 22:58:00,
2013-05-19 17:59:00,74.4,57.7,29.61,South,185,60.0,60.0,56,0.00,,---,1.39,VWS V14.01,2013-05-19 22:59:00,
2013-05-19 18:00:00,74.4,57.2,29.61,South,176,60.0,60.0,55,0.00,,---,1.39,VWS V14.01,2013-05-19 23:00:00,
2013-05-19 18:01:00,74.4,57.7,29.61,SSW,200,60.0,60.0,56,0.00,,---,1.39,VWS V14.01,2013-05-19 23:01:00,
2013-05-19 18:02:00,74.4,57.2,29.61,SSE,162,60.0,60.0,55,0.00,,---,1.39,VWS V14.01,2013-05-19 23:02:00,
2013-05-19 18:03:00,74.2,57.0,29.61,SSE,168,60.0,60.0,55,0.00,,---,1.39,VWS V14.01,2013-05-19 23:03:00,
2013-05-19 18:04:00,74.2,57.5,29.61,South,171,60.0,60.0,56,0.00,,---,1.39,VWS V14.01,2013-05-19 23:04:00,
2013-05-19 18:05:00,74.2,57.5,29.61,South,171,60.0,60.0,56,0.00,,---,1.39,VWS V14.01,2013-05-19 23:05:00,
2013-05-19 18:06:00,74.4,57.7,29.61,SSW,196,60.0,60.0,56,0.00,,---,1.39,VWS V14.01,2013-05-19 23:06:00,
2013-05-19 18:07:00,74.4,58.2,29.61,SSW,195,60.0,60.0,57,0.00,,---,1.39,VWS V14.01,2013-05-19 23:07:00,
2013-05-19 18:08:00,74.4,57.7,29.61,South,174,60.0,60.0,56,0.00,,---,1.39,VWS V14.01,2013-05-19 23:08:00,
2013-05-19 18:09:00,74.4,57.7,29.61,South,191,60.0,60.0,56,0.00,,---,1.39,VWS V14.01,2013-05-19 23:09:00,
2013-05-19 18:10:00,74.4,57.7,29.61,SSE,165,60.0,60.0,56,0.00,,---,1.39,VWS V14.01,2013-05-19 23:10:00,
2013-05-19 18:11:00,74.4,57.7,29.61,SSE,165,60.0,60.0,56,0.00,,---,1.39,VWS V14.01,2013-05-19 23:11:00,
2013-05-19 18:12:00,74.4,57.7,29.61,SSW,199,60.0,60.0,56,0.00,,---,1.39,VWS V14.01,2013-05-19 23:12:00,
2013-05-19 18:13:00,74.4,57.7,29.61,South,184,60.0,60.0,56,0.00,,---,1.39,VWS V14.01,2013-05-19 23:13:00,
2013-05-19 18:14:00,74.4,57.7,29.61,South,178,60.0,60.0,56,0.00,,---,1.39,VWS V14.01,2013-05-19 23:14:00,
2013-05-19 18:15:00,74.4,57.2,29.61,South,179,60.0,60.0,55,0.00,,---,1.39,VWS V14.01,2013-05-19 23:15:00,
2013-05-19 18:16:00,74.4,57.7,29.61,South,171,60.0,60.0,56,0.00,,---,1.39,VWS V14.01,2013-05-19 23:16:00,
2013-05-19 18:17:00,74.4,57.2,29.61,SSW,208,60.0,60.0,55,0.00,,---,1.39,VWS V14.01,2013-05-19 23:17:00,
2013-05-19 18:18:00,74.4,57.7,29.61,SSW,198,60.0,60.0,56,0.00,,---,1.39,VWS V14.01,2013-05-19 23:18:00,
2013-05-19 18:19:00,74.4,57.7,29.61,SSW,196,60.0,60.0,56,0.00,,---,1.39,VWS V14.01,2013-05-19 23:19:00,
2013-05-19 18:20:00,74.4,57.7,29.61,SSW,198,60.0,60.0,56,0.00,,---,1.39,VWS V14.01,2013-05-19 23:20:00,
2013-05-19 18:21:00,74.6,57.9,29.61,SSW,198,60.0,60.0,56,0.00,,---,1.39,VWS V14.01,2013-05-19 23:21:00,
2013-05-19 18:22:00,74.6,57.9,29.61,SSW,199,60.0,60.0,56,0.00,,---,1.39,VWS V14.01,2013-05-19 23:22:00,
2013-05-19 18:23:00,74.6,57.9,29.61,SSW,199,60.0,60.0,56,0.00,,---,1.39,VWS V14.01,2013-05-19 23:23:00,
2013-05-19 18:24:00,74.6,57.9,29.61,South,189,60.0,60.0,56,0.00,,---,1.39,VWS V14.01,2013-05-19 23:24:00,
2013-05-19 18:25:00,74.4,57.2,29.61,South,188,60.0,60.0,55,0.00,,---,1.39,VWS V14.01,2013-05-19 23:25:00,
2013-05-19 18:26:00,74.4,57.7,29.61,South,188,60.0,60.0,56,0.00,,---,1.39,VWS V14.01,2013-05-19 23:26:00,
2013-05-19 18:27:00,74.4,57.7,29.61,South,188,60.0,60.0,56,0.00,,---,1.39,VWS V14.01,2013-05-19 23:27:00,
2013-05-19 18:28:00,74.4,58.2,29.61,South,188,60.0,60.0,57,0.00,,---,1.39,VWS V14.01,2013-05-19 23:28:00,
2013-05-19 18:29:00,74.4,57.7,29.61,South,188,60.0,60.0,56,0.00,,---,1.39,VWS V14.01,2013-05-19 23:29:00,
2013-05-19 18:30:00,74.4,58.2,29.61,South,188,60.0,60.0,57,0.00,,---,1.39,VWS V14.01,2013-05-19 23:30:00,
2013-05-19 18:31:00,74.4,58.2,29.61,South,188,60.0,60.0,57,0.00,,---,1.39,VWS V14.01,2013-05-19 23:31:00,
2013-05-19 18:32:00,74.4,57.7,29.61,South,176,60.0,60.0,56,0.00,,---,1.39,VWS V14.01,2013-05-19 23:32:00,
2013-05-19 18:33:00,74.4,57.7,29.61,South,178,60.0,60.0,56,0.00,,---,1.39,VWS V14.01,2013-05-19 23:33:00,
2013-05-19 18:34:00,74.2,57.5,29.61,South,178,60.0,60.0,56,0.00,,---,1.39,VWS V14.01,2013-05-19 23:34:00,
2013-05-19 18:35:00,74.2,57.0,29.61,SSE,157,60.0,60.0,55,0.00,,---,1.39,VWS V14.01,2013-05-19 23:35:00,
2013-05-19 18:36:00,74.2,57.5,29.61,SSW,192,60.0,60.0,56,0.00,,---,1.39,VWS V14.01,2013-05-19 23:36:00,
2013-05-19 18:37:00,74.2,57.5,29.61,SSW,193,60.0,60.0,56,0.00,,---,1.39,VWS V14.01,2013-05-19 23:37:00,
2013-05-19 18:38:00,74.2,57.5,29.61,SSW,193,60.0,60.0,56,0.00,,---,1.39,VWS V14.01,2013-05-19 23:38:00,
2013-05-19 18:39:00,74.2,57.0,29.61,SSW,195,60.0,60.0,55,0.00,,---,1.39,VWS V14.01,2013-05-19 23:39:00,
2013-05-19 18:40:00,74.2,57.0,29.61,SSW,193,60.0,60.0,55,0.00,,---,1.39,VWS V14.01,2013-05-19 23:40:00,
2013-05-19 18:41:00,74.2,57.0,29.61,South,182,60.0,60.0,55,0.00,,---,1.39,VWS V14.01,2013-05-19 23:41:00,
2013-05-19 18:42:00,74.2,56.5,29.61,SSE,152,60.0,60.0,54,0.00,,---,1.39,VWS V14.01,2013-05-19 23:42:00,
2013-05-19 18:43:00,74.2,56.5,29.61,SSW,199,60.0,60.0,54,0.00,,---,1.39,VWS V14.01,2013-05-19 23:43:00,
2013-05-19 18:44:00,74.2,56.5,29.61,SSW,198,60.0,60.0,54,0.00,,---,1.39,VWS V14.01,2013-05-19 23:44:00,
2013-05-19 18:45:00,74.2,56.5,29.61,SSW,198,60.0,60.0,54,0.00,,---,1.39,VWS V14.01,2013-05-19 23:45:00,
2013-05-19 18:46:00,74.2,56.5,29.61,SSW,199,60.0,60.0,54,0.00,,---,1.39,VWS V14.01,2013-05-19 23:46:00,
2013-05-19 18:47:00,74.2,56.5,29.61,SSW,199,60.0,60.0,54,0.00,,---,1.39,VWS V14.01,2013-05-19 23:47:00,
2013-05-19 18:48:00,74.2,56.5,29.61,SSW,199,60.0,60.0,54,0.00,,---,1.39,VWS V14.01,2013-05-19 23:48:00,
2013-05-19 18:49:00,74.2,56.5,29.61,South,184,60.0,60.0,54,0.00,,---,1.39,VWS V14.01,2013-05-19 23:49:00,
2013-05-19 18:50:00,74.2,57.0,29.61,South,184,60.0,60.0,55,0.00,,---,1.39,VWS V14.01,2013-05-19 23:50:00,
2013-05-19 18:51:00,74.2,56.5,29.61,South,184,60.0,60.0,54,0.00,,---,1.39,VWS V14.01,2013-05-19 23:51:00,
2013-05-19 18:52:00,74.2,57.0,29.61,South,184,60.0,60.0,55,0.00,,---,1.39,VWS V14.01,2013-05-19 23:52:00,
2013-05-19 18:53:00,74.2,57.0,29.61,South,184,60.0,60.0,55,0.00,,---,1.39,VWS V14.01,2013-05-19 23:53:00,
2013-05-19 18:54:00,74.2,57.0,29.61,South,184,60.0,60.0,55,0.00,,---,1.39,VWS V14.01,2013-05-19 23:54:00,
2013-05-19 18:55:00,74.2,56.5,29.61,South,184,60.0,60.0,54,0.00,,---,1.39,VWS V14.01,2013-05-19 23:55:00,
2013-05-19 18:56:00,74.2,57.5,29.61,South,184,60.0,60.0,56,0.00,,---,1.39,VWS V14.01,2013-05-19 23:56:00,
2013-05-19 18:57:00,74.2,57.5,29.61,South,184,60.0,60.0,56,0.00,,---,1.39,VWS V14.01,2013-05-19 23:57:00,
2013-05-19 18:58:00,74.2,57.0,29.61,South,184,60.0,60.0,55,0.00,,---,1.39,VWS V14.01,2013-05-19 23:58:00,
2013-05-19 18:59:00,74.2,57.0,29.61,South,184,60.0,60.0,55,0.00,,---,1.39,VWS V14.01,2013-05-19 23:59:00,
2013-05-19 19:00:00,74.2,57.0,29.61,South,184,60.0,60.0,55,0.00,,---,1.39,VWS V14.01,2013-05-20 00:00:00,
2013-05-19 19:01:00,74.2,56.5,29.61,South,184,60.0,60.0,54,0.00,,---,1.39,VWS V14.01,2013-05-20 00:01:00,
2013-05-19 19:02:00,74.2,57.0,29.61,South,184,60.0,60.0,55,0.00,,---,1.39,VWS V14.01,2013-05-20 00:02:00,
2013-05-19 19:03:00,74.2,57.0,29.61,South,184,60.0,60.0,55,0.00,,---,1.39,VWS V14.01,2013-05-20 00:03:00,
2013-05-19 19:04:00,74.2,56.5,29.61,South,184,60.0,60.0,54,0.00,,---,1.39,VWS V14.01,2013-05-20 00:04:00,
2013-05-19 19:05:00,74.2,57.0,29.61,South,184,60.0,60.0,55,0.00,,---,1.39,VWS V14.01,2013-05-20 00:05:00,
2013-05-19 19:06:00,74.2,57.0,29.61,South,184,60.0,60.0,55,0.00,,---,1.39,VWS V14.01,2013-05-20 00:06:00,
2013-05-19 19:07:00,74.2,57.0,29.61,South,184,60.0,60.0,55,0.00,,---,1.39,VWS V14.01,2013-05-20 00:07:00,
2013-05-19 19:08:00,74.2,56.5,29.61,South,184,60.0,60.0,54,0.00,,---,1.39,VWS V14.01,2013-05-20 00:08:00,
2013-05-19 19:09:00,74.2,57.0,29.61,South,184,60.0,60.0,55,0.00,,---,1.39,VWS V14.01,2013-05-20 00:09:00,
2013-05-19 19:10:00,74.2,57.0,29.61,South,184,60.0,60.0,55,0.00,,---,1.39,VWS V14.01,2013-05-20 00:10:00,
2013-05-19 19:11:00,74.2,57.0,29.61,South,184,60.0,60.0,55,0.00,,---,1.39,VWS V14.01,2013-05-20 00:11:00,
2013-05-19 19:12:00,74.2,57.0,29.61,South,184,60.0,60.0,55,0.00,,---,1.39,VWS V14.01,2013-05-20 00:12:00,
2013-05-19 19:13:00,74.2,56.5,29.61,South,184,60.0,60.0,54,0.00,,---,1.39,VWS V14.01,2013-05-20 00:13:00,
2013-05-19 19:14:00,74.2,57.0,29.61,South,184,60.0,60.0,55,0.00,,---,1.39,VWS V14.01,2013-05-20 00:14:00,
2013-05-19 19:15:00,74.2,57.0,29.62,South,184,60.0,60.0,55,0.00,,---,1.39,VWS V14.01,2013-05-20 00:15:00,
2013-05-19 19:16:00,74.2,56.5,29.62,South,184,60.0,60.0,54,0.00,,---,1.39,VWS V14.01,2013-05-20 00:16:00,
2013-05-19 19:17:00,74.2,57.0,29.62,South,184,60.0,60.0,55,0.00,,---,1.39,VWS V14.01,2013-05-20 00:17:00,
2013-05-19 19:18:00,74.2,56.5,29.62,South,184,60.0,60.0,54,0.00,,---,1.39,VWS V14.01,2013-05-20 00:18:00,
2013-05-19 19:19:00,74.4,57.2,29.62,South,184,60.0,60.0,55,0.00,,---,1.39,VWS V14.01,2013-05-20 00:19:00,
2013-05-19 19:20:00,74.4,57.7,29.62,South,184,60.0,60.0,56,0.00,,---,1.39,VWS V14.01,2013-05-20 00:20:00,
2013-05-19 19:21:00,74.2,57.0,29.62,South,184,60.0,60.0,55,0.00,,---,1.39,VWS V14.01,2013-05-20 00:21:00,
2013-05-19 19:22:00,74.2,57.0,29.62,South,184,60.0,60.0,55,0.00,,---,1.39,VWS V14.01,2013-05-20 00:22:00,
2013-05-19 19:23:00,74.2,57.0,29.62,South,184,60.0,60.0,55,0.00,,---,1.39,VWS V14.01,2013-05-20 00:23:00,
2013-05-19 19:24:00,74.2,57.0,29.62,South,184,60.0,60.0,55,0.00,,---,1.39,VWS V14.01,2013-05-20 00:24:00,
2013-05-19 19:25:00,74.2,57.0,29.62,South,184,60.0,60.0,55,0.00,,---,1.39,VWS V14.01,2013-05-20 00:25:00,
2013-05-19 19:26:00,74.2,56.5,29.62,South,172,60.0,60.0,54,0.00,,---,1.39,VWS V14.01,2013-05-20 00:26:00,
2013-05-19 19:27:00,74.2,56.5,29.62,South,172,60.0,60.0,54,0.00,,---,1.39,VWS V14.01,2013-05-20 00:27:00,
2013-05-19 19:28:00,74.2,56.5,29.62,South,172,60.0,60.0,54,0.00,,---,1.39,VWS V14.01,2013-05-20 00:28:00,
2013-05-19 19:29:00,74.0,56.8,29.62,SE,145,60.0,60.0,55,0.00,,---,1.39,VWS V14.01,2013-05-20 00:29:00,
2013-05-19 19:30:00,74.0,56.8,29.62,SE,145,60.0,60.0,55,0.00,,---,1.39,VWS V14.01,2013-05-20 00:30:00,
2013-05-19 19:31:00,74.0,56.8,29.62,SE,145,60.0,60.0,55,0.00,,---,1.39,VWS V14.01,2013-05-20 00:31:00,
2013-05-19 19:32:00,74.0,56.8,29.62,SE,145,60.0,60.0,55,0.00,,---,1.39,VWS V14.01,2013-05-20 00:32:00,
2013-05-19 19:33:00,74.0,58.3,29.62,SE,145,60.0,60.0,58,0.00,,---,1.39,VWS V14.01,2013-05-20 00:33:00,
2013-05-19 19:34:00,74.0,57.3,29.62,SE,145,60.0,60.0,56,0.00,,---,1.39,VWS V14.01,2013-05-20 00:34:00,
2013-05-19 19:35:00,74.0,57.3,29.62,SE,145,60.0,60.0,56,0.00,,---,1.39,VWS V14.01,2013-05-20 00:35:00,
2013-05-19 19:36:00,74.0,57.3,29.62,SE,145,60.0,60.0,56,0.00,,---,1.39,VWS V14.01,2013-05-20 00:36:00,
2013-05-19 19:37:00,74.0,57.3,29.62,ESE,121,60.0,60.0,56,0.00,,---,1.39,VWS V14.01,2013-05-20 00:37:00,
2013-05-19 19:38:00,73.9,57.2,29.62,ESE,121,60.0,60.0,56,0.00,,---,1.39,VWS V14.01,2013-05-20 00:38:00,
2013-05-19 19:39:00,73.9,57.7,29.62,ESE,121,60.0,60.0,57,0.00,,---,1.39,VWS V14.01,2013-05-20 00:39:00,
2013-05-19 19:40:00,73.9,57.7,29.62,ESE,121,60.0,60.0,57,0.00,,---,1.39,VWS V14.01,2013-05-20 00:40:00,
2013-05-19 19:41:00,73.9,57.7,29.62,ESE,109,60.0,60.0,57,0.00,,---,1.39,VWS V14.01,2013-05-20 00:41:00,
2013-05-19 19:42:00,73.9,58.2,29.62,ESE,106,60.0,60.0,58,0.00,,---,1.39,VWS V14.01,2013-05-20 00:42:00,
2013-05-19 19:43:00,73.9,58.2,29.62,ESE,106,60.0,60.0,58,0.00,,---,1.39,VWS V14.01,2013-05-20 00:43:00,
2013-05-19 19:44:00,73.7,58.5,29.62,ESE,106,60.0,60.0,59,0.00,,---,1.39,VWS V14.01,2013-05-20 00:44:00,
2013-05-19 19:45:00,73.7,58.5,29.62,ESE,104,60.0,60.0,59,0.00,,---,1.39,VWS V14.01,2013-05-20 00:45:00,
2013-05-19 19:46:00,73.7,58.5,29.62,ESE,104,60.0,60.0,59,0.00,,---,1.39,VWS V14.01,2013-05-20 00:46:00,
2013-05-19 19:47:00,73.7,59.0,29.62,East,100,60.0,60.0,60,0.00,,---,1.39,VWS V14.01,2013-05-20 00:47:00,
2013-05-19 19:48:00,73.5,58.8,29.62,East,100,60.0,60.0,60,0.00,,---,1.39,VWS V14.01,2013-05-20 00:48:00,
2013-05-19 19:49:00,73.5,59.2,29.62,East,100,60.0,60.0,61,0.00,,---,1.39,VWS V14.01,2013-05-20 00:49:00,
2013-05-19 19:50:00,73.5,59.2,29.62,East,100,60.0,60.0,61,0.00,,---,1.39,VWS V14.01,2013-05-20 00:50:00,
2013-05-19 19:51:00,73.5,59.7,29.62,East,97,60.0,60.0,62,0.00,,---,1.39,VWS V14.01,2013-05-20 00:51:00,
2013-05-19 19:52:00,73.5,59.7,29.62,East,97,60.0,60.0,62,0.00,,---,1.39,VWS V14.01,2013-05-20 00:52:00,
2013-05-19 19:53:00,73.3,59.5,29.62,East,97,60.0,60.0,62,0.00,,---,1.39,VWS V14.01,2013-05-20 00:53:00,
2013-05-19 19:54:00,73.3,60.0,29.62,East,97,60.0,60.0,63,0.00,,---,1.39,VWS V14.01,2013-05-20 00:54:00,
2013-05-19 19:55:00,73.2,59.9,29.62,NE,56,60.0,60.0,63,0.00,,---,1.39,VWS V14.01,2013-05-20 00:55:00,
2013-05-19 19:56:00,73.2,60.3,29.62,NE,56,60.0,60.0,64,0.00,,---,1.39,VWS V14.01,2013-05-20 00:56:00,
2013-05-19 19:57:00,73.2,60.3,29.62,NE,56,60.0,60.0,64,0.00,,---,1.39,VWS V14.01,2013-05-20 00:57:00,
2013-05-19 19:58:00,73.2,60.3,29.62,ENE,61,60.0,60.0,64,0.00,,---,1.39,VWS V14.01,2013-05-20 00:58:00,
2013-05-19 19:59:00,73.0,60.1,29.62,ENE,61,60.0,60.0,64,0.00,,---,1.39,VWS V14.01,2013-05-20 00:59:00,
2013-05-19 20:00:00,73.0,60.5,29.62,ENE,61,60.0,60.0,65,0.00,,---,1.39,VWS V14.01,2013-05-20 01:00:00,
2013-05-19 20:01:00,73.0,60.5,29.62,ENE,61,60.0,60.0,65,0.00,,---,1.39,VWS V14.01,2013-05-20 01:01:00,
2013-05-19 20:02:00,73.0,60.5,29.62,ENE,61,60.0,60.0,65,0.00,,---,1.39,VWS V14.01,2013-05-20 01:02:00,
2013-05-19 20:03:00,73.0,60.5,29.62,ENE,61,60.0,60.0,65,0.00,,---,1.39,VWS V14.01,2013-05-20 01:03:00,
2013-05-19 20:04:00,72.8,60.4,29.62,ENE,61,60.0,60.0,65,0.00,,---,1.39,VWS V14.01,2013-05-20 01:04:00,
2013-05-19 20:05:00,72.8,60.4,29.62,ENE,59,60.0,60.0,65,0.00,,---,1.39,VWS V14.01,2013-05-20 01:05:00,
2013-05-19 20:06:00,72.8,60.4,29.62,NE,51,60.0,60.0,65,0.00,,---,1.39,VWS V14.01,2013-05-20 01:06:00,
2013-05-19 20:07:00,72.7,60.3,29.62,NE,52,60.0,60.0,65,0.00,,---,1.39,VWS V14.01,2013-05-20 01:07:00,
2013-05-19 20:08:00,72.7,60.3,29.62,NE,52,60.0,60.0,65,0.00,,---,1.39,VWS V14.01,2013-05-20 01:08:00,
2013-05-19 20:09:00,72.7,60.3,29.62,NE,52,60.0,60.0,65,0.00,,---,1.39,VWS V14.01,2013-05-20 01:09:00,
2013-05-19 20:10:00,72.7,60.3,29.62,NE,52,60.0,60.0,65,0.00,,---,1.39,VWS V14.01,2013-05-20 01:10:00,
2013-05-19 20:11:00,72.7,60.3,29.62,NE,52,60.0,60.0,65,0.00,,---,1.39,VWS V14.01,2013-05-20 01:11:00,
2013-05-19 20:12:00,72.5,60.1,29.62,NE,52,60.0,60.0,65,0.00,,---,1.39,VWS V14.01,2013-05-20 01:12:00,
2013-05-19 20:13:00,72.5,60.1,29.62,NE,52,60.0,60.0,65,0.00,,---,1.39,VWS V14.01,2013-05-20 01:13:00,
2013-05-19 20:14:00,72.5,60.1,29.62,NE,52,60.0,60.0,65,0.00,,---,1.39,VWS V14.01,2013-05-20 01:14:00,
2013-05-19 20:15:00,72.5,60.1,29.62,ENE,65,60.0,60.0,65,0.00,,---,1.39,VWS V14.01,2013-05-20 01:15:00,
2013-05-19 20:16:00,72.5,60.5,29.62,ENE,76,60.0,60.0,66,0.00,,---,1.39,VWS V14.01,2013-05-20 01:16:00,
2013-05-19 20:17:00,72.3,60.7,29.62,ENE,76,60.0,60.0,67,0.00,,---,1.39,VWS V14.01,2013-05-20 01:17:00,
2013-05-19 20:18:00,72.3,60.7,29.62,ENE,76,60.0,60.0,67,0.00,,---,1.39,VWS V14.01,2013-05-20 01:18:00,
2013-05-19 20:19:00,72.1,60.5,29.62,NE,47,60.0,60.0,67,0.00,,---,1.39,VWS V14.01,2013-05-20 01:19:00,
2013-05-19 20:20:00,72.1,61.0,29.62,NE,49,60.0,60.0,68,0.00,,---,1.39,VWS V14.01,2013-05-20 01:20:00,
2013-05-19 20:21:00,72.0,61.7,29.62,NE,55,60.0,60.0,70,0.00,,---,1.39,VWS V14.01,2013-05-20 01:21:00,
2013-05-19 20:22:00,71.8,61.5,29.62,East,79,60.0,60.0,70,0.00,,---,1.39,VWS V14.01,2013-05-20 01:22:00,
2013-05-19 20:23:00,71.6,62.1,29.62,East,79,60.0,60.0,72,0.00,,---,1.39,VWS V14.01,2013-05-20 01:23:00,
2013-05-19 20:24:00,71.5,62.4,29.62,NE,44,60.0,60.0,73,0.00,,---,1.39,VWS V14.01,2013-05-20 01:24:00,
2013-05-19 20:25:00,71.1,62.0,29.62,East,85,60.0,60.0,73,0.00,,---,1.39,VWS V14.01,2013-05-20 01:25:00,
2013-05-19 20:26:00,70.8,61.7,29.62,East,90,60.0,60.0,73,0.00,,---,1.39,VWS V14.01,2013-05-20 01:26:00,
2013-05-19 20:27:00,70.4,61.3,29.62,ESE,106,60.0,60.0,73,0.00,,---,1.39,VWS V14.01,2013-05-20 01:27:00,
2013-05-19 20:28:00,70.4,61.3,29.62,East,79,60.0,60.0,73,0.00,,---,1.39,VWS V14.01,2013-05-20 01:28:00,
2013-05-19 20:29:00,70.4,61.3,29.62,East,92,60.0,60.0,73,0.00,,---,1.39,VWS V14.01,2013-05-20 01:29:00,
2013-05-19 20:30:00,70.4,61.3,29.62,East,92,60.0,60.0,73,0.00,,---,1.39,VWS V14.01,2013-05-20 01:30:00,
2013-05-19 20:31:00,70.4,61.3,29.62,East,92,60.0,60.0,73,0.00,,---,1.39,VWS V14.01,2013-05-20 01:31:00,
2013-05-19 20:32:00,70.4,61.3,29.62,East,92,60.0,60.0,73,0.00,,---,1.39,VWS V14.01,2013-05-20 01:32:00,
2013-05-19 20:33:00,70.4,61.3,29.62,East,92,60.0,60.0,73,0.00,,---,1.39,VWS V14.01,2013-05-20 01:33:00,
2013-05-19 20:34:00,70.4,61.3,29.62,East,92,60.0,60.0,73,0.00,,---,1.39,VWS V14.01,2013-05-20 01:34:00,
2013-05-19 20:35:00,70.4,61.3,29.62,East,92,60.0,60.0,73,0.00,,---,1.39,VWS V14.01,2013-05-20 01:35:00,
2013-05-19 20:36:00,70.4,61.3,29.62,East,92,60.0,60.0,73,0.00,,---,1.39,VWS V14.01,2013-05-20 01:36:00,
2013-05-19 20:37:00,70.4,61.3,29.62,East,92,60.0,60.0,73,0.00,,---,1.39,VWS V14.01,2013-05-20 01:37:00,
2013-05-19 20:38:00,70.4,61.3,29.62,East,92,60.0,60.0,73,0.00,,---,1.39,VWS V14.01,2013-05-20 01:38:00,
2013-05-19 20:39:00,70.4,61.3,29.62,East,92,60.0,60.0,73,0.00,,---,1.39,VWS V14.01,2013-05-20 01:39:00,
2013-05-19 20:40:00,70.4,61.3,29.62,ENE,78,60.0,60.0,73,0.00,,---,1.39,VWS V14.01,2013-05-20 01:40:00,
2013-05-19 20:41:00,68.1,59.1,29.62,East,96,60.0,60.0,73,0.00,,---,1.39,VWS V14.01,2013-05-20 01:41:00,
2013-05-19 20:42:00,68.1,59.1,29.62,East,82,60.0,60.0,73,0.00,,---,1.39,VWS V14.01,2013-05-20 01:42:00,
2013-05-19 20:43:00,67.9,58.9,29.62,East,93,60.0,60.0,73,0.02,,---,1.41,VWS V14.01,2013-05-20 01:43:00,
2013-05-19 20:44:00,67.9,58.9,29.62,ESE,103,60.0,60.0,73,0.02,,---,1.41,VWS V14.01,2013-05-20 01:44:00,
2013-05-19 20:45:00,67.8,60.3,29.62,ENE,65,60.0,60.0,77,0.02,,---,1.41,VWS V14.01,2013-05-20 01:45:00,
2013-05-19 20:46:00,67.8,60.3,29.62,East,83,60.0,60.0,77,0.02,,---,1.41,VWS V14.01,2013-05-20 01:46:00,
2013-05-19 20:47:00,67.6,61.9,29.62,ENE,61,60.0,60.0,82,0.02,,---,1.41,VWS V14.01,2013-05-20 01:47:00,
2013-05-19 20:48:00,67.6,61.9,29.62,ENE,61,60.0,60.0,82,0.02,,---,1.41,VWS V14.01,2013-05-20 01:48:00,
2013-05-19 20:49:00,67.6,61.9,29.62,East,96,60.0,60.0,82,0.02,,---,1.41,VWS V14.01,2013-05-20 01:49:00,
2013-05-19 20:50:00,67.6,61.9,29.62,East,93,60.0,60.0,82,0.02,,---,1.41,VWS V14.01,2013-05-20 01:50:00,
2013-05-19 20:51:00,67.4,61.7,29.62,East,89,60.0,60.0,82,0.02,,---,1.41,VWS V14.01,2013-05-20 01:51:00,
2013-05-19 20:52:00,67.4,61.7,29.62,ENE,73,60.0,60.0,82,0.02,,---,1.41,VWS V14.01,2013-05-20 01:52:00,
2013-05-19 20:53:00,67.3,61.6,29.62,East,83,60.0,60.0,82,0.02,,---,1.41,VWS V14.01,2013-05-20 01:53:00,
2013-05-19 20:54:00,67.3,62.0,29.62,East,92,60.0,60.0,83,0.02,,---,1.41,VWS V14.01,2013-05-20 01:54:00,
2013-05-19 20:55:00,67.3,62.0,29.62,East,80,60.0,60.0,83,0.02,,---,1.41,VWS V14.01,2013-05-20 01:55:00,
2013-05-19 20:56:00,67.3,62.0,29.62,East,83,60.0,60.0,83,0.02,,---,1.41,VWS V14.01,2013-05-20 01:56:00,
2013-05-19 20:57:00,67.1,61.8,29.62,East,97,60.0,60.0,83,0.02,,---,1.41,VWS V14.01,2013-05-20 01:57:00,
2013-05-19 20:58:00,67.1,61.8,29.62,ENE,73,60.0,60.0,83,0.02,,---,1.41,VWS V14.01,2013-05-20 01:58:00,
2013-05-19 20:59:00,67.1,61.8,29.62,East,86,60.0,60.0,83,0.02,,---,1.41,VWS V14.01,2013-05-20 01:59:00,
2013-05-19 21:00:00,67.1,61.8,29.63,ENE,76,60.0,60.0,83,0.02,,---,1.41,VWS V14.01,2013-05-20 02:00:00,
2013-05-19 21:01:00,67.1,61.8,29.63,East,90,60.0,60.0,83,0.02,,---,1.41,VWS V14.01,2013-05-20 02:01:00,
2013-05-19 21:02:00,67.1,61.8,29.63,East,95,60.0,60.0,83,0.02,,---,1.41,VWS V14.01,2013-05-20 02:02:00,
2013-05-19 21:03:00,66.9,61.6,29.63,ENE,68,60.0,60.0,83,0.02,,---,1.41,VWS V14.01,2013-05-20 02:03:00,
2013-05-19 21:04:00,66.9,61.6,29.63,ENE,75,60.0,60.0,83,0.02,,---,1.41,VWS V14.01,2013-05-20 02:04:00,
2013-05-19 21:05:00,66.9,61.6,29.63,NE,56,60.0,60.0,83,0.02,,---,1.41,VWS V14.01,2013-05-20 02:05:00,
2013-05-19 21:06:00,66.9,61.2,29.63,ENE,75,60.0,60.0,82,0.02,,---,1.41,VWS V14.01,2013-05-20 02:06:00,
2013-05-19 21:07:00,66.9,61.2,29.63,East,89,60.0,60.0,82,0.02,,---,1.41,VWS V14.01,2013-05-20 02:07:00,
2013-05-19 21:08:00,66.9,61.6,29.63,East,97,60.0,60.0,83,0.02,,---,1.41,VWS V14.01,2013-05-20 02:08:00,
2013-05-19 21:09:00,66.9,61.6,29.63,ENE,76,60.0,60.0,83,0.02,,---,1.41,VWS V14.01,2013-05-20 02:09:00,
2013-05-19 21:10:00,66.9,61.6,29.63,East,100,60.0,60.0,83,0.02,,---,1.41,VWS V14.01,2013-05-20 02:10:00,
2013-05-19 21:11:00,66.9,61.2,29.63,East,89,60.0,60.0,82,0.02,,---,1.41,VWS V14.01,2013-05-20 02:11:00,
2013-05-19 21:12:00,66.9,61.2,29.63,East,85,60.0,60.0,82,0.02,,---,1.41,VWS V14.01,2013-05-20 02:12:00,
2013-05-19 21:13:00,66.9,61.2,29.63,ENE,72,60.0,60.0,82,0.02,,---,1.41,VWS V14.01,2013-05-20 02:13:00,
2013-05-19 21:14:00,66.8,61.1,29.63,East,95,60.0,60.0,82,0.02,,---,1.41,VWS V14.01,2013-05-20 02:14:00,
2013-05-19 21:15:00,66.8,61.1,29.63,East,85,60.0,60.0,82,0.02,,---,1.41,VWS V14.01,2013-05-20 02:15:00,
2013-05-19 21:16:00,66.8,61.1,29.63,ENE,64,60.0,60.0,82,0.02,,---,1.41,VWS V14.01,2013-05-20 02:16:00,
2013-05-19 21:17:00,66.8,61.1,29.63,NE,51,60.0,60.0,82,0.02,,---,1.41,VWS V14.01,2013-05-20 02:17:00,
2013-05-19 21:18:00,66.8,61.5,29.63,East,85,60.0,60.0,83,0.02,,---,1.41,VWS V14.01,2013-05-20 02:18:00,
2013-05-19 21:19:00,66.8,61.1,29.63,ENE,78,60.0,60.0,82,0.02,,---,1.41,VWS V14.01,2013-05-20 02:19:00,
2013-05-19 21:20:00,66.6,60.9,29.63,East,86,60.0,60.0,82,0.02,,---,1.41,VWS V14.01,2013-05-20 02:20:00,
2013-05-19 21:21:00,66.6,60.9,29.63,ESE,102,60.0,60.0,82,0.02,,---,1.41,VWS V14.01,2013-05-20 02:21:00,
2013-05-19 21:22:00,66.6,60.9,29.63,East,88,60.0,60.0,82,0.02,,---,1.41,VWS V14.01,2013-05-20 02:22:00,
2013-05-19 21:23:00,66.6,60.9,29.63,ENE,62,60.0,60.0,82,0.02,,---,1.41,VWS V14.01,2013-05-20 02:23:00,
2013-05-19 21:24:00,66.6,60.9,29.63,East,79,60.0,60.0,82,0.02,,---,1.41,VWS V14.01,2013-05-20 02:24:00,
2013-05-19 21:25:00,66.6,60.9,29.63,East,86,60.0,60.0,82,0.02,,---,1.41,VWS V14.01,2013-05-20 02:25:00,
2013-05-19 21:26:00,66.6,60.9,29.63,East,89,60.0,60.0,82,0.02,,---,1.41,VWS V14.01,2013-05-20 02:26:00,
2013-05-19 21:27:00,66.6,60.9,29.63,East,89,60.0,60.0,82,0.02,,---,1.41,VWS V14.01,2013-05-20 02:27:00,
2013-05-19 21:28:00,66.4,60.7,29.63,East,96,60.0,60.0,82,0.02,,---,1.41,VWS V14.01,2013-05-20 02:28:00,
2013-05-19 21:29:00,66.6,60.9,29.63,East,92,60.0,60.0,82,0.02,,---,1.41,VWS V14.01,2013-05-20 02:29:00,
2013-05-19 21:30:00,66.6,60.9,29.64,East,93,60.0,60.0,82,0.02,,---,1.41,VWS V14.01,2013-05-20 02:30:00,
2013-05-19 21:31:00,66.6,60.9,29.64,East,86,60.0,60.0,82,0.02,,---,1.41,VWS V14.01,2013-05-20 02:31:00,
2013-05-19 21:32:00,66.6,60.9,29.64,East,92,60.0,60.0,82,0.02,,---,1.41,VWS V14.01,2013-05-20 02:32:00,
2013-05-19 21:33:00,66.6,60.9,29.64,East,92,60.0,60.0,82,0.02,,---,1.41,VWS V14.01,2013-05-20 02:33:00,
2013-05-19 21:34:00,66.6,60.9,29.64,East,86,60.0,60.0,82,0.02,,---,1.41,VWS V14.01,2013-05-20 02:34:00,
2013-05-19 21:35:00,66.6,60.9,29.64,East,99,60.0,60.0,82,0.02,,---,1.41,VWS V14.01,2013-05-20 02:35:00,
2013-05-19 21:36:00,66.6,60.9,29.64,East,93,60.0,60.0,82,0.02,,---,1.41,VWS V14.01,2013-05-20 02:36:00,
2013-05-19 21:37:00,66.8,61.1,29.64,East,90,60.0,60.0,82,0.02,,---,1.41,VWS V14.01,2013-05-20 02:37:00,
2013-05-19 21:38:00,66.8,61.1,29.64,East,86,60.0,60.0,82,0.02,,---,1.41,VWS V14.01,2013-05-20 02:38:00,
2013-05-19 21:39:00,66.8,61.1,29.64,East,79,60.0,60.0,82,0.02,,---,1.41,VWS V14.01,2013-05-20 02:39:00,
2013-05-19 21:40:00,66.8,61.1,29.64,East,86,60.0,60.0,82,0.02,,---,1.41,VWS V14.01,2013-05-20 02:40:00,
2013-05-19 21:41:00,66.8,61.1,29.64,East,86,60.0,60.0,82,0.02,,---,1.41,VWS V14.01,2013-05-20 02:41:00,
2013-05-19 21:42:00,66.8,61.1,29.64,ENE,76,60.0,60.0,82,0.02,,---,1.41,VWS V14.01,2013-05-20 02:42:00,
2013-05-19 21:43:00,66.8,61.1,29.64,ENE,66,60.0,60.0,82,0.02,,---,1.41,VWS V14.01,2013-05-20 02:43:00,
2013-05-19 21:44:00,66.8,60.8,29.64,East,90,60.0,60.0,81,0.02,,---,1.41,VWS V14.01,2013-05-20 02:44:00,
2013-05-19 21:45:00,66.8,60.8,29.64,East,86,60.0,60.0,81,0.02,,---,1.41,VWS V14.01,2013-05-20 02:45:00,
2013-05-19 21:46:00,66.8,60.8,29.64,East,83,60.0,60.0,81,0.02,,---,1.41,VWS V14.01,2013-05-20 02:46:00,
2013-05-19 21:47:00,66.8,60.8,29.64,East,83,60.0,60.0,81,0.02,,---,1.41,VWS V14.01,2013-05-20 02:47:00,
2013-05-19 21:48:00,66.8,60.8,29.64,East,93,60.0,60.0,81,0.02,,---,1.41,VWS V14.01,2013-05-20 02:48:00,
2013-05-19 21:49:00,66.8,60.8,29.64,East,85,60.0,60.0,81,0.02,,---,1.41,VWS V14.01,2013-05-20 02:49:00,
2013-05-19 21:50:00,66.8,60.8,29.64,East,83,60.0,60.0,81,0.02,,---,1.41,VWS V14.01,2013-05-20 02:50:00,
2013-05-19 21:51:00,66.8,60.8,29.64,East,96,60.0,60.0,81,0.02,,---,1.41,VWS V14.01,2013-05-20 02:51:00,
2013-05-19 21:52:00,66.8,60.8,29.64,East,89,60.0,60.0,81,0.02,,---,1.41,VWS V14.01,2013-05-20 02:52:00,
2013-05-19 21:53:00,66.8,60.8,29.64,East,88,60.0,60.0,81,0.02,,---,1.41,VWS V14.01,2013-05-20 02:53:00,
2013-05-19 21:54:00,66.8,60.8,29.64,East,90,60.0,60.0,81,0.02,,---,1.41,VWS V14.01,2013-05-20 02:54:00,
2013-05-19 21:55:00,66.8,60.8,29.64,East,86,60.0,60.0,81,0.02,,---,1.41,VWS V14.01,2013-05-20 02:55:00,
2013-05-19 21:56:00,66.6,60.6,29.64,East,79,60.0,60.0,81,0.02,,---,1.41,VWS V14.01,2013-05-20 02:56:00,
2013-05-19 21:57:00,66.6,60.6,29.64,East,79,60.0,60.0,81,0.02,,---,1.41,VWS V14.01,2013-05-20 02:57:00,
2013-05-19 21:58:00,66.6,60.6,29.64,East,80,60.0,60.0,81,0.02,,---,1.41,VWS V14.01,2013-05-20 02:58:00,
2013-05-19 21:59:00,66.6,60.6,29.63,East,80,60.0,60.0,81,0.02,,---,1.41,VWS V14.01,2013-05-20 02:59:00,
2013-05-19 22:00:00,66.6,60.6,29.63,East,79,60.0,60.0,81,0.02,,---,1.41,VWS V14.01,2013-05-20 03:00:00,
2013-05-19 22:01:00,66.6,60.6,29.63,East,79,60.0,60.0,81,0.00,,---,1.41,VWS V14.01,2013-05-20 03:01:00,
2013-05-19 22:02:00,66.4,60.4,29.63,East,86,60.0,60.0,81,0.00,,---,1.41,VWS V14.01,2013-05-20 03:02:00,
2013-05-19 22:03:00,66.4,60.4,29.63,East,88,60.0,60.0,81,0.00,,---,1.41,VWS V14.01,2013-05-20 03:03:00,
2013-05-19 22:04:00,66.4,60.4,29.63,East,85,60.0,60.0,81,0.00,,---,1.41,VWS V14.01,2013-05-20 03:04:00,
2013-05-19 22:05:00,66.4,60.4,29.63,East,83,60.0,60.0,81,0.00,,---,1.41,VWS V14.01,2013-05-20 03:05:00,
2013-05-19 22:06:00,66.4,60.4,29.63,East,83,60.0,60.0,81,0.00,,---,1.41,VWS V14.01,2013-05-20 03:06:00,
2013-05-19 22:07:00,66.4,60.0,29.63,East,85,60.0,60.0,80,0.00,,---,1.41,VWS V14.01,2013-05-20 03:07:00,
2013-05-19 22:08:00,66.4,60.4,29.63,East,83,60.0,60.0,81,0.00,,---,1.41,VWS V14.01,2013-05-20 03:08:00,
2013-05-19 22:09:00,66.4,60.0,29.63,East,85,60.0,60.0,80,0.00,,---,1.41,VWS V14.01,2013-05-20 03:09:00,
2013-05-19 22:10:00,66.4,60.0,29.63,East,85,60.0,60.0,80,0.00,,---,1.41,VWS V14.01,2013-05-20 03:10:00,
2013-05-19 22:11:00,66.4,60.0,29.63,East,92,60.0,60.0,80,0.00,,---,1.41,VWS V14.01,2013-05-20 03:11:00,
2013-05-19 22:12:00,66.4,60.0,29.63,East,90,60.0,60.0,80,0.00,,---,1.41,VWS V14.01,2013-05-20 03:12:00,
2013-05-19 22:14:00,66.3,60.0,29.63,East,90,60.0,60.0,80,0.00,,---,1.41,VWS V14.01,2013-05-20 03:14:00,
2013-05-19 22:15:00,66.3,60.0,29.63,East,90,60.0,60.0,80,0.00,,---,1.41,VWS V14.01,2013-05-20 03:15:00,
2013-05-19 22:16:00,66.3,60.0,29.63,East,86,60.0,60.0,80,0.00,,---,1.41,VWS V14.01,2013-05-20 03:16:00,
2013-05-19 22:17:00,66.3,60.0,29.63,East,85,60.0,60.0,80,0.00,,---,1.41,VWS V14.01,2013-05-20 03:17:00,
2013-05-19 22:18:00,66.3,60.0,29.63,East,90,60.0,60.0,80,0.00,,---,1.41,VWS V14.01,2013-05-20 03:18:00,
2013-05-19 22:19:00,66.3,60.0,29.63,East,90,60.0,60.0,80,0.00,,---,1.41,VWS V14.01,2013-05-20 03:19:00,
2013-05-19 22:20:00,66.3,60.0,29.63,East,82,60.0,60.0,80,0.01,,---,1.42,VWS V14.01,2013-05-20 03:20:00,
2013-05-19 22:21:00,66.3,60.0,29.63,East,86,60.0,60.0,80,0.01,,---,1.42,VWS V14.01,2013-05-20 03:21:00,
2013-05-19 22:22:00,66.1,59.8,29.63,East,96,60.0,60.0,80,0.01,,---,1.42,VWS V14.01,2013-05-20 03:22:00,
2013-05-19 22:24:00,66.1,59.8,29.63,East,83,60.0,60.0,80,0.01,,---,1.42,VWS V14.01,2013-05-20 03:24:00,
2013-05-19 22:25:00,66.1,59.8,29.63,East,85,60.0,60.0,80,0.01,,---,1.42,VWS V14.01,2013-05-20 03:25:00,
2013-05-19 22:26:00,66.0,59.7,29.63,East,85,60.0,60.0,80,0.01,,---,1.42,VWS V14.01,2013-05-20 03:26:00,
2013-05-19 22:27:00,66.0,59.7,29.63,East,86,60.0,60.0,80,0.01,,---,1.42,VWS V14.01,2013-05-20 03:27:00,
2013-05-19 22:28:00,66.0,59.7,29.63,East,86,60.0,60.0,80,0.01,,---,1.42,VWS V14.01,2013-05-20 03:28:00,
2013-05-19 22:29:00,66.0,60.0,29.63,East,86,60.0,60.0,81,0.01,,---,1.42,VWS V14.01,2013-05-20 03:29:00,
2013-05-19 22:30:00,65.8,59.8,29.63,East,79,60.0,60.0,81,0.01,,---,1.42,VWS V14.01,2013-05-20 03:30:00,
2013-05-19 22:31:00,65.8,59.8,29.63,East,80,60.0,60.0,81,0.01,,---,1.42,VWS V14.01,2013-05-20 03:31:00,
2013-05-19 22:32:00,65.8,59.8,29.63,East,79,60.0,60.0,81,0.01,,---,1.42,VWS V14.01,2013-05-20 03:32:00,
2013-05-19 22:33:00,65.8,59.8,29.63,East,93,60.0,60.0,81,0.01,,---,1.42,VWS V14.01,2013-05-20 03:33:00,
2013-05-19 22:34:00,65.8,59.8,29.63,East,80,60.0,60.0,81,0.01,,---,1.42,VWS V14.01,2013-05-20 03:34:00,
2013-05-19 22:35:00,65.8,60.2,29.63,East,82,60.0,60.0,82,0.01,,---,1.42,VWS V14.01,2013-05-20 03:35:00,
2013-05-19 22:36:00,65.6,60.0,29.63,East,80,60.0,60.0,82,0.01,,---,1.42,VWS V14.01,2013-05-20 03:36:00,
2013-05-19 22:37:00,65.6,60.0,29.63,East,82,60.0,60.0,82,0.01,,---,1.42,VWS V14.01,2013-05-20 03:37:00,
2013-05-19 22:38:00,65.6,60.0,29.63,ENE,78,60.0,60.0,82,0.01,,---,1.42,VWS V14.01,2013-05-20 03:38:00,
2013-05-19 22:39:00,65.6,60.0,29.63,East,79,60.0,60.0,82,0.01,,---,1.42,VWS V14.01,2013-05-20 03:39:00,
2013-05-19 22:40:00,65.6,60.0,29.63,East,85,60.0,60.0,82,0.01,,---,1.42,VWS V14.01,2013-05-20 03:40:00,
2013-05-19 22:41:00,65.6,60.0,29.63,East,79,60.0,60.0,82,0.01,,---,1.42,VWS V14.01,2013-05-20 03:41:00,
2013-05-19 22:42:00,65.5,59.9,29.63,East,80,60.0,60.0,82,0.01,,---,1.42,VWS V14.01,2013-05-20 03:42:00,
2013-05-19 22:43:00,65.6,60.0,29.63,East,80,60.0,60.0,82,0.01,,---,1.42,VWS V14.01,2013-05-20 03:43:00,
2013-05-19 22:44:00,65.5,59.9,29.63,East,80,60.0,60.0,82,0.01,,---,1.42,VWS V14.01,2013-05-20 03:44:00,
2013-05-19 22:45:00,65.5,59.9,29.62,East,80,60.0,60.0,82,0.01,,---,1.42,VWS V14.01,2013-05-20 03:45:00,
2013-05-19 22:46:00,65.5,59.9,29.62,East,82,60.0,60.0,82,0.01,,---,1.42,VWS V14.01,2013-05-20 03:46:00,
2013-05-19 22:47:00,65.5,59.9,29.62,East,86,60.0,60.0,82,0.01,,---,1.42,VWS V14.01,2013-05-20 03:47:00,
2013-05-19 22:48:00,65.5,59.9,29.62,East,86,60.0,60.0,82,0.01,,---,1.42,VWS V14.01,2013-05-20 03:48:00,
2013-05-19 22:49:00,65.5,59.9,29.62,East,85,60.0,60.0,82,0.01,,---,1.42,VWS V14.01,2013-05-20 03:49:00,
2013-05-19 22:50:00,65.5,59.9,29.62,ESE,106,60.0,60.0,82,0.01,,---,1.42,VWS V14.01,2013-05-20 03:50:00,
2013-05-19 22:51:00,65.5,59.9,29.62,East,96,60.0,60.0,82,0.01,,---,1.42,VWS V14.01,2013-05-20 03:51:00,
2013-05-19 22:52:00,65.5,59.9,29.62,East,86,60.0,60.0,82,0.01,,---,1.42,VWS V14.01,2013-05-20 03:52:00,
2013-05-19 22:53:00,65.3,59.7,29.62,East,83,60.0,60.0,82,0.01,,---,1.42,VWS V14.01,2013-05-20 03:53:00,
2013-05-19 22:54:00,65.3,59.7,29.62,East,83,60.0,60.0,82,0.01,,---,1.42,VWS V14.01,2013-05-20 03:54:00,
2013-05-19 22:55:00,65.5,59.9,29.62,ENE,73,60.0,60.0,82,0.01,,---,1.42,VWS V14.01,2013-05-20 03:55:00,
2013-05-19 22:56:00,65.5,59.9,29.62,ENE,75,60.0,60.0,82,0.01,,---,1.42,VWS V14.01,2013-05-20 03:56:00,
2013-05-19 22:57:00,65.5,59.9,29.62,ENE,73,60.0,60.0,82,0.01,,---,1.42,VWS V14.01,2013-05-20 03:57:00,
2013-05-19 22:58:00,65.5,59.9,29.62,ENE,69,60.0,60.0,82,0.01,,---,1.42,VWS V14.01,2013-05-20 03:58:00,
2013-05-19 22:59:00,65.3,59.7,29.62,ENE,69,60.0,60.0,82,0.01,,---,1.42,VWS V14.01,2013-05-20 03:59:00,
2013-05-19 23:00:00,65.3,59.7,29.62,East,80,60.0,60.0,82,0.01,,---,1.42,VWS V14.01,2013-05-20 04:00:00,
2013-05-19 23:01:00,65.3,59.7,29.62,East,90,60.0,60.0,82,0.01,,---,1.42,VWS V14.01,2013-05-20 04:01:00,
2013-05-19 23:02:00,65.3,59.7,29.62,East,88,60.0,60.0,82,0.01,,---,1.42,VWS V14.01,2013-05-20 04:02:00,
2013-05-19 23:03:00,65.3,59.7,29.62,East,88,60.0,60.0,82,0.01,,---,1.42,VWS V14.01,2013-05-20 04:03:00,
2013-05-19 23:04:00,65.3,60.0,29.62,NE,47,60.0,60.0,83,0.01,,---,1.42,VWS V14.01,2013-05-20 04:04:00,
2013-05-19 23:05:00,65.3,59.7,29.62,East,89,60.0,60.0,82,0.01,,---,1.42,VWS V14.01,2013-05-20 04:05:00,
2013-05-19 23:06:00,65.3,60.0,29.62,ENE,64,60.0,60.0,83,0.01,,---,1.42,VWS V14.01,2013-05-20 04:06:00,
2013-05-19 23:07:00,65.3,59.7,29.62,ENE,62,60.0,60.0,82,0.01,,---,1.42,VWS V14.01,2013-05-20 04:07:00,
2013-05-19 23:08:00,65.3,60.0,29.62,East,86,60.0,60.0,83,0.01,,---,1.42,VWS V14.01,2013-05-20 04:08:00,
2013-05-19 23:09:00,65.3,60.0,29.62,NE,52,60.0,60.0,83,0.01,,---,1.42,VWS V14.01,2013-05-20 04:09:00,
2013-05-19 23:10:00,65.2,59.9,29.62,ENE,72,60.0,60.0,83,0.01,,---,1.42,VWS V14.01,2013-05-20 04:10:00,
2013-05-19 23:11:00,65.2,59.9,29.62,East,85,60.0,60.0,83,0.01,,---,1.42,VWS V14.01,2013-05-20 04:11:00,
2013-05-19 23:12:00,65.2,59.9,29.62,East,82,60.0,60.0,83,0.01,,---,1.42,VWS V14.01,2013-05-20 04:12:00,
2013-05-19 23:13:00,65.2,59.9,29.62,East,83,60.0,60.0,83,0.01,,---,1.42,VWS V14.01,2013-05-20 04:13:00,
2013-05-19 23:14:00,65.2,59.9,29.62,ENE,66,60.0,60.0,83,0.01,,---,1.42,VWS V14.01,2013-05-20 04:14:00,
2013-05-19 23:15:00,65.0,59.7,29.62,ENE,66,60.0,60.0,83,0.01,,---,1.42,VWS V14.01,2013-05-20 04:15:00,
2013-05-19 23:16:00,65.0,59.7,29.62,ENE,71,60.0,60.0,83,0.01,,---,1.42,VWS V14.01,2013-05-20 04:16:00,
2013-05-19 23:17:00,65.0,59.7,29.62,ENE,72,60.0,60.0,83,0.01,,---,1.42,VWS V14.01,2013-05-20 04:17:00,
2013-05-19 23:18:00,65.0,59.7,29.62,East,79,60.0,60.0,83,0.01,,---,1.42,VWS V14.01,2013-05-20 04:18:00,
2013-05-19 23:19:00,65.0,59.7,29.62,East,85,60.0,60.0,83,0.01,,---,1.42,VWS V14.01,2013-05-20 04:19:00,
2013-05-19 23:20:00,65.0,59.7,29.62,East,79,60.0,60.0,83,0.01,,---,1.42,VWS V14.01,2013-05-20 04:20:00,
2013-05-19 23:21:00,64.8,59.5,29.62,East,89,60.0,60.0,83,0.01,,---,1.42,VWS V14.01,2013-05-20 04:21:00,
2013-05-19 23:22:00,65.0,59.7,29.62,ENE,76,60.0,60.0,83,0.01,,---,1.42,VWS V14.01,2013-05-20 04:22:00,
2013-05-19 23:23:00,64.8,59.5,29.62,ENE,68,60.0,60.0,83,0.01,,---,1.42,VWS V14.01,2013-05-20 04:23:00,
2013-05-19 23:24:00,64.8,59.5,29.62,East,96,60.0,60.0,83,0.01,,---,1.42,VWS V14.01,2013-05-20 04:24:00,
2013-05-19 23:25:00,64.8,59.5,29.62,ENE,69,60.0,60.0,83,0.01,,---,1.42,VWS V14.01,2013-05-20 04:25:00,
2013-05-19 23:26:00,64.8,59.5,29.62,East,85,60.0,60.0,83,0.01,,---,1.42,VWS V14.01,2013-05-20 04:26:00,
2013-05-19 23:27:00,64.8,59.5,29.62,East,80,60.0,60.0,83,0.01,,---,1.42,VWS V14.01,2013-05-20 04:27:00,
2013-05-19 23:28:00,64.8,59.5,29.62,ENE,65,60.0,60.0,83,0.01,,---,1.42,VWS V14.01,2013-05-20 04:28:00,
2013-05-19 23:29:00,64.8,59.5,29.61,NE,51,60.0,60.0,83,0.01,,---,1.42,VWS V14.01,2013-05-20 04:29:00,
2013-05-19 23:30:00,64.8,59.5,29.61,ENE,78,60.0,60.0,83,0.01,,---,1.42,VWS V14.01,2013-05-20 04:30:00,
2013-05-19 23:31:00,64.7,59.4,29.61,East,93,60.0,60.0,83,0.00,,---,1.42,VWS V14.01,2013-05-20 04:31:00,
2013-05-19 23:32:00,64.8,59.5,29.61,East,85,60.0,60.0,83,0.00,,---,1.42,VWS V14.01,2013-05-20 04:32:00,
2013-05-19 23:33:00,64.7,59.4,29.61,East,82,60.0,60.0,83,0.00,,---,1.42,VWS V14.01,2013-05-20 04:33:00,
2013-05-19 23:34:00,64.7,59.4,29.61,East,89,60.0,60.0,83,0.00,,---,1.42,VWS V14.01,2013-05-20 04:34:00,
2013-05-19 23:35:00,64.7,59.4,29.61,East,92,60.0,60.0,83,0.00,,---,1.42,VWS V14.01,2013-05-20 04:35:00,
2013-05-19 23:36:00,64.7,59.4,29.61,East,89,60.0,60.0,83,0.00,,---,1.42,VWS V14.01,2013-05-20 04:36:00,
2013-05-19 23:37:00,64.7,59.4,29.61,East,86,60.0,60.0,83,0.00,,---,1.42,VWS V14.01,2013-05-20 04:37:00,
2013-05-19 23:38:00,64.7,59.4,29.61,East,80,60.0,60.0,83,0.00,,---,1.42,VWS V14.01,2013-05-20 04:38:00,
2013-05-19 23:39:00,64.7,59.4,29.61,East,86,60.0,60.0,83,0.00,,---,1.42,VWS V14.01,2013-05-20 04:39:00,
2013-05-19 23:40:00,64.5,59.2,29.61,East,89,60.0,60.0,83,0.00,,---,1.42,VWS V14.01,2013-05-20 04:40:00,
2013-05-19 23:41:00,64.5,59.2,29.61,East,95,60.0,60.0,83,0.00,,---,1.42,VWS V14.01,2013-05-20 04:41:00,
2013-05-19 23:42:00,64.5,59.2,29.61,East,99,60.0,60.0,83,0.00,,---,1.42,VWS V14.01,2013-05-20 04:42:00,
2013-05-19 23:43:00,64.5,59.2,29.61,East,100,60.0,60.0,83,0.00,,---,1.42,VWS V14.01,2013-05-20 04:43:00,
2013-05-19 23:44:00,64.5,59.2,29.61,ENE,73,60.0,60.0,83,0.00,,---,1.42,VWS V14.01,2013-05-20 04:44:00,
2013-05-19 23:45:00,64.5,59.2,29.61,ESE,106,60.0,60.0,83,0.00,,---,1.42,VWS V14.01,2013-05-20 04:45:00,
2013-05-19 23:46:00,64.5,59.2,29.61,East,97,60.0,60.0,83,0.00,,---,1.42,VWS V14.01,2013-05-20 04:46:00,
2013-05-19 23:47:00,64.3,59.0,29.61,East,96,60.0,60.0,83,0.00,,---,1.42,VWS V14.01,2013-05-20 04:47:00,
2013-05-19 23:48:00,64.3,59.0,29.61,East,90,60.0,60.0,83,0.00,,---,1.42,VWS V14.01,2013-05-20 04:48:00,
2013-05-19 23:49:00,64.3,59.0,29.61,East,80,60.0,60.0,83,0.00,,---,1.42,VWS V14.01,2013-05-20 04:49:00,
2013-05-19 23:50:00,64.3,59.0,29.61,East,86,60.0,60.0,83,0.00,,---,1.42,VWS V14.01,2013-05-20 04:50:00,
2013-05-19 23:51:00,64.3,59.0,29.61,East,82,60.0,60.0,83,0.00,,---,1.42,VWS V14.01,2013-05-20 04:51:00,
2013-05-19 23:52:00,64.3,59.0,29.61,East,82,60.0,60.0,83,0.00,,---,1.42,VWS V14.01,2013-05-20 04:52:00,
2013-05-19 23:53:00,64.3,59.0,29.61,ENE,65,60.0,60.0,83,0.00,,---,1.42,VWS V14.01,2013-05-20 04:53:00,
2013-05-19 23:54:00,64.3,59.0,29.61,NE,40,60.0,60.0,83,0.00,,---,1.42,VWS V14.01,2013-05-20 04:54:00,
2013-05-19 23:55:00,64.2,58.9,29.61,East,92,60.0,60.0,83,0.00,,---,1.42,VWS V14.01,2013-05-20 04:55:00,
2013-05-19 23:56:00,64.2,58.9,29.61,East,92,60.0,60.0,83,0.00,,---,1.42,VWS V14.01,2013-05-20 04:56:00,
2013-05-19 23:57:00,64.2,58.9,29.61,ENE,64,60.0,60.0,83,0.00,,---,1.42,VWS V14.01,2013-05-20 04:57:00,
2013-05-19 23:58:00,64.2,58.9,29.61,East,93,60.0,60.0,83,0.00,,---,1.42,VWS V14.01,2013-05-20 04:58:00,
2013-05-19 23:59:00,64.0,58.7,29.61,ENE,78,60.0,60.0,83,0.00,,---,1.42,VWS V14.01,2013-05-20 04:59:00,